<?xml version="1.0" encoding="UTF-8" standalone="no" ?>
<gpx xmlns="http://www.topografix.com/GPX/1/1" xmlns:xsi="http://www.w3.org/2001/XMLSchema-instance" xsi:schemaLocation="http://www.topografix.com/GPX/1/1 http://www.topografix.com/GPX/1/1/gpx.xsd" version="1.1" creator="VisuGPX - https://www.visugpx.com">
  <metadata>
    <name>Rando rose castillonnes </name>
    <desc><![CDATA[rando rose castillonnes 2022]]></desc>
  </metadata>
  <trk>
    <name><![CDATA[Rando rose castillonnes ]]></name>
    <trkseg>
      <trkpt lat="44.65377" lon="0.59278">
        <ele>115.8</ele>
        <time>2022-10-15T06:11:55Z</time>
      </trkpt>
      <trkpt lat="44.65377" lon="0.59278">
        <ele>115.8</ele>
        <time>2022-10-15T06:11:56Z</time>
      </trkpt>
      <trkpt lat="44.65384" lon="0.59268">
        <ele>117.2</ele>
        <time>2022-10-15T06:12:15Z</time>
      </trkpt>
      <trkpt lat="44.65384" lon="0.59262">
        <ele>117.2</ele>
        <time>2022-10-15T06:12:17Z</time>
      </trkpt>
      <trkpt lat="44.65381" lon="0.59261">
        <ele>117.2</ele>
        <time>2022-10-15T06:12:19Z</time>
      </trkpt>
      <trkpt lat="44.65379" lon="0.59263">
        <ele>117.2</ele>
        <time>2022-10-15T06:12:20Z</time>
      </trkpt>
      <trkpt lat="44.65378" lon="0.59265">
        <ele>117.2</ele>
        <time>2022-10-15T06:12:21Z</time>
      </trkpt>
      <trkpt lat="44.65379" lon="0.59271">
        <ele>117.2</ele>
        <time>2022-10-15T06:12:23Z</time>
      </trkpt>
      <trkpt lat="44.65382" lon="0.59288">
        <ele>115.8</ele>
        <time>2022-10-15T06:12:27Z</time>
      </trkpt>
      <trkpt lat="44.6538" lon="0.59293">
        <ele>114.3</ele>
        <time>2022-10-15T06:12:28Z</time>
      </trkpt>
      <trkpt lat="44.65377" lon="0.59298">
        <ele>114.3</ele>
        <time>2022-10-15T06:12:29Z</time>
      </trkpt>
      <trkpt lat="44.65367" lon="0.59308">
        <ele>115.7</ele>
        <time>2022-10-15T06:12:31Z</time>
      </trkpt>
      <trkpt lat="44.65352" lon="0.59325">
        <ele>115.7</ele>
        <time>2022-10-15T06:12:34Z</time>
      </trkpt>
      <trkpt lat="44.65342" lon="0.59339">
        <ele>114.1</ele>
        <time>2022-10-15T06:12:36Z</time>
      </trkpt>
      <trkpt lat="44.65326" lon="0.59378">
        <ele>111.1</ele>
        <time>2022-10-15T06:12:40Z</time>
      </trkpt>
      <trkpt lat="44.65306" lon="0.59422">
        <ele>110</ele>
        <time>2022-10-15T06:12:45Z</time>
      </trkpt>
      <trkpt lat="44.653" lon="0.59435">
        <ele>109.4</ele>
        <time>2022-10-15T06:12:47Z</time>
      </trkpt>
      <trkpt lat="44.65301" lon="0.59447">
        <ele>109</ele>
        <time>2022-10-15T06:12:49Z</time>
      </trkpt>
      <trkpt lat="44.65302" lon="0.59451">
        <ele>108.6</ele>
        <time>2022-10-15T06:12:50Z</time>
      </trkpt>
      <trkpt lat="44.65309" lon="0.59456">
        <ele>107.6</ele>
        <time>2022-10-15T06:12:52Z</time>
      </trkpt>
      <trkpt lat="44.65329" lon="0.59473">
        <ele>105</ele>
        <time>2022-10-15T06:12:57Z</time>
      </trkpt>
      <trkpt lat="44.65333" lon="0.59478">
        <ele>104.8</ele>
        <time>2022-10-15T06:12:58Z</time>
      </trkpt>
      <trkpt lat="44.65337" lon="0.59485">
        <ele>104.7</ele>
        <time>2022-10-15T06:12:59Z</time>
      </trkpt>
      <trkpt lat="44.65341" lon="0.59499">
        <ele>104.6</ele>
        <time>2022-10-15T06:13:01Z</time>
      </trkpt>
      <trkpt lat="44.65342" lon="0.59506">
        <ele>104.5</ele>
        <time>2022-10-15T06:13:02Z</time>
      </trkpt>
      <trkpt lat="44.65344" lon="0.59518">
        <ele>104.6</ele>
        <time>2022-10-15T06:13:04Z</time>
      </trkpt>
      <trkpt lat="44.65344" lon="0.59528">
        <ele>104.7</ele>
        <time>2022-10-15T06:13:06Z</time>
      </trkpt>
      <trkpt lat="44.65338" lon="0.59559">
        <ele>104.9</ele>
        <time>2022-10-15T06:13:12Z</time>
      </trkpt>
      <trkpt lat="44.65332" lon="0.596">
        <ele>104.7</ele>
        <time>2022-10-15T06:13:19Z</time>
      </trkpt>
      <trkpt lat="44.65332" lon="0.59606">
        <ele>104</ele>
        <time>2022-10-15T06:13:20Z</time>
      </trkpt>
      <trkpt lat="44.65334" lon="0.59612">
        <ele>103.6</ele>
        <time>2022-10-15T06:13:21Z</time>
      </trkpt>
      <trkpt lat="44.6534" lon="0.59621">
        <ele>102.8</ele>
        <time>2022-10-15T06:13:23Z</time>
      </trkpt>
      <trkpt lat="44.65363" lon="0.59638">
        <ele>100.3</ele>
        <time>2022-10-15T06:13:27Z</time>
      </trkpt>
      <trkpt lat="44.65394" lon="0.5966">
        <ele>97.5</ele>
        <time>2022-10-15T06:13:31Z</time>
      </trkpt>
      <trkpt lat="44.65446" lon="0.59696">
        <ele>94.4</ele>
        <time>2022-10-15T06:13:37Z</time>
      </trkpt>
      <trkpt lat="44.65463" lon="0.59707">
        <ele>94</ele>
        <time>2022-10-15T06:13:39Z</time>
      </trkpt>
      <trkpt lat="44.65494" lon="0.59724">
        <ele>94.5</ele>
        <time>2022-10-15T06:13:43Z</time>
      </trkpt>
      <trkpt lat="44.655" lon="0.59727">
        <ele>94.6</ele>
        <time>2022-10-15T06:13:44Z</time>
      </trkpt>
      <trkpt lat="44.65505" lon="0.59736">
        <ele>94.6</ele>
        <time>2022-10-15T06:13:46Z</time>
      </trkpt>
      <trkpt lat="44.65501" lon="0.59745">
        <ele>94.8</ele>
        <time>2022-10-15T06:13:48Z</time>
      </trkpt>
      <trkpt lat="44.65479" lon="0.59753">
        <ele>95.8</ele>
        <time>2022-10-15T06:13:53Z</time>
      </trkpt>
      <trkpt lat="44.65438" lon="0.5977">
        <ele>96.1</ele>
        <time>2022-10-15T06:14:01Z</time>
      </trkpt>
      <trkpt lat="44.65403" lon="0.59784">
        <ele>95.8</ele>
        <time>2022-10-15T06:14:08Z</time>
      </trkpt>
      <trkpt lat="44.65367" lon="0.59793">
        <ele>96.1</ele>
        <time>2022-10-15T06:14:16Z</time>
      </trkpt>
      <trkpt lat="44.65328" lon="0.59799">
        <ele>98</ele>
        <time>2022-10-15T06:14:24Z</time>
      </trkpt>
      <trkpt lat="44.65289" lon="0.59802">
        <ele>102.3</ele>
        <time>2022-10-15T06:14:32Z</time>
      </trkpt>
      <trkpt lat="44.65255" lon="0.59799">
        <ele>104.9</ele>
        <time>2022-10-15T06:14:39Z</time>
      </trkpt>
      <trkpt lat="44.65228" lon="0.59797">
        <ele>108.2</ele>
        <time>2022-10-15T06:14:45Z</time>
      </trkpt>
      <trkpt lat="44.65218" lon="0.59795">
        <ele>108.4</ele>
        <time>2022-10-15T06:14:47Z</time>
      </trkpt>
      <trkpt lat="44.65188" lon="0.59788">
        <ele>109.1</ele>
        <time>2022-10-15T06:14:54Z</time>
      </trkpt>
      <trkpt lat="44.65167" lon="0.59782">
        <ele>109.6</ele>
        <time>2022-10-15T06:14:59Z</time>
      </trkpt>
      <trkpt lat="44.6516" lon="0.59779">
        <ele>109.8</ele>
        <time>2022-10-15T06:15:01Z</time>
      </trkpt>
      <trkpt lat="44.65128" lon="0.59766">
        <ele>110.2</ele>
        <time>2022-10-15T06:15:09Z</time>
      </trkpt>
      <trkpt lat="44.65097" lon="0.59754">
        <ele>110</ele>
        <time>2022-10-15T06:15:17Z</time>
      </trkpt>
      <trkpt lat="44.65069" lon="0.5974">
        <ele>109.5</ele>
        <time>2022-10-15T06:15:24Z</time>
      </trkpt>
      <trkpt lat="44.65042" lon="0.59724">
        <ele>109.2</ele>
        <time>2022-10-15T06:15:32Z</time>
      </trkpt>
      <trkpt lat="44.65019" lon="0.59713">
        <ele>108.9</ele>
        <time>2022-10-15T06:15:40Z</time>
      </trkpt>
      <trkpt lat="44.65005" lon="0.59712">
        <ele>108.7</ele>
        <time>2022-10-15T06:15:45Z</time>
      </trkpt>
      <trkpt lat="44.64988" lon="0.59717">
        <ele>108.4</ele>
        <time>2022-10-15T06:15:50Z</time>
      </trkpt>
      <trkpt lat="44.64986" lon="0.59724">
        <ele>108.3</ele>
        <time>2022-10-15T06:15:52Z</time>
      </trkpt>
      <trkpt lat="44.64988" lon="0.59726">
        <ele>108.3</ele>
        <time>2022-10-15T06:15:53Z</time>
      </trkpt>
      <trkpt lat="44.65009" lon="0.59735">
        <ele>107.9</ele>
        <time>2022-10-15T06:15:59Z</time>
      </trkpt>
      <trkpt lat="44.65032" lon="0.59746">
        <ele>107.4</ele>
        <time>2022-10-15T06:16:05Z</time>
      </trkpt>
      <trkpt lat="44.6505" lon="0.59756">
        <ele>108.3</ele>
        <time>2022-10-15T06:16:11Z</time>
      </trkpt>
      <trkpt lat="44.65076" lon="0.59766">
        <ele>109.4</ele>
        <time>2022-10-15T06:16:18Z</time>
      </trkpt>
      <trkpt lat="44.65097" lon="0.59781">
        <ele>110.3</ele>
        <time>2022-10-15T06:16:24Z</time>
      </trkpt>
      <trkpt lat="44.651" lon="0.5979">
        <ele>110.3</ele>
        <time>2022-10-15T06:16:27Z</time>
      </trkpt>
      <trkpt lat="44.651" lon="0.59794">
        <ele>110.1</ele>
        <time>2022-10-15T06:16:28Z</time>
      </trkpt>
      <trkpt lat="44.65092" lon="0.59823">
        <ele>109.3</ele>
        <time>2022-10-15T06:16:33Z</time>
      </trkpt>
      <trkpt lat="44.6508" lon="0.59873">
        <ele>108.2</ele>
        <time>2022-10-15T06:16:40Z</time>
      </trkpt>
      <trkpt lat="44.65078" lon="0.59881">
        <ele>108</ele>
        <time>2022-10-15T06:16:41Z</time>
      </trkpt>
      <trkpt lat="44.65072" lon="0.59893">
        <ele>107.5</ele>
        <time>2022-10-15T06:16:43Z</time>
      </trkpt>
      <trkpt lat="44.65067" lon="0.59898">
        <ele>107.2</ele>
        <time>2022-10-15T06:16:44Z</time>
      </trkpt>
      <trkpt lat="44.65061" lon="0.59901">
        <ele>106.9</ele>
        <time>2022-10-15T06:16:45Z</time>
      </trkpt>
      <trkpt lat="44.65041" lon="0.59909">
        <ele>106</ele>
        <time>2022-10-15T06:16:48Z</time>
      </trkpt>
      <trkpt lat="44.64994" lon="0.59937">
        <ele>104.8</ele>
        <time>2022-10-15T06:16:55Z</time>
      </trkpt>
      <trkpt lat="44.6495" lon="0.59976">
        <ele>104.6</ele>
        <time>2022-10-15T06:17:02Z</time>
      </trkpt>
      <trkpt lat="44.6491" lon="0.60013">
        <ele>104.9</ele>
        <time>2022-10-15T06:17:09Z</time>
      </trkpt>
      <trkpt lat="44.64899" lon="0.60019">
        <ele>104.8</ele>
        <time>2022-10-15T06:17:11Z</time>
      </trkpt>
      <trkpt lat="44.64881" lon="0.60025">
        <ele>104.2</ele>
        <time>2022-10-15T06:17:14Z</time>
      </trkpt>
      <trkpt lat="44.64835" lon="0.60041">
        <ele>102.1</ele>
        <time>2022-10-15T06:17:21Z</time>
      </trkpt>
      <trkpt lat="44.64782" lon="0.60062">
        <ele>98.5</ele>
        <time>2022-10-15T06:17:28Z</time>
      </trkpt>
      <trkpt lat="44.64737" lon="0.60087">
        <ele>95.4</ele>
        <time>2022-10-15T06:17:33Z</time>
      </trkpt>
      <trkpt lat="44.64687" lon="0.60121">
        <ele>94.6</ele>
        <time>2022-10-15T06:17:39Z</time>
      </trkpt>
      <trkpt lat="44.64651" lon="0.6014">
        <ele>96.1</ele>
        <time>2022-10-15T06:17:44Z</time>
      </trkpt>
      <trkpt lat="44.64626" lon="0.60155">
        <ele>97.4</ele>
        <time>2022-10-15T06:17:49Z</time>
      </trkpt>
      <trkpt lat="44.64617" lon="0.6016">
        <ele>97.8</ele>
        <time>2022-10-15T06:17:51Z</time>
      </trkpt>
      <trkpt lat="44.64602" lon="0.60173">
        <ele>98.2</ele>
        <time>2022-10-15T06:17:55Z</time>
      </trkpt>
      <trkpt lat="44.64574" lon="0.60198">
        <ele>97.4</ele>
        <time>2022-10-15T06:18:02Z</time>
      </trkpt>
      <trkpt lat="44.6457" lon="0.60202">
        <ele>97.2</ele>
        <time>2022-10-15T06:18:03Z</time>
      </trkpt>
      <trkpt lat="44.64545" lon="0.60227">
        <ele>95.6</ele>
        <time>2022-10-15T06:18:08Z</time>
      </trkpt>
      <trkpt lat="44.64513" lon="0.60266">
        <ele>94.3</ele>
        <time>2022-10-15T06:18:14Z</time>
      </trkpt>
      <trkpt lat="44.64494" lon="0.60311">
        <ele>94.4</ele>
        <time>2022-10-15T06:18:19Z</time>
      </trkpt>
      <trkpt lat="44.64482" lon="0.60362">
        <ele>95.1</ele>
        <time>2022-10-15T06:18:25Z</time>
      </trkpt>
      <trkpt lat="44.64473" lon="0.60406">
        <ele>96.1</ele>
        <time>2022-10-15T06:18:31Z</time>
      </trkpt>
      <trkpt lat="44.64463" lon="0.60442">
        <ele>96.8</ele>
        <time>2022-10-15T06:18:37Z</time>
      </trkpt>
      <trkpt lat="44.64451" lon="0.60481">
        <ele>97.3</ele>
        <time>2022-10-15T06:18:43Z</time>
      </trkpt>
      <trkpt lat="44.64431" lon="0.60547">
        <ele>97.8</ele>
        <time>2022-10-15T06:18:53Z</time>
      </trkpt>
      <trkpt lat="44.64418" lon="0.606">
        <ele>98.5</ele>
        <time>2022-10-15T06:19:01Z</time>
      </trkpt>
      <trkpt lat="44.64409" lon="0.60637">
        <ele>98.6</ele>
        <time>2022-10-15T06:19:07Z</time>
      </trkpt>
      <trkpt lat="44.64402" lon="0.60672">
        <ele>98.4</ele>
        <time>2022-10-15T06:19:12Z</time>
      </trkpt>
      <trkpt lat="44.64391" lon="0.60732">
        <ele>98.4</ele>
        <time>2022-10-15T06:19:20Z</time>
      </trkpt>
      <trkpt lat="44.64382" lon="0.60781">
        <ele>99.1</ele>
        <time>2022-10-15T06:19:27Z</time>
      </trkpt>
      <trkpt lat="44.64375" lon="0.60824">
        <ele>99.7</ele>
        <time>2022-10-15T06:19:34Z</time>
      </trkpt>
      <trkpt lat="44.64374" lon="0.6083">
        <ele>99.7</ele>
        <time>2022-10-15T06:19:35Z</time>
      </trkpt>
      <trkpt lat="44.64373" lon="0.60843">
        <ele>99.7</ele>
        <time>2022-10-15T06:19:37Z</time>
      </trkpt>
      <trkpt lat="44.6437" lon="0.60857">
        <ele>99.7</ele>
        <time>2022-10-15T06:19:39Z</time>
      </trkpt>
      <trkpt lat="44.64362" lon="0.60911">
        <ele>99</ele>
        <time>2022-10-15T06:19:47Z</time>
      </trkpt>
      <trkpt lat="44.64361" lon="0.60919">
        <ele>98.9</ele>
        <time>2022-10-15T06:19:48Z</time>
      </trkpt>
      <trkpt lat="44.64357" lon="0.60949">
        <ele>98</ele>
        <time>2022-10-15T06:19:52Z</time>
      </trkpt>
      <trkpt lat="44.64353" lon="0.60966">
        <ele>97.2</ele>
        <time>2022-10-15T06:19:54Z</time>
      </trkpt>
      <trkpt lat="44.64349" lon="0.60985">
        <ele>96</ele>
        <time>2022-10-15T06:19:56Z</time>
      </trkpt>
      <trkpt lat="44.64345" lon="0.60995">
        <ele>95.4</ele>
        <time>2022-10-15T06:19:57Z</time>
      </trkpt>
      <trkpt lat="44.64334" lon="0.61025">
        <ele>94.6</ele>
        <time>2022-10-15T06:20:00Z</time>
      </trkpt>
      <trkpt lat="44.6432" lon="0.61057">
        <ele>94.7</ele>
        <time>2022-10-15T06:20:04Z</time>
      </trkpt>
      <trkpt lat="44.6431" lon="0.61064">
        <ele>94.8</ele>
        <time>2022-10-15T06:20:06Z</time>
      </trkpt>
      <trkpt lat="44.64304" lon="0.61065">
        <ele>94.9</ele>
        <time>2022-10-15T06:20:07Z</time>
      </trkpt>
      <trkpt lat="44.64281" lon="0.6107">
        <ele>95.2</ele>
        <time>2022-10-15T06:20:11Z</time>
      </trkpt>
      <trkpt lat="44.64276" lon="0.6107">
        <ele>95.3</ele>
        <time>2022-10-15T06:20:12Z</time>
      </trkpt>
      <trkpt lat="44.64262" lon="0.61071">
        <ele>95.4</ele>
        <time>2022-10-15T06:20:15Z</time>
      </trkpt>
      <trkpt lat="44.6425" lon="0.61072">
        <ele>95.6</ele>
        <time>2022-10-15T06:20:18Z</time>
      </trkpt>
      <trkpt lat="44.64219" lon="0.61076">
        <ele>96.3</ele>
        <time>2022-10-15T06:20:25Z</time>
      </trkpt>
      <trkpt lat="44.64201" lon="0.61077">
        <ele>96.5</ele>
        <time>2022-10-15T06:20:30Z</time>
      </trkpt>
      <trkpt lat="44.64186" lon="0.61079">
        <ele>96.6</ele>
        <time>2022-10-15T06:20:34Z</time>
      </trkpt>
      <trkpt lat="44.64181" lon="0.6108">
        <ele>96.6</ele>
        <time>2022-10-15T06:20:35Z</time>
      </trkpt>
      <trkpt lat="44.64158" lon="0.61089">
        <ele>97</ele>
        <time>2022-10-15T06:20:40Z</time>
      </trkpt>
      <trkpt lat="44.6415" lon="0.61094">
        <ele>97.3</ele>
        <time>2022-10-15T06:20:42Z</time>
      </trkpt>
      <trkpt lat="44.64142" lon="0.61102">
        <ele>97.7</ele>
        <time>2022-10-15T06:20:44Z</time>
      </trkpt>
      <trkpt lat="44.64123" lon="0.6113">
        <ele>99</ele>
        <time>2022-10-15T06:20:50Z</time>
      </trkpt>
      <trkpt lat="44.64114" lon="0.61141">
        <ele>99.4</ele>
        <time>2022-10-15T06:20:53Z</time>
      </trkpt>
      <trkpt lat="44.64105" lon="0.61152">
        <ele>99.9</ele>
        <time>2022-10-15T06:20:56Z</time>
      </trkpt>
      <trkpt lat="44.64083" lon="0.61183">
        <ele>101.5</ele>
        <time>2022-10-15T06:21:04Z</time>
      </trkpt>
      <trkpt lat="44.64062" lon="0.61213">
        <ele>103.3</ele>
        <time>2022-10-15T06:21:13Z</time>
      </trkpt>
      <trkpt lat="44.64058" lon="0.61238">
        <ele>104.3</ele>
        <time>2022-10-15T06:21:19Z</time>
      </trkpt>
      <trkpt lat="44.64059" lon="0.61257">
        <ele>105.1</ele>
        <time>2022-10-15T06:21:24Z</time>
      </trkpt>
      <trkpt lat="44.64055" lon="0.61278">
        <ele>105.7</ele>
        <time>2022-10-15T06:21:30Z</time>
      </trkpt>
      <trkpt lat="44.64052" lon="0.6128">
        <ele>105.8</ele>
        <time>2022-10-15T06:21:31Z</time>
      </trkpt>
      <trkpt lat="44.64044" lon="0.61283">
        <ele>105.7</ele>
        <time>2022-10-15T06:21:34Z</time>
      </trkpt>
      <trkpt lat="44.64028" lon="0.61284">
        <ele>105.5</ele>
        <time>2022-10-15T06:21:39Z</time>
      </trkpt>
      <trkpt lat="44.64003" lon="0.61283">
        <ele>105.3</ele>
        <time>2022-10-15T06:21:45Z</time>
      </trkpt>
      <trkpt lat="44.6398" lon="0.61281">
        <ele>105.6</ele>
        <time>2022-10-15T06:21:51Z</time>
      </trkpt>
      <trkpt lat="44.63976" lon="0.61281">
        <ele>105.7</ele>
        <time>2022-10-15T06:21:52Z</time>
      </trkpt>
      <trkpt lat="44.63971" lon="0.61289">
        <ele>105.9</ele>
        <time>2022-10-15T06:21:54Z</time>
      </trkpt>
      <trkpt lat="44.63972" lon="0.61296">
        <ele>106</ele>
        <time>2022-10-15T06:21:55Z</time>
      </trkpt>
      <trkpt lat="44.63974" lon="0.61309">
        <ele>106.3</ele>
        <time>2022-10-15T06:21:57Z</time>
      </trkpt>
      <trkpt lat="44.63975" lon="0.61315">
        <ele>106.4</ele>
        <time>2022-10-15T06:21:58Z</time>
      </trkpt>
      <trkpt lat="44.63982" lon="0.61347">
        <ele>107</ele>
        <time>2022-10-15T06:22:04Z</time>
      </trkpt>
      <trkpt lat="44.63992" lon="0.61377">
        <ele>106.7</ele>
        <time>2022-10-15T06:22:10Z</time>
      </trkpt>
      <trkpt lat="44.64005" lon="0.61404">
        <ele>106</ele>
        <time>2022-10-15T06:22:15Z</time>
      </trkpt>
      <trkpt lat="44.64007" lon="0.61411">
        <ele>105.9</ele>
        <time>2022-10-15T06:22:16Z</time>
      </trkpt>
      <trkpt lat="44.6401" lon="0.61425">
        <ele>105.5</ele>
        <time>2022-10-15T06:22:18Z</time>
      </trkpt>
      <trkpt lat="44.64013" lon="0.61447">
        <ele>105.1</ele>
        <time>2022-10-15T06:22:21Z</time>
      </trkpt>
      <trkpt lat="44.6402" lon="0.61487">
        <ele>104</ele>
        <time>2022-10-15T06:22:27Z</time>
      </trkpt>
      <trkpt lat="44.64024" lon="0.61506">
        <ele>103.4</ele>
        <time>2022-10-15T06:22:30Z</time>
      </trkpt>
      <trkpt lat="44.64027" lon="0.61512">
        <ele>103.2</ele>
        <time>2022-10-15T06:22:31Z</time>
      </trkpt>
      <trkpt lat="44.64031" lon="0.61516">
        <ele>103.1</ele>
        <time>2022-10-15T06:22:32Z</time>
      </trkpt>
      <trkpt lat="44.64046" lon="0.61528">
        <ele>102.7</ele>
        <time>2022-10-15T06:22:35Z</time>
      </trkpt>
      <trkpt lat="44.64089" lon="0.61563">
        <ele>101.7</ele>
        <time>2022-10-15T06:22:43Z</time>
      </trkpt>
      <trkpt lat="44.64135" lon="0.61603">
        <ele>100.8</ele>
        <time>2022-10-15T06:22:52Z</time>
      </trkpt>
      <trkpt lat="44.64154" lon="0.6162">
        <ele>100.6</ele>
        <time>2022-10-15T06:22:56Z</time>
      </trkpt>
      <trkpt lat="44.64156" lon="0.61626">
        <ele>100.5</ele>
        <time>2022-10-15T06:22:57Z</time>
      </trkpt>
      <trkpt lat="44.64154" lon="0.61631">
        <ele>100.5</ele>
        <time>2022-10-15T06:22:58Z</time>
      </trkpt>
      <trkpt lat="44.64151" lon="0.61634">
        <ele>100.6</ele>
        <time>2022-10-15T06:22:59Z</time>
      </trkpt>
      <trkpt lat="44.64124" lon="0.6164">
        <ele>100.9</ele>
        <time>2022-10-15T06:23:04Z</time>
      </trkpt>
      <trkpt lat="44.64077" lon="0.61652">
        <ele>101.5</ele>
        <time>2022-10-15T06:23:12Z</time>
      </trkpt>
      <trkpt lat="44.6403" lon="0.61667">
        <ele>102.2</ele>
        <time>2022-10-15T06:23:20Z</time>
      </trkpt>
      <trkpt lat="44.63983" lon="0.61683">
        <ele>102.2</ele>
        <time>2022-10-15T06:23:28Z</time>
      </trkpt>
      <trkpt lat="44.6396" lon="0.61693">
        <ele>102</ele>
        <time>2022-10-15T06:23:32Z</time>
      </trkpt>
      <trkpt lat="44.63944" lon="0.61705">
        <ele>101.9</ele>
        <time>2022-10-15T06:23:35Z</time>
      </trkpt>
      <trkpt lat="44.63905" lon="0.61737">
        <ele>101.5</ele>
        <time>2022-10-15T06:23:43Z</time>
      </trkpt>
      <trkpt lat="44.63896" lon="0.61746">
        <ele>101.2</ele>
        <time>2022-10-15T06:23:45Z</time>
      </trkpt>
      <trkpt lat="44.63891" lon="0.61761">
        <ele>100.8</ele>
        <time>2022-10-15T06:23:47Z</time>
      </trkpt>
      <trkpt lat="44.63893" lon="0.61779">
        <ele>100.5</ele>
        <time>2022-10-15T06:23:49Z</time>
      </trkpt>
      <trkpt lat="44.63896" lon="0.61787">
        <ele>100.3</ele>
        <time>2022-10-15T06:23:50Z</time>
      </trkpt>
      <trkpt lat="44.63917" lon="0.6186">
        <ele>99</ele>
        <time>2022-10-15T06:23:59Z</time>
      </trkpt>
      <trkpt lat="44.63919" lon="0.61867">
        <ele>98.9</ele>
        <time>2022-10-15T06:24:00Z</time>
      </trkpt>
      <trkpt lat="44.63933" lon="0.61916">
        <ele>98.1</ele>
        <time>2022-10-15T06:24:07Z</time>
      </trkpt>
      <trkpt lat="44.63935" lon="0.61922">
        <ele>98.1</ele>
        <time>2022-10-15T06:24:08Z</time>
      </trkpt>
      <trkpt lat="44.63937" lon="0.61935">
        <ele>97.9</ele>
        <time>2022-10-15T06:24:10Z</time>
      </trkpt>
      <trkpt lat="44.63935" lon="0.61942">
        <ele>97.8</ele>
        <time>2022-10-15T06:24:11Z</time>
      </trkpt>
      <trkpt lat="44.63933" lon="0.61947">
        <ele>97.7</ele>
        <time>2022-10-15T06:24:12Z</time>
      </trkpt>
      <trkpt lat="44.63925" lon="0.61953">
        <ele>97.5</ele>
        <time>2022-10-15T06:24:14Z</time>
      </trkpt>
      <trkpt lat="44.63893" lon="0.61974">
        <ele>96.7</ele>
        <time>2022-10-15T06:24:20Z</time>
      </trkpt>
      <trkpt lat="44.63871" lon="0.61988">
        <ele>96.2</ele>
        <time>2022-10-15T06:24:24Z</time>
      </trkpt>
      <trkpt lat="44.63868" lon="0.61994">
        <ele>96.1</ele>
        <time>2022-10-15T06:24:25Z</time>
      </trkpt>
      <trkpt lat="44.63867" lon="0.62001">
        <ele>96</ele>
        <time>2022-10-15T06:24:26Z</time>
      </trkpt>
      <trkpt lat="44.63868" lon="0.62008">
        <ele>95.9</ele>
        <time>2022-10-15T06:24:27Z</time>
      </trkpt>
      <trkpt lat="44.63871" lon="0.62014">
        <ele>95.8</ele>
        <time>2022-10-15T06:24:28Z</time>
      </trkpt>
      <trkpt lat="44.63881" lon="0.62034">
        <ele>95.6</ele>
        <time>2022-10-15T06:24:31Z</time>
      </trkpt>
      <trkpt lat="44.63884" lon="0.62041">
        <ele>95.5</ele>
        <time>2022-10-15T06:24:32Z</time>
      </trkpt>
      <trkpt lat="44.63889" lon="0.62055">
        <ele>95.3</ele>
        <time>2022-10-15T06:24:34Z</time>
      </trkpt>
      <trkpt lat="44.63892" lon="0.62072">
        <ele>94.9</ele>
        <time>2022-10-15T06:24:36Z</time>
      </trkpt>
      <trkpt lat="44.63894" lon="0.6208">
        <ele>94.7</ele>
        <time>2022-10-15T06:24:37Z</time>
      </trkpt>
      <trkpt lat="44.639" lon="0.62094">
        <ele>94</ele>
        <time>2022-10-15T06:24:39Z</time>
      </trkpt>
      <trkpt lat="44.63901" lon="0.62102">
        <ele>93.6</ele>
        <time>2022-10-15T06:24:40Z</time>
      </trkpt>
      <trkpt lat="44.63901" lon="0.62111">
        <ele>93.1</ele>
        <time>2022-10-15T06:24:41Z</time>
      </trkpt>
      <trkpt lat="44.63898" lon="0.62118">
        <ele>92.6</ele>
        <time>2022-10-15T06:24:42Z</time>
      </trkpt>
      <trkpt lat="44.63894" lon="0.62126">
        <ele>92.1</ele>
        <time>2022-10-15T06:24:43Z</time>
      </trkpt>
      <trkpt lat="44.63878" lon="0.62149">
        <ele>90.5</ele>
        <time>2022-10-15T06:24:46Z</time>
      </trkpt>
      <trkpt lat="44.63868" lon="0.62164">
        <ele>89.7</ele>
        <time>2022-10-15T06:24:48Z</time>
      </trkpt>
      <trkpt lat="44.63856" lon="0.62175">
        <ele>88.9</ele>
        <time>2022-10-15T06:24:50Z</time>
      </trkpt>
      <trkpt lat="44.6385" lon="0.62181">
        <ele>88.6</ele>
        <time>2022-10-15T06:24:51Z</time>
      </trkpt>
      <trkpt lat="44.63842" lon="0.62198">
        <ele>87.7</ele>
        <time>2022-10-15T06:24:53Z</time>
      </trkpt>
      <trkpt lat="44.63833" lon="0.62251">
        <ele>85.4</ele>
        <time>2022-10-15T06:24:58Z</time>
      </trkpt>
      <trkpt lat="44.63821" lon="0.62323">
        <ele>83</ele>
        <time>2022-10-15T06:25:05Z</time>
      </trkpt>
      <trkpt lat="44.63817" lon="0.62335">
        <ele>82.7</ele>
        <time>2022-10-15T06:25:07Z</time>
      </trkpt>
      <trkpt lat="44.63813" lon="0.62337">
        <ele>82.9</ele>
        <time>2022-10-15T06:25:08Z</time>
      </trkpt>
      <trkpt lat="44.63807" lon="0.62337">
        <ele>83</ele>
        <time>2022-10-15T06:25:09Z</time>
      </trkpt>
      <trkpt lat="44.63795" lon="0.62335">
        <ele>83.1</ele>
        <time>2022-10-15T06:25:11Z</time>
      </trkpt>
      <trkpt lat="44.63763" lon="0.62328">
        <ele>83.3</ele>
        <time>2022-10-15T06:25:16Z</time>
      </trkpt>
      <trkpt lat="44.63708" lon="0.62319">
        <ele>82.4</ele>
        <time>2022-10-15T06:25:25Z</time>
      </trkpt>
      <trkpt lat="44.63672" lon="0.62312">
        <ele>83</ele>
        <time>2022-10-15T06:25:31Z</time>
      </trkpt>
      <trkpt lat="44.63627" lon="0.62302">
        <ele>81.6</ele>
        <time>2022-10-15T06:25:38Z</time>
      </trkpt>
      <trkpt lat="44.63579" lon="0.6229">
        <ele>81.2</ele>
        <time>2022-10-15T06:25:45Z</time>
      </trkpt>
      <trkpt lat="44.63537" lon="0.6227">
        <ele>81.7</ele>
        <time>2022-10-15T06:25:52Z</time>
      </trkpt>
      <trkpt lat="44.63492" lon="0.62248">
        <ele>82.3</ele>
        <time>2022-10-15T06:26:01Z</time>
      </trkpt>
      <trkpt lat="44.63459" lon="0.62231">
        <ele>82.6</ele>
        <time>2022-10-15T06:26:08Z</time>
      </trkpt>
      <trkpt lat="44.63424" lon="0.62213">
        <ele>82.5</ele>
        <time>2022-10-15T06:26:15Z</time>
      </trkpt>
      <trkpt lat="44.6339" lon="0.62189">
        <ele>83.7</ele>
        <time>2022-10-15T06:26:22Z</time>
      </trkpt>
      <trkpt lat="44.63385" lon="0.62185">
        <ele>83.8</ele>
        <time>2022-10-15T06:26:23Z</time>
      </trkpt>
      <trkpt lat="44.63378" lon="0.62177">
        <ele>83.9</ele>
        <time>2022-10-15T06:26:25Z</time>
      </trkpt>
      <trkpt lat="44.63372" lon="0.62168">
        <ele>84.8</ele>
        <time>2022-10-15T06:26:27Z</time>
      </trkpt>
      <trkpt lat="44.63357" lon="0.62141">
        <ele>86.7</ele>
        <time>2022-10-15T06:26:33Z</time>
      </trkpt>
      <trkpt lat="44.63341" lon="0.62109">
        <ele>87.8</ele>
        <time>2022-10-15T06:26:41Z</time>
      </trkpt>
      <trkpt lat="44.63329" lon="0.62092">
        <ele>89.5</ele>
        <time>2022-10-15T06:26:47Z</time>
      </trkpt>
      <trkpt lat="44.63318" lon="0.62076">
        <ele>91.3</ele>
        <time>2022-10-15T06:26:54Z</time>
      </trkpt>
      <trkpt lat="44.63313" lon="0.62068">
        <ele>92.6</ele>
        <time>2022-10-15T06:26:58Z</time>
      </trkpt>
      <trkpt lat="44.63311" lon="0.62066">
        <ele>93.5</ele>
        <time>2022-10-15T06:26:59Z</time>
      </trkpt>
      <trkpt lat="44.63304" lon="0.62053">
        <ele>95</ele>
        <time>2022-10-15T06:27:05Z</time>
      </trkpt>
      <trkpt lat="44.633" lon="0.62035">
        <ele>95.9</ele>
        <time>2022-10-15T06:27:12Z</time>
      </trkpt>
      <trkpt lat="44.63294" lon="0.6202">
        <ele>96.4</ele>
        <time>2022-10-15T06:27:16Z</time>
      </trkpt>
      <trkpt lat="44.63292" lon="0.62003">
        <ele>96.8</ele>
        <time>2022-10-15T06:27:20Z</time>
      </trkpt>
      <trkpt lat="44.63293" lon="0.61978">
        <ele>97.3</ele>
        <time>2022-10-15T06:27:26Z</time>
      </trkpt>
      <trkpt lat="44.63294" lon="0.61954">
        <ele>97.9</ele>
        <time>2022-10-15T06:27:32Z</time>
      </trkpt>
      <trkpt lat="44.63296" lon="0.61935">
        <ele>98.5</ele>
        <time>2022-10-15T06:27:37Z</time>
      </trkpt>
      <trkpt lat="44.63297" lon="0.61913">
        <ele>99.1</ele>
        <time>2022-10-15T06:27:43Z</time>
      </trkpt>
      <trkpt lat="44.63298" lon="0.61892">
        <ele>99.8</ele>
        <time>2022-10-15T06:27:49Z</time>
      </trkpt>
      <trkpt lat="44.63294" lon="0.6187">
        <ele>100.5</ele>
        <time>2022-10-15T06:27:55Z</time>
      </trkpt>
      <trkpt lat="44.63288" lon="0.61839">
        <ele>101.7</ele>
        <time>2022-10-15T06:28:03Z</time>
      </trkpt>
      <trkpt lat="44.63285" lon="0.61806">
        <ele>102.7</ele>
        <time>2022-10-15T06:28:11Z</time>
      </trkpt>
      <trkpt lat="44.63279" lon="0.61778">
        <ele>103.4</ele>
        <time>2022-10-15T06:28:17Z</time>
      </trkpt>
      <trkpt lat="44.63275" lon="0.61744">
        <ele>104.3</ele>
        <time>2022-10-15T06:28:23Z</time>
      </trkpt>
      <trkpt lat="44.63268" lon="0.61696">
        <ele>105.8</ele>
        <time>2022-10-15T06:28:32Z</time>
      </trkpt>
      <trkpt lat="44.63261" lon="0.61652">
        <ele>107.4</ele>
        <time>2022-10-15T06:28:40Z</time>
      </trkpt>
      <trkpt lat="44.63256" lon="0.61616">
        <ele>108.6</ele>
        <time>2022-10-15T06:28:47Z</time>
      </trkpt>
      <trkpt lat="44.63251" lon="0.61593">
        <ele>109.2</ele>
        <time>2022-10-15T06:28:53Z</time>
      </trkpt>
      <trkpt lat="44.63247" lon="0.61588">
        <ele>109.3</ele>
        <time>2022-10-15T06:28:55Z</time>
      </trkpt>
      <trkpt lat="44.63241" lon="0.61586">
        <ele>109.6</ele>
        <time>2022-10-15T06:28:57Z</time>
      </trkpt>
      <trkpt lat="44.63216" lon="0.61585">
        <ele>109.9</ele>
        <time>2022-10-15T06:29:03Z</time>
      </trkpt>
      <trkpt lat="44.63198" lon="0.61588">
        <ele>109.7</ele>
        <time>2022-10-15T06:29:07Z</time>
      </trkpt>
      <trkpt lat="44.63189" lon="0.6159">
        <ele>109.5</ele>
        <time>2022-10-15T06:29:09Z</time>
      </trkpt>
      <trkpt lat="44.63167" lon="0.61595">
        <ele>108.8</ele>
        <time>2022-10-15T06:29:13Z</time>
      </trkpt>
      <trkpt lat="44.63155" lon="0.61595">
        <ele>108.3</ele>
        <time>2022-10-15T06:29:15Z</time>
      </trkpt>
      <trkpt lat="44.63106" lon="0.61593">
        <ele>106.1</ele>
        <time>2022-10-15T06:29:22Z</time>
      </trkpt>
      <trkpt lat="44.63051" lon="0.61588">
        <ele>103</ele>
        <time>2022-10-15T06:29:29Z</time>
      </trkpt>
      <trkpt lat="44.63035" lon="0.61586">
        <ele>102.4</ele>
        <time>2022-10-15T06:29:31Z</time>
      </trkpt>
      <trkpt lat="44.6299" lon="0.61582">
        <ele>101.8</ele>
        <time>2022-10-15T06:29:37Z</time>
      </trkpt>
      <trkpt lat="44.62956" lon="0.61579">
        <ele>102.1</ele>
        <time>2022-10-15T06:29:43Z</time>
      </trkpt>
      <trkpt lat="44.62941" lon="0.61578">
        <ele>102.5</ele>
        <time>2022-10-15T06:29:46Z</time>
      </trkpt>
      <trkpt lat="44.62932" lon="0.61582">
        <ele>102.7</ele>
        <time>2022-10-15T06:29:48Z</time>
      </trkpt>
      <trkpt lat="44.62926" lon="0.61593">
        <ele>102.3</ele>
        <time>2022-10-15T06:29:50Z</time>
      </trkpt>
      <trkpt lat="44.62925" lon="0.61601">
        <ele>102.1</ele>
        <time>2022-10-15T06:29:51Z</time>
      </trkpt>
      <trkpt lat="44.62918" lon="0.61662">
        <ele>100.5</ele>
        <time>2022-10-15T06:29:58Z</time>
      </trkpt>
      <trkpt lat="44.62907" lon="0.61719">
        <ele>98.8</ele>
        <time>2022-10-15T06:30:04Z</time>
      </trkpt>
      <trkpt lat="44.62889" lon="0.61756">
        <ele>96.9</ele>
        <time>2022-10-15T06:30:08Z</time>
      </trkpt>
      <trkpt lat="44.62849" lon="0.61807">
        <ele>93.9</ele>
        <time>2022-10-15T06:30:14Z</time>
      </trkpt>
      <trkpt lat="44.62805" lon="0.61848">
        <ele>92.5</ele>
        <time>2022-10-15T06:30:20Z</time>
      </trkpt>
      <trkpt lat="44.62761" lon="0.61892">
        <ele>90.1</ele>
        <time>2022-10-15T06:30:27Z</time>
      </trkpt>
      <trkpt lat="44.62723" lon="0.61936">
        <ele>87.4</ele>
        <time>2022-10-15T06:30:33Z</time>
      </trkpt>
      <trkpt lat="44.6268" lon="0.61977">
        <ele>85.1</ele>
        <time>2022-10-15T06:30:39Z</time>
      </trkpt>
      <trkpt lat="44.62634" lon="0.62012">
        <ele>83.8</ele>
        <time>2022-10-15T06:30:46Z</time>
      </trkpt>
      <trkpt lat="44.62599" lon="0.6203">
        <ele>83.4</ele>
        <time>2022-10-15T06:30:52Z</time>
      </trkpt>
      <trkpt lat="44.62573" lon="0.62032">
        <ele>83.3</ele>
        <time>2022-10-15T06:30:57Z</time>
      </trkpt>
      <trkpt lat="44.62569" lon="0.62031">
        <ele>83.3</ele>
        <time>2022-10-15T06:30:58Z</time>
      </trkpt>
      <trkpt lat="44.62561" lon="0.62036">
        <ele>83.2</ele>
        <time>2022-10-15T06:31:00Z</time>
      </trkpt>
      <trkpt lat="44.62559" lon="0.62041">
        <ele>83.2</ele>
        <time>2022-10-15T06:31:01Z</time>
      </trkpt>
      <trkpt lat="44.62558" lon="0.62048">
        <ele>83.1</ele>
        <time>2022-10-15T06:31:02Z</time>
      </trkpt>
      <trkpt lat="44.62555" lon="0.62072">
        <ele>82.8</ele>
        <time>2022-10-15T06:31:05Z</time>
      </trkpt>
      <trkpt lat="44.62546" lon="0.62134">
        <ele>82.3</ele>
        <time>2022-10-15T06:31:12Z</time>
      </trkpt>
      <trkpt lat="44.62536" lon="0.622">
        <ele>82</ele>
        <time>2022-10-15T06:31:19Z</time>
      </trkpt>
      <trkpt lat="44.62528" lon="0.62238">
        <ele>81.8</ele>
        <time>2022-10-15T06:31:23Z</time>
      </trkpt>
      <trkpt lat="44.62526" lon="0.62247">
        <ele>81.7</ele>
        <time>2022-10-15T06:31:24Z</time>
      </trkpt>
      <trkpt lat="44.62517" lon="0.62312">
        <ele>81.8</ele>
        <time>2022-10-15T06:31:31Z</time>
      </trkpt>
      <trkpt lat="44.62508" lon="0.62369">
        <ele>82.2</ele>
        <time>2022-10-15T06:31:38Z</time>
      </trkpt>
      <trkpt lat="44.62497" lon="0.62433">
        <ele>82.6</ele>
        <time>2022-10-15T06:31:46Z</time>
      </trkpt>
      <trkpt lat="44.62486" lon="0.62504">
        <ele>83.3</ele>
        <time>2022-10-15T06:31:55Z</time>
      </trkpt>
      <trkpt lat="44.62475" lon="0.62572">
        <ele>84.2</ele>
        <time>2022-10-15T06:32:04Z</time>
      </trkpt>
      <trkpt lat="44.62467" lon="0.62619">
        <ele>85.1</ele>
        <time>2022-10-15T06:32:11Z</time>
      </trkpt>
      <trkpt lat="44.62457" lon="0.62676">
        <ele>86.5</ele>
        <time>2022-10-15T06:32:20Z</time>
      </trkpt>
      <trkpt lat="44.6245" lon="0.62717">
        <ele>87.3</ele>
        <time>2022-10-15T06:32:27Z</time>
      </trkpt>
      <trkpt lat="44.62443" lon="0.62764">
        <ele>88.5</ele>
        <time>2022-10-15T06:32:35Z</time>
      </trkpt>
      <trkpt lat="44.62437" lon="0.62804">
        <ele>89.6</ele>
        <time>2022-10-15T06:32:42Z</time>
      </trkpt>
      <trkpt lat="44.62437" lon="0.62815">
        <ele>89.9</ele>
        <time>2022-10-15T06:32:44Z</time>
      </trkpt>
      <trkpt lat="44.62434" lon="0.62822">
        <ele>90.1</ele>
        <time>2022-10-15T06:32:46Z</time>
      </trkpt>
      <trkpt lat="44.62431" lon="0.62822">
        <ele>90.6</ele>
        <time>2022-10-15T06:32:47Z</time>
      </trkpt>
      <trkpt lat="44.62428" lon="0.6282">
        <ele>90.7</ele>
        <time>2022-10-15T06:32:48Z</time>
      </trkpt>
      <trkpt lat="44.6242" lon="0.62812">
        <ele>90.9</ele>
        <time>2022-10-15T06:32:50Z</time>
      </trkpt>
      <trkpt lat="44.62397" lon="0.62778">
        <ele>91</ele>
        <time>2022-10-15T06:32:56Z</time>
      </trkpt>
      <trkpt lat="44.62385" lon="0.6276">
        <ele>90.9</ele>
        <time>2022-10-15T06:32:59Z</time>
      </trkpt>
      <trkpt lat="44.62377" lon="0.62747">
        <ele>90.6</ele>
        <time>2022-10-15T06:33:01Z</time>
      </trkpt>
      <trkpt lat="44.62354" lon="0.62713">
        <ele>89.2</ele>
        <time>2022-10-15T06:33:07Z</time>
      </trkpt>
      <trkpt lat="44.62337" lon="0.62689">
        <ele>88.1</ele>
        <time>2022-10-15T06:33:12Z</time>
      </trkpt>
      <trkpt lat="44.62315" lon="0.62651">
        <ele>87.3</ele>
        <time>2022-10-15T06:33:18Z</time>
      </trkpt>
      <trkpt lat="44.62292" lon="0.6261">
        <ele>86.6</ele>
        <time>2022-10-15T06:33:24Z</time>
      </trkpt>
      <trkpt lat="44.62278" lon="0.62582">
        <ele>86.3</ele>
        <time>2022-10-15T06:33:29Z</time>
      </trkpt>
      <trkpt lat="44.62274" lon="0.62577">
        <ele>86.5</ele>
        <time>2022-10-15T06:33:30Z</time>
      </trkpt>
      <trkpt lat="44.62262" lon="0.62567">
        <ele>86.6</ele>
        <time>2022-10-15T06:33:33Z</time>
      </trkpt>
      <trkpt lat="44.62235" lon="0.62546">
        <ele>86.2</ele>
        <time>2022-10-15T06:33:39Z</time>
      </trkpt>
      <trkpt lat="44.62198" lon="0.62518">
        <ele>87.7</ele>
        <time>2022-10-15T06:33:47Z</time>
      </trkpt>
      <trkpt lat="44.62168" lon="0.62496">
        <ele>90.4</ele>
        <time>2022-10-15T06:33:55Z</time>
      </trkpt>
      <trkpt lat="44.62144" lon="0.62477">
        <ele>94.4</ele>
        <time>2022-10-15T06:34:02Z</time>
      </trkpt>
      <trkpt lat="44.62125" lon="0.62464">
        <ele>100.5</ele>
        <time>2022-10-15T06:34:09Z</time>
      </trkpt>
      <trkpt lat="44.62113" lon="0.62452">
        <ele>102.6</ele>
        <time>2022-10-15T06:34:15Z</time>
      </trkpt>
      <trkpt lat="44.62103" lon="0.62443">
        <ele>104.3</ele>
        <time>2022-10-15T06:34:21Z</time>
      </trkpt>
      <trkpt lat="44.62093" lon="0.62433">
        <ele>106</ele>
        <time>2022-10-15T06:34:26Z</time>
      </trkpt>
      <trkpt lat="44.62087" lon="0.62426">
        <ele>108.7</ele>
        <time>2022-10-15T06:34:31Z</time>
      </trkpt>
      <trkpt lat="44.62077" lon="0.62416">
        <ele>110.2</ele>
        <time>2022-10-15T06:34:38Z</time>
      </trkpt>
      <trkpt lat="44.62071" lon="0.62409">
        <ele>111.5</ele>
        <time>2022-10-15T06:34:44Z</time>
      </trkpt>
      <trkpt lat="44.62066" lon="0.62407">
        <ele>111.6</ele>
        <time>2022-10-15T06:34:47Z</time>
      </trkpt>
      <trkpt lat="44.62063" lon="0.62407">
        <ele>113.1</ele>
        <time>2022-10-15T06:34:48Z</time>
      </trkpt>
      <trkpt lat="44.62059" lon="0.62405">
        <ele>113.3</ele>
        <time>2022-10-15T06:34:50Z</time>
      </trkpt>
      <trkpt lat="44.62056" lon="0.62406">
        <ele>113.5</ele>
        <time>2022-10-15T06:34:52Z</time>
      </trkpt>
      <trkpt lat="44.62054" lon="0.62405">
        <ele>113.7</ele>
        <time>2022-10-15T06:34:53Z</time>
      </trkpt>
      <trkpt lat="44.62053" lon="0.62406">
        <ele>115.6</ele>
        <time>2022-10-15T06:34:54Z</time>
      </trkpt>
      <trkpt lat="44.62049" lon="0.62403">
        <ele>115.8</ele>
        <time>2022-10-15T06:34:58Z</time>
      </trkpt>
      <trkpt lat="44.62043" lon="0.62398">
        <ele>116.5</ele>
        <time>2022-10-15T06:35:04Z</time>
      </trkpt>
      <trkpt lat="44.62042" lon="0.62397">
        <ele>116.7</ele>
        <time>2022-10-15T06:35:05Z</time>
      </trkpt>
      <trkpt lat="44.62035" lon="0.62393">
        <ele>118.4</ele>
        <time>2022-10-15T06:35:12Z</time>
      </trkpt>
      <trkpt lat="44.6203" lon="0.62389">
        <ele>118.6</ele>
        <time>2022-10-15T06:35:17Z</time>
      </trkpt>
      <trkpt lat="44.61986" lon="0.62361">
        <ele>125.6</ele>
        <time>2022-10-15T06:36:54Z</time>
      </trkpt>
      <trkpt lat="44.61984" lon="0.62366">
        <ele>125.8</ele>
        <time>2022-10-15T06:36:56Z</time>
      </trkpt>
      <trkpt lat="44.61979" lon="0.62376">
        <ele>126.1</ele>
        <time>2022-10-15T06:37:00Z</time>
      </trkpt>
      <trkpt lat="44.61972" lon="0.6239">
        <ele>126.5</ele>
        <time>2022-10-15T06:37:06Z</time>
      </trkpt>
      <trkpt lat="44.61964" lon="0.62408">
        <ele>127</ele>
        <time>2022-10-15T06:37:12Z</time>
      </trkpt>
      <trkpt lat="44.61954" lon="0.62432">
        <ele>127.7</ele>
        <time>2022-10-15T06:37:18Z</time>
      </trkpt>
      <trkpt lat="44.61943" lon="0.62452">
        <ele>128.2</ele>
        <time>2022-10-15T06:37:23Z</time>
      </trkpt>
      <trkpt lat="44.61933" lon="0.62468">
        <ele>128.7</ele>
        <time>2022-10-15T06:37:28Z</time>
      </trkpt>
      <trkpt lat="44.61923" lon="0.62482">
        <ele>129</ele>
        <time>2022-10-15T06:37:34Z</time>
      </trkpt>
      <trkpt lat="44.61916" lon="0.62492">
        <ele>129.3</ele>
        <time>2022-10-15T06:37:38Z</time>
      </trkpt>
      <trkpt lat="44.61915" lon="0.62494">
        <ele>129.3</ele>
        <time>2022-10-15T06:37:39Z</time>
      </trkpt>
      <trkpt lat="44.61908" lon="0.6251">
        <ele>129.7</ele>
        <time>2022-10-15T06:37:43Z</time>
      </trkpt>
      <trkpt lat="44.61905" lon="0.6253">
        <ele>130.1</ele>
        <time>2022-10-15T06:37:47Z</time>
      </trkpt>
      <trkpt lat="44.61897" lon="0.62554">
        <ele>130.8</ele>
        <time>2022-10-15T06:37:52Z</time>
      </trkpt>
      <trkpt lat="44.6189" lon="0.62585">
        <ele>131.6</ele>
        <time>2022-10-15T06:37:58Z</time>
      </trkpt>
      <trkpt lat="44.61883" lon="0.62608">
        <ele>132.2</ele>
        <time>2022-10-15T06:38:03Z</time>
      </trkpt>
      <trkpt lat="44.61875" lon="0.62638">
        <ele>132.8</ele>
        <time>2022-10-15T06:38:09Z</time>
      </trkpt>
      <trkpt lat="44.61871" lon="0.62664">
        <ele>133.3</ele>
        <time>2022-10-15T06:38:14Z</time>
      </trkpt>
      <trkpt lat="44.61861" lon="0.62688">
        <ele>133.8</ele>
        <time>2022-10-15T06:38:19Z</time>
      </trkpt>
      <trkpt lat="44.61859" lon="0.62693">
        <ele>133.9</ele>
        <time>2022-10-15T06:38:20Z</time>
      </trkpt>
      <trkpt lat="44.61848" lon="0.62709">
        <ele>134.2</ele>
        <time>2022-10-15T06:38:24Z</time>
      </trkpt>
      <trkpt lat="44.61831" lon="0.62728">
        <ele>134.8</ele>
        <time>2022-10-15T06:38:29Z</time>
      </trkpt>
      <trkpt lat="44.61814" lon="0.62747">
        <ele>135.6</ele>
        <time>2022-10-15T06:38:35Z</time>
      </trkpt>
      <trkpt lat="44.61796" lon="0.62771">
        <ele>136.5</ele>
        <time>2022-10-15T06:38:41Z</time>
      </trkpt>
      <trkpt lat="44.61782" lon="0.62788">
        <ele>137</ele>
        <time>2022-10-15T06:38:46Z</time>
      </trkpt>
      <trkpt lat="44.61764" lon="0.62805">
        <ele>137.8</ele>
        <time>2022-10-15T06:38:52Z</time>
      </trkpt>
      <trkpt lat="44.61749" lon="0.62819">
        <ele>138.4</ele>
        <time>2022-10-15T06:38:57Z</time>
      </trkpt>
      <trkpt lat="44.6173" lon="0.62836">
        <ele>139.2</ele>
        <time>2022-10-15T06:39:03Z</time>
      </trkpt>
      <trkpt lat="44.61714" lon="0.62857">
        <ele>139.9</ele>
        <time>2022-10-15T06:39:09Z</time>
      </trkpt>
      <trkpt lat="44.61698" lon="0.62881">
        <ele>140.7</ele>
        <time>2022-10-15T06:39:15Z</time>
      </trkpt>
      <trkpt lat="44.61683" lon="0.62904">
        <ele>141.6</ele>
        <time>2022-10-15T06:39:21Z</time>
      </trkpt>
      <trkpt lat="44.61669" lon="0.62932">
        <ele>142.3</ele>
        <time>2022-10-15T06:39:28Z</time>
      </trkpt>
      <trkpt lat="44.61656" lon="0.62962">
        <ele>142.7</ele>
        <time>2022-10-15T06:39:35Z</time>
      </trkpt>
      <trkpt lat="44.61643" lon="0.62997">
        <ele>143.5</ele>
        <time>2022-10-15T06:39:42Z</time>
      </trkpt>
      <trkpt lat="44.61637" lon="0.63022">
        <ele>144.1</ele>
        <time>2022-10-15T06:39:47Z</time>
      </trkpt>
      <trkpt lat="44.61636" lon="0.63026">
        <ele>144.2</ele>
        <time>2022-10-15T06:39:48Z</time>
      </trkpt>
      <trkpt lat="44.61623" lon="0.63055">
        <ele>144.6</ele>
        <time>2022-10-15T06:39:54Z</time>
      </trkpt>
      <trkpt lat="44.6161" lon="0.63081">
        <ele>144.9</ele>
        <time>2022-10-15T06:39:59Z</time>
      </trkpt>
      <trkpt lat="44.61602" lon="0.63106">
        <ele>144.9</ele>
        <time>2022-10-15T06:40:04Z</time>
      </trkpt>
      <trkpt lat="44.61591" lon="0.63145">
        <ele>144.8</ele>
        <time>2022-10-15T06:40:11Z</time>
      </trkpt>
      <trkpt lat="44.61581" lon="0.6318">
        <ele>144.8</ele>
        <time>2022-10-15T06:40:17Z</time>
      </trkpt>
      <trkpt lat="44.61567" lon="0.63221">
        <ele>145</ele>
        <time>2022-10-15T06:40:24Z</time>
      </trkpt>
      <trkpt lat="44.61555" lon="0.63244">
        <ele>144.9</ele>
        <time>2022-10-15T06:40:29Z</time>
      </trkpt>
      <trkpt lat="44.61539" lon="0.63268">
        <ele>144.4</ele>
        <time>2022-10-15T06:40:35Z</time>
      </trkpt>
      <trkpt lat="44.6153" lon="0.63291">
        <ele>143.8</ele>
        <time>2022-10-15T06:40:40Z</time>
      </trkpt>
      <trkpt lat="44.61525" lon="0.63303">
        <ele>143.4</ele>
        <time>2022-10-15T06:40:42Z</time>
      </trkpt>
      <trkpt lat="44.61517" lon="0.63314">
        <ele>142.9</ele>
        <time>2022-10-15T06:40:44Z</time>
      </trkpt>
      <trkpt lat="44.61514" lon="0.63324">
        <ele>142.1</ele>
        <time>2022-10-15T06:40:46Z</time>
      </trkpt>
      <trkpt lat="44.61516" lon="0.63328">
        <ele>141.8</ele>
        <time>2022-10-15T06:40:47Z</time>
      </trkpt>
      <trkpt lat="44.6152" lon="0.63331">
        <ele>141.5</ele>
        <time>2022-10-15T06:40:48Z</time>
      </trkpt>
      <trkpt lat="44.6153" lon="0.63334">
        <ele>140.5</ele>
        <time>2022-10-15T06:40:50Z</time>
      </trkpt>
      <trkpt lat="44.61542" lon="0.6333">
        <ele>139.2</ele>
        <time>2022-10-15T06:40:52Z</time>
      </trkpt>
      <trkpt lat="44.61549" lon="0.63326">
        <ele>138.5</ele>
        <time>2022-10-15T06:40:53Z</time>
      </trkpt>
      <trkpt lat="44.61585" lon="0.63301">
        <ele>133.7</ele>
        <time>2022-10-15T06:40:58Z</time>
      </trkpt>
      <trkpt lat="44.61618" lon="0.63273">
        <ele>129.3</ele>
        <time>2022-10-15T06:41:03Z</time>
      </trkpt>
      <trkpt lat="44.61648" lon="0.63253">
        <ele>123.8</ele>
        <time>2022-10-15T06:41:07Z</time>
      </trkpt>
      <trkpt lat="44.61663" lon="0.63249">
        <ele>120.9</ele>
        <time>2022-10-15T06:41:09Z</time>
      </trkpt>
      <trkpt lat="44.6167" lon="0.63249">
        <ele>119.5</ele>
        <time>2022-10-15T06:41:10Z</time>
      </trkpt>
      <trkpt lat="44.61706" lon="0.63257">
        <ele>113.3</ele>
        <time>2022-10-15T06:41:14Z</time>
      </trkpt>
      <trkpt lat="44.6176" lon="0.63272">
        <ele>107.1</ele>
        <time>2022-10-15T06:41:20Z</time>
      </trkpt>
      <trkpt lat="44.61768" lon="0.63274">
        <ele>106.4</ele>
        <time>2022-10-15T06:41:21Z</time>
      </trkpt>
      <trkpt lat="44.61814" lon="0.63286">
        <ele>102.9</ele>
        <time>2022-10-15T06:41:27Z</time>
      </trkpt>
      <trkpt lat="44.61827" lon="0.63287">
        <ele>102.1</ele>
        <time>2022-10-15T06:41:29Z</time>
      </trkpt>
      <trkpt lat="44.61838" lon="0.63282">
        <ele>101.5</ele>
        <time>2022-10-15T06:41:31Z</time>
      </trkpt>
      <trkpt lat="44.61848" lon="0.63278">
        <ele>101.2</ele>
        <time>2022-10-15T06:41:33Z</time>
      </trkpt>
      <trkpt lat="44.61852" lon="0.63278">
        <ele>101.3</ele>
        <time>2022-10-15T06:41:34Z</time>
      </trkpt>
      <trkpt lat="44.61861" lon="0.63279">
        <ele>101.2</ele>
        <time>2022-10-15T06:41:36Z</time>
      </trkpt>
      <trkpt lat="44.61863" lon="0.63282">
        <ele>100.8</ele>
        <time>2022-10-15T06:41:37Z</time>
      </trkpt>
      <trkpt lat="44.61863" lon="0.63299">
        <ele>100.3</ele>
        <time>2022-10-15T06:41:40Z</time>
      </trkpt>
      <trkpt lat="44.61855" lon="0.63339">
        <ele>98.8</ele>
        <time>2022-10-15T06:41:45Z</time>
      </trkpt>
      <trkpt lat="44.61843" lon="0.63399">
        <ele>96.6</ele>
        <time>2022-10-15T06:41:51Z</time>
      </trkpt>
      <trkpt lat="44.61823" lon="0.63477">
        <ele>94.8</ele>
        <time>2022-10-15T06:41:58Z</time>
      </trkpt>
      <trkpt lat="44.61802" lon="0.63533">
        <ele>94.9</ele>
        <time>2022-10-15T06:42:04Z</time>
      </trkpt>
      <trkpt lat="44.61784" lon="0.63582">
        <ele>94.9</ele>
        <time>2022-10-15T06:42:10Z</time>
      </trkpt>
      <trkpt lat="44.61757" lon="0.63654">
        <ele>95.2</ele>
        <time>2022-10-15T06:42:20Z</time>
      </trkpt>
      <trkpt lat="44.61733" lon="0.63716">
        <ele>95.5</ele>
        <time>2022-10-15T06:42:29Z</time>
      </trkpt>
      <trkpt lat="44.61717" lon="0.6376">
        <ele>96</ele>
        <time>2022-10-15T06:42:36Z</time>
      </trkpt>
      <trkpt lat="44.61695" lon="0.6381">
        <ele>96.3</ele>
        <time>2022-10-15T06:42:44Z</time>
      </trkpt>
      <trkpt lat="44.6167" lon="0.6386">
        <ele>97.3</ele>
        <time>2022-10-15T06:42:53Z</time>
      </trkpt>
      <trkpt lat="44.61653" lon="0.63888">
        <ele>98.4</ele>
        <time>2022-10-15T06:42:59Z</time>
      </trkpt>
      <trkpt lat="44.61635" lon="0.63931">
        <ele>99.3</ele>
        <time>2022-10-15T06:43:07Z</time>
      </trkpt>
      <trkpt lat="44.61622" lon="0.63978">
        <ele>99.9</ele>
        <time>2022-10-15T06:43:15Z</time>
      </trkpt>
      <trkpt lat="44.61609" lon="0.64034">
        <ele>100</ele>
        <time>2022-10-15T06:43:24Z</time>
      </trkpt>
      <trkpt lat="44.61593" lon="0.64092">
        <ele>99.2</ele>
        <time>2022-10-15T06:43:33Z</time>
      </trkpt>
      <trkpt lat="44.61577" lon="0.64144">
        <ele>98.9</ele>
        <time>2022-10-15T06:43:41Z</time>
      </trkpt>
      <trkpt lat="44.61563" lon="0.64198">
        <ele>98.7</ele>
        <time>2022-10-15T06:43:49Z</time>
      </trkpt>
      <trkpt lat="44.61546" lon="0.64258">
        <ele>99</ele>
        <time>2022-10-15T06:43:58Z</time>
      </trkpt>
      <trkpt lat="44.61529" lon="0.64307">
        <ele>99.4</ele>
        <time>2022-10-15T06:44:06Z</time>
      </trkpt>
      <trkpt lat="44.61509" lon="0.64339">
        <ele>100.1</ele>
        <time>2022-10-15T06:44:13Z</time>
      </trkpt>
      <trkpt lat="44.61486" lon="0.64369">
        <ele>100</ele>
        <time>2022-10-15T06:44:20Z</time>
      </trkpt>
      <trkpt lat="44.61474" lon="0.64386">
        <ele>99.8</ele>
        <time>2022-10-15T06:44:24Z</time>
      </trkpt>
      <trkpt lat="44.61464" lon="0.64405">
        <ele>99.5</ele>
        <time>2022-10-15T06:44:28Z</time>
      </trkpt>
      <trkpt lat="44.61455" lon="0.64411">
        <ele>99.1</ele>
        <time>2022-10-15T06:44:31Z</time>
      </trkpt>
      <trkpt lat="44.61449" lon="0.64402">
        <ele>101.1</ele>
        <time>2022-10-15T06:44:35Z</time>
      </trkpt>
      <trkpt lat="44.61437" lon="0.6439">
        <ele>103</ele>
        <time>2022-10-15T06:44:40Z</time>
      </trkpt>
      <trkpt lat="44.61426" lon="0.64375">
        <ele>105.6</ele>
        <time>2022-10-15T06:44:45Z</time>
      </trkpt>
      <trkpt lat="44.61415" lon="0.64362">
        <ele>108</ele>
        <time>2022-10-15T06:44:50Z</time>
      </trkpt>
      <trkpt lat="44.61403" lon="0.64349">
        <ele>110.6</ele>
        <time>2022-10-15T06:44:56Z</time>
      </trkpt>
      <trkpt lat="44.61392" lon="0.64339">
        <ele>113.1</ele>
        <time>2022-10-15T06:45:02Z</time>
      </trkpt>
      <trkpt lat="44.61383" lon="0.64329">
        <ele>114.4</ele>
        <time>2022-10-15T06:45:09Z</time>
      </trkpt>
      <trkpt lat="44.61378" lon="0.64323">
        <ele>117</ele>
        <time>2022-10-15T06:45:14Z</time>
      </trkpt>
      <trkpt lat="44.61373" lon="0.64318">
        <ele>118.3</ele>
        <time>2022-10-15T06:45:21Z</time>
      </trkpt>
      <trkpt lat="44.6137" lon="0.64321">
        <ele>118.4</ele>
        <time>2022-10-15T06:45:24Z</time>
      </trkpt>
      <trkpt lat="44.61365" lon="0.64327">
        <ele>119.6</ele>
        <time>2022-10-15T06:45:28Z</time>
      </trkpt>
      <trkpt lat="44.61357" lon="0.64333">
        <ele>119.7</ele>
        <time>2022-10-15T06:45:34Z</time>
      </trkpt>
      <trkpt lat="44.61352" lon="0.64337">
        <ele>122.2</ele>
        <time>2022-10-15T06:45:38Z</time>
      </trkpt>
      <trkpt lat="44.6135" lon="0.64336">
        <ele>122.3</ele>
        <time>2022-10-15T06:45:40Z</time>
      </trkpt>
      <trkpt lat="44.61349" lon="0.64335">
        <ele>122.4</ele>
        <time>2022-10-15T06:45:41Z</time>
      </trkpt>
      <trkpt lat="44.61348" lon="0.64332">
        <ele>122.5</ele>
        <time>2022-10-15T06:45:43Z</time>
      </trkpt>
      <trkpt lat="44.61347" lon="0.64329">
        <ele>122.6</ele>
        <time>2022-10-15T06:45:45Z</time>
      </trkpt>
      <trkpt lat="44.61343" lon="0.64319">
        <ele>126.6</ele>
        <time>2022-10-15T06:45:52Z</time>
      </trkpt>
      <trkpt lat="44.61342" lon="0.64308">
        <ele>126.8</ele>
        <time>2022-10-15T06:45:58Z</time>
      </trkpt>
      <trkpt lat="44.6134" lon="0.64294">
        <ele>128.7</ele>
        <time>2022-10-15T06:46:06Z</time>
      </trkpt>
      <trkpt lat="44.6134" lon="0.64283">
        <ele>130</ele>
        <time>2022-10-15T06:46:12Z</time>
      </trkpt>
      <trkpt lat="44.61341" lon="0.64269">
        <ele>131</ele>
        <time>2022-10-15T06:46:19Z</time>
      </trkpt>
      <trkpt lat="44.61337" lon="0.64257">
        <ele>131.1</ele>
        <time>2022-10-15T06:46:26Z</time>
      </trkpt>
      <trkpt lat="44.61335" lon="0.64254">
        <ele>131.2</ele>
        <time>2022-10-15T06:46:29Z</time>
      </trkpt>
      <trkpt lat="44.61333" lon="0.64253">
        <ele>131.3</ele>
        <time>2022-10-15T06:46:31Z</time>
      </trkpt>
      <trkpt lat="44.61327" lon="0.64258">
        <ele>134.3</ele>
        <time>2022-10-15T06:46:38Z</time>
      </trkpt>
      <trkpt lat="44.61324" lon="0.64259">
        <ele>134.5</ele>
        <time>2022-10-15T06:46:41Z</time>
      </trkpt>
      <trkpt lat="44.6132" lon="0.64263">
        <ele>134.6</ele>
        <time>2022-10-15T06:46:44Z</time>
      </trkpt>
      <trkpt lat="44.61319" lon="0.64265">
        <ele>137.1</ele>
        <time>2022-10-15T06:46:45Z</time>
      </trkpt>
      <trkpt lat="44.61313" lon="0.64266">
        <ele>137.2</ele>
        <time>2022-10-15T06:46:50Z</time>
      </trkpt>
      <trkpt lat="44.61312" lon="0.64265">
        <ele>137.3</ele>
        <time>2022-10-15T06:46:51Z</time>
      </trkpt>
      <trkpt lat="44.6131" lon="0.64259">
        <ele>137.5</ele>
        <time>2022-10-15T06:46:55Z</time>
      </trkpt>
      <trkpt lat="44.61307" lon="0.6425">
        <ele>141.1</ele>
        <time>2022-10-15T06:47:01Z</time>
      </trkpt>
      <trkpt lat="44.61306" lon="0.64242">
        <ele>141.2</ele>
        <time>2022-10-15T06:47:07Z</time>
      </trkpt>
      <trkpt lat="44.61303" lon="0.64231">
        <ele>141.9</ele>
        <time>2022-10-15T06:47:13Z</time>
      </trkpt>
      <trkpt lat="44.61302" lon="0.64226">
        <ele>142</ele>
        <time>2022-10-15T06:47:16Z</time>
      </trkpt>
      <trkpt lat="44.61299" lon="0.64222">
        <ele>142.1</ele>
        <time>2022-10-15T06:47:19Z</time>
      </trkpt>
      <trkpt lat="44.61296" lon="0.6422">
        <ele>142.2</ele>
        <time>2022-10-15T06:47:25Z</time>
      </trkpt>
      <trkpt lat="44.61296" lon="0.6422">
        <ele>142.3</ele>
        <time>2022-10-15T06:47:26Z</time>
      </trkpt>
      <trkpt lat="44.61265" lon="0.6425">
        <ele>148</ele>
        <time>2022-10-15T06:47:57Z</time>
      </trkpt>
      <trkpt lat="44.61258" lon="0.64252">
        <ele>148</ele>
        <time>2022-10-15T06:48:01Z</time>
      </trkpt>
      <trkpt lat="44.61248" lon="0.64257">
        <ele>147.9</ele>
        <time>2022-10-15T06:48:08Z</time>
      </trkpt>
      <trkpt lat="44.61237" lon="0.64261">
        <ele>148.1</ele>
        <time>2022-10-15T06:48:15Z</time>
      </trkpt>
      <trkpt lat="44.61222" lon="0.64271">
        <ele>148.5</ele>
        <time>2022-10-15T06:48:22Z</time>
      </trkpt>
      <trkpt lat="44.6121" lon="0.6429">
        <ele>148.9</ele>
        <time>2022-10-15T06:48:29Z</time>
      </trkpt>
      <trkpt lat="44.61202" lon="0.64301">
        <ele>149.1</ele>
        <time>2022-10-15T06:48:33Z</time>
      </trkpt>
      <trkpt lat="44.61189" lon="0.64312">
        <ele>149.4</ele>
        <time>2022-10-15T06:48:38Z</time>
      </trkpt>
      <trkpt lat="44.61173" lon="0.64329">
        <ele>149.7</ele>
        <time>2022-10-15T06:48:44Z</time>
      </trkpt>
      <trkpt lat="44.61154" lon="0.64342">
        <ele>150</ele>
        <time>2022-10-15T06:48:51Z</time>
      </trkpt>
      <trkpt lat="44.61141" lon="0.64347">
        <ele>150.2</ele>
        <time>2022-10-15T06:48:56Z</time>
      </trkpt>
      <trkpt lat="44.61126" lon="0.64346">
        <ele>150.3</ele>
        <time>2022-10-15T06:49:00Z</time>
      </trkpt>
      <trkpt lat="44.61101" lon="0.64336">
        <ele>150.4</ele>
        <time>2022-10-15T06:49:06Z</time>
      </trkpt>
      <trkpt lat="44.61092" lon="0.64331">
        <ele>150.4</ele>
        <time>2022-10-15T06:49:08Z</time>
      </trkpt>
      <trkpt lat="44.61076" lon="0.64321">
        <ele>150.5</ele>
        <time>2022-10-15T06:49:12Z</time>
      </trkpt>
      <trkpt lat="44.61056" lon="0.64309">
        <ele>150.6</ele>
        <time>2022-10-15T06:49:17Z</time>
      </trkpt>
      <trkpt lat="44.61026" lon="0.643">
        <ele>151</ele>
        <time>2022-10-15T06:49:24Z</time>
      </trkpt>
      <trkpt lat="44.61003" lon="0.64303">
        <ele>151.5</ele>
        <time>2022-10-15T06:49:29Z</time>
      </trkpt>
      <trkpt lat="44.60977" lon="0.64312">
        <ele>152.2</ele>
        <time>2022-10-15T06:49:35Z</time>
      </trkpt>
      <trkpt lat="44.60953" lon="0.64321">
        <ele>153.1</ele>
        <time>2022-10-15T06:49:41Z</time>
      </trkpt>
      <trkpt lat="44.60931" lon="0.64337">
        <ele>153.6</ele>
        <time>2022-10-15T06:49:47Z</time>
      </trkpt>
      <trkpt lat="44.60906" lon="0.64356">
        <ele>153.7</ele>
        <time>2022-10-15T06:49:54Z</time>
      </trkpt>
      <trkpt lat="44.60903" lon="0.64359">
        <ele>153.7</ele>
        <time>2022-10-15T06:49:55Z</time>
      </trkpt>
      <trkpt lat="44.60889" lon="0.64368">
        <ele>153.5</ele>
        <time>2022-10-15T06:49:59Z</time>
      </trkpt>
      <trkpt lat="44.60878" lon="0.64375">
        <ele>153.3</ele>
        <time>2022-10-15T06:50:02Z</time>
      </trkpt>
      <trkpt lat="44.60871" lon="0.64381">
        <ele>153.1</ele>
        <time>2022-10-15T06:50:04Z</time>
      </trkpt>
      <trkpt lat="44.60854" lon="0.64391">
        <ele>152.7</ele>
        <time>2022-10-15T06:50:08Z</time>
      </trkpt>
      <trkpt lat="44.60845" lon="0.64396">
        <ele>152.5</ele>
        <time>2022-10-15T06:50:10Z</time>
      </trkpt>
      <trkpt lat="44.60814" lon="0.64413">
        <ele>151.8</ele>
        <time>2022-10-15T06:50:16Z</time>
      </trkpt>
      <trkpt lat="44.60803" lon="0.64418">
        <ele>151.5</ele>
        <time>2022-10-15T06:50:18Z</time>
      </trkpt>
      <trkpt lat="44.60792" lon="0.64421">
        <ele>151.3</ele>
        <time>2022-10-15T06:50:20Z</time>
      </trkpt>
      <trkpt lat="44.60786" lon="0.64421">
        <ele>151.2</ele>
        <time>2022-10-15T06:50:21Z</time>
      </trkpt>
      <trkpt lat="44.60775" lon="0.6442">
        <ele>151.1</ele>
        <time>2022-10-15T06:50:23Z</time>
      </trkpt>
      <trkpt lat="44.60764" lon="0.64416">
        <ele>151</ele>
        <time>2022-10-15T06:50:25Z</time>
      </trkpt>
      <trkpt lat="44.60738" lon="0.6441">
        <ele>150.8</ele>
        <time>2022-10-15T06:50:30Z</time>
      </trkpt>
      <trkpt lat="44.60718" lon="0.64414">
        <ele>150.6</ele>
        <time>2022-10-15T06:50:34Z</time>
      </trkpt>
      <trkpt lat="44.60712" lon="0.64417">
        <ele>150.5</ele>
        <time>2022-10-15T06:50:35Z</time>
      </trkpt>
      <trkpt lat="44.60675" lon="0.64441">
        <ele>150.4</ele>
        <time>2022-10-15T06:50:42Z</time>
      </trkpt>
      <trkpt lat="44.60654" lon="0.64451">
        <ele>150.6</ele>
        <time>2022-10-15T06:50:46Z</time>
      </trkpt>
      <trkpt lat="44.60644" lon="0.64454">
        <ele>150.7</ele>
        <time>2022-10-15T06:50:48Z</time>
      </trkpt>
      <trkpt lat="44.60617" lon="0.64471">
        <ele>150.6</ele>
        <time>2022-10-15T06:50:54Z</time>
      </trkpt>
      <trkpt lat="44.60585" lon="0.64492">
        <ele>150.1</ele>
        <time>2022-10-15T06:51:00Z</time>
      </trkpt>
      <trkpt lat="44.60549" lon="0.6452">
        <ele>150.1</ele>
        <time>2022-10-15T06:51:07Z</time>
      </trkpt>
      <trkpt lat="44.60524" lon="0.64543">
        <ele>150.2</ele>
        <time>2022-10-15T06:51:13Z</time>
      </trkpt>
      <trkpt lat="44.60502" lon="0.64562">
        <ele>150.2</ele>
        <time>2022-10-15T06:51:18Z</time>
      </trkpt>
      <trkpt lat="44.60498" lon="0.64566">
        <ele>150.2</ele>
        <time>2022-10-15T06:51:19Z</time>
      </trkpt>
      <trkpt lat="44.60495" lon="0.64569">
        <ele>150.2</ele>
        <time>2022-10-15T06:51:20Z</time>
      </trkpt>
      <trkpt lat="44.60481" lon="0.64579">
        <ele>150</ele>
        <time>2022-10-15T06:51:24Z</time>
      </trkpt>
      <trkpt lat="44.60476" lon="0.64582">
        <ele>149.9</ele>
        <time>2022-10-15T06:51:25Z</time>
      </trkpt>
      <trkpt lat="44.60456" lon="0.64591">
        <ele>149.6</ele>
        <time>2022-10-15T06:51:29Z</time>
      </trkpt>
      <trkpt lat="44.60435" lon="0.64595">
        <ele>149.4</ele>
        <time>2022-10-15T06:51:33Z</time>
      </trkpt>
      <trkpt lat="44.60426" lon="0.64595">
        <ele>149.4</ele>
        <time>2022-10-15T06:51:35Z</time>
      </trkpt>
      <trkpt lat="44.60421" lon="0.64595">
        <ele>149.4</ele>
        <time>2022-10-15T06:51:36Z</time>
      </trkpt>
      <trkpt lat="44.60412" lon="0.64596">
        <ele>149.4</ele>
        <time>2022-10-15T06:51:38Z</time>
      </trkpt>
      <trkpt lat="44.60401" lon="0.64597">
        <ele>149.4</ele>
        <time>2022-10-15T06:51:40Z</time>
      </trkpt>
      <trkpt lat="44.60386" lon="0.64598">
        <ele>149.3</ele>
        <time>2022-10-15T06:51:43Z</time>
      </trkpt>
      <trkpt lat="44.60377" lon="0.64597">
        <ele>149.3</ele>
        <time>2022-10-15T06:51:45Z</time>
      </trkpt>
      <trkpt lat="44.60367" lon="0.64597">
        <ele>149.4</ele>
        <time>2022-10-15T06:51:47Z</time>
      </trkpt>
      <trkpt lat="44.60357" lon="0.64597">
        <ele>149.4</ele>
        <time>2022-10-15T06:51:49Z</time>
      </trkpt>
      <trkpt lat="44.60352" lon="0.64597">
        <ele>149.5</ele>
        <time>2022-10-15T06:51:50Z</time>
      </trkpt>
      <trkpt lat="44.60328" lon="0.64597">
        <ele>149.6</ele>
        <time>2022-10-15T06:51:55Z</time>
      </trkpt>
      <trkpt lat="44.60318" lon="0.64599">
        <ele>149.5</ele>
        <time>2022-10-15T06:51:57Z</time>
      </trkpt>
      <trkpt lat="44.60292" lon="0.64603">
        <ele>149.2</ele>
        <time>2022-10-15T06:52:02Z</time>
      </trkpt>
      <trkpt lat="44.60253" lon="0.6461">
        <ele>148.1</ele>
        <time>2022-10-15T06:52:09Z</time>
      </trkpt>
      <trkpt lat="44.60213" lon="0.6462">
        <ele>147.8</ele>
        <time>2022-10-15T06:52:16Z</time>
      </trkpt>
      <trkpt lat="44.60178" lon="0.6463">
        <ele>148.1</ele>
        <time>2022-10-15T06:52:23Z</time>
      </trkpt>
      <trkpt lat="44.60159" lon="0.64636">
        <ele>148.5</ele>
        <time>2022-10-15T06:52:27Z</time>
      </trkpt>
      <trkpt lat="44.60154" lon="0.64638">
        <ele>148.6</ele>
        <time>2022-10-15T06:52:28Z</time>
      </trkpt>
      <trkpt lat="44.60137" lon="0.64645">
        <ele>148.8</ele>
        <time>2022-10-15T06:52:32Z</time>
      </trkpt>
      <trkpt lat="44.60123" lon="0.64653">
        <ele>148.7</ele>
        <time>2022-10-15T06:52:36Z</time>
      </trkpt>
      <trkpt lat="44.60113" lon="0.64653">
        <ele>148.5</ele>
        <time>2022-10-15T06:52:38Z</time>
      </trkpt>
      <trkpt lat="44.60105" lon="0.64649">
        <ele>148.4</ele>
        <time>2022-10-15T06:52:40Z</time>
      </trkpt>
      <trkpt lat="44.60097" lon="0.64651">
        <ele>148.3</ele>
        <time>2022-10-15T06:52:42Z</time>
      </trkpt>
      <trkpt lat="44.60094" lon="0.64655">
        <ele>148.4</ele>
        <time>2022-10-15T06:52:43Z</time>
      </trkpt>
      <trkpt lat="44.60078" lon="0.64677">
        <ele>148.9</ele>
        <time>2022-10-15T06:52:48Z</time>
      </trkpt>
      <trkpt lat="44.60075" lon="0.64681">
        <ele>149</ele>
        <time>2022-10-15T06:52:49Z</time>
      </trkpt>
      <trkpt lat="44.60048" lon="0.64708">
        <ele>150.1</ele>
        <time>2022-10-15T06:52:57Z</time>
      </trkpt>
      <trkpt lat="44.60028" lon="0.64725">
        <ele>151.1</ele>
        <time>2022-10-15T06:53:03Z</time>
      </trkpt>
      <trkpt lat="44.60024" lon="0.64727">
        <ele>151.3</ele>
        <time>2022-10-15T06:53:04Z</time>
      </trkpt>
      <trkpt lat="44.6001" lon="0.64741">
        <ele>152</ele>
        <time>2022-10-15T06:53:09Z</time>
      </trkpt>
      <trkpt lat="44.59989" lon="0.64756">
        <ele>153</ele>
        <time>2022-10-15T06:53:15Z</time>
      </trkpt>
      <trkpt lat="44.59974" lon="0.64767">
        <ele>153.8</ele>
        <time>2022-10-15T06:53:19Z</time>
      </trkpt>
      <trkpt lat="44.59959" lon="0.64774">
        <ele>154.6</ele>
        <time>2022-10-15T06:53:23Z</time>
      </trkpt>
      <trkpt lat="44.59929" lon="0.64779">
        <ele>156.1</ele>
        <time>2022-10-15T06:53:31Z</time>
      </trkpt>
      <trkpt lat="44.59905" lon="0.64779">
        <ele>157.3</ele>
        <time>2022-10-15T06:53:38Z</time>
      </trkpt>
      <trkpt lat="44.59879" lon="0.64779">
        <ele>158.6</ele>
        <time>2022-10-15T06:53:45Z</time>
      </trkpt>
      <trkpt lat="44.59848" lon="0.64778">
        <ele>160</ele>
        <time>2022-10-15T06:53:53Z</time>
      </trkpt>
      <trkpt lat="44.59825" lon="0.64776">
        <ele>161.2</ele>
        <time>2022-10-15T06:54:00Z</time>
      </trkpt>
      <trkpt lat="44.59805" lon="0.64779">
        <ele>162.1</ele>
        <time>2022-10-15T06:54:06Z</time>
      </trkpt>
      <trkpt lat="44.59783" lon="0.64785">
        <ele>163.1</ele>
        <time>2022-10-15T06:54:13Z</time>
      </trkpt>
      <trkpt lat="44.59758" lon="0.64797">
        <ele>164.4</ele>
        <time>2022-10-15T06:54:21Z</time>
      </trkpt>
      <trkpt lat="44.59737" lon="0.64811">
        <ele>165.5</ele>
        <time>2022-10-15T06:54:28Z</time>
      </trkpt>
      <trkpt lat="44.59709" lon="0.64832">
        <ele>166.5</ele>
        <time>2022-10-15T06:54:37Z</time>
      </trkpt>
      <trkpt lat="44.59685" lon="0.6485">
        <ele>167</ele>
        <time>2022-10-15T06:54:45Z</time>
      </trkpt>
      <trkpt lat="44.59654" lon="0.64878">
        <ele>167.6</ele>
        <time>2022-10-15T06:54:55Z</time>
      </trkpt>
      <trkpt lat="44.59626" lon="0.64904">
        <ele>168.2</ele>
        <time>2022-10-15T06:55:04Z</time>
      </trkpt>
      <trkpt lat="44.59625" lon="0.64908">
        <ele>168.2</ele>
        <time>2022-10-15T06:55:05Z</time>
      </trkpt>
      <trkpt lat="44.59623" lon="0.64919">
        <ele>168.4</ele>
        <time>2022-10-15T06:55:07Z</time>
      </trkpt>
      <trkpt lat="44.59622" lon="0.64924">
        <ele>168.4</ele>
        <time>2022-10-15T06:55:08Z</time>
      </trkpt>
      <trkpt lat="44.59614" lon="0.64943">
        <ele>168.8</ele>
        <time>2022-10-15T06:55:12Z</time>
      </trkpt>
      <trkpt lat="44.59611" lon="0.64948">
        <ele>168.9</ele>
        <time>2022-10-15T06:55:13Z</time>
      </trkpt>
      <trkpt lat="44.59605" lon="0.64963">
        <ele>169.1</ele>
        <time>2022-10-15T06:55:16Z</time>
      </trkpt>
      <trkpt lat="44.59593" lon="0.64993">
        <ele>171.6</ele>
        <time>2022-10-15T06:55:22Z</time>
      </trkpt>
      <trkpt lat="44.59589" lon="0.65005">
        <ele>171.6</ele>
        <time>2022-10-15T06:55:25Z</time>
      </trkpt>
      <trkpt lat="44.59586" lon="0.65014">
        <ele>172</ele>
        <time>2022-10-15T06:55:27Z</time>
      </trkpt>
      <trkpt lat="44.59577" lon="0.65037">
        <ele>174.2</ele>
        <time>2022-10-15T06:55:32Z</time>
      </trkpt>
      <trkpt lat="44.59572" lon="0.65053">
        <ele>175.8</ele>
        <time>2022-10-15T06:55:36Z</time>
      </trkpt>
      <trkpt lat="44.59564" lon="0.65076">
        <ele>176.2</ele>
        <time>2022-10-15T06:55:41Z</time>
      </trkpt>
      <trkpt lat="44.59558" lon="0.65092">
        <ele>177.7</ele>
        <time>2022-10-15T06:55:45Z</time>
      </trkpt>
      <trkpt lat="44.59552" lon="0.65114">
        <ele>177.6</ele>
        <time>2022-10-15T06:55:50Z</time>
      </trkpt>
      <trkpt lat="44.59548" lon="0.65128">
        <ele>179.1</ele>
        <time>2022-10-15T06:55:54Z</time>
      </trkpt>
      <trkpt lat="44.59543" lon="0.65151">
        <ele>179.2</ele>
        <time>2022-10-15T06:56:00Z</time>
      </trkpt>
      <trkpt lat="44.59537" lon="0.65175">
        <ele>178.9</ele>
        <time>2022-10-15T06:56:06Z</time>
      </trkpt>
      <trkpt lat="44.59529" lon="0.65196">
        <ele>180.1</ele>
        <time>2022-10-15T06:56:11Z</time>
      </trkpt>
      <trkpt lat="44.59519" lon="0.65218">
        <ele>180.9</ele>
        <time>2022-10-15T06:56:17Z</time>
      </trkpt>
      <trkpt lat="44.59508" lon="0.65242">
        <ele>181.7</ele>
        <time>2022-10-15T06:56:23Z</time>
      </trkpt>
      <trkpt lat="44.59499" lon="0.65256">
        <ele>181.3</ele>
        <time>2022-10-15T06:56:27Z</time>
      </trkpt>
      <trkpt lat="44.59486" lon="0.65271">
        <ele>181.9</ele>
        <time>2022-10-15T06:56:31Z</time>
      </trkpt>
      <trkpt lat="44.59483" lon="0.65274">
        <ele>182</ele>
        <time>2022-10-15T06:56:32Z</time>
      </trkpt>
      <trkpt lat="44.59469" lon="0.65285">
        <ele>181.3</ele>
        <time>2022-10-15T06:56:35Z</time>
      </trkpt>
      <trkpt lat="44.59434" lon="0.65318">
        <ele>178.7</ele>
        <time>2022-10-15T06:56:42Z</time>
      </trkpt>
      <trkpt lat="44.59423" lon="0.65328">
        <ele>178</ele>
        <time>2022-10-15T06:56:44Z</time>
      </trkpt>
      <trkpt lat="44.59418" lon="0.65337">
        <ele>177.1</ele>
        <time>2022-10-15T06:56:46Z</time>
      </trkpt>
      <trkpt lat="44.59416" lon="0.65354">
        <ele>176.2</ele>
        <time>2022-10-15T06:56:49Z</time>
      </trkpt>
      <trkpt lat="44.59416" lon="0.65361">
        <ele>176.2</ele>
        <time>2022-10-15T06:56:50Z</time>
      </trkpt>
      <trkpt lat="44.59414" lon="0.65376">
        <ele>175.4</ele>
        <time>2022-10-15T06:56:52Z</time>
      </trkpt>
      <trkpt lat="44.59417" lon="0.65388">
        <ele>174.8</ele>
        <time>2022-10-15T06:56:54Z</time>
      </trkpt>
      <trkpt lat="44.5942" lon="0.65392">
        <ele>174.8</ele>
        <time>2022-10-15T06:56:55Z</time>
      </trkpt>
      <trkpt lat="44.59428" lon="0.65398">
        <ele>175.7</ele>
        <time>2022-10-15T06:56:57Z</time>
      </trkpt>
      <trkpt lat="44.59432" lon="0.65403">
        <ele>175.7</ele>
        <time>2022-10-15T06:56:58Z</time>
      </trkpt>
      <trkpt lat="44.59439" lon="0.65413">
        <ele>176.3</ele>
        <time>2022-10-15T06:57:00Z</time>
      </trkpt>
      <trkpt lat="44.59448" lon="0.65423">
        <ele>176.1</ele>
        <time>2022-10-15T06:57:02Z</time>
      </trkpt>
      <trkpt lat="44.59452" lon="0.65428">
        <ele>176.7</ele>
        <time>2022-10-15T06:57:03Z</time>
      </trkpt>
      <trkpt lat="44.59458" lon="0.65437">
        <ele>176.8</ele>
        <time>2022-10-15T06:57:05Z</time>
      </trkpt>
      <trkpt lat="44.59472" lon="0.65454">
        <ele>177.2</ele>
        <time>2022-10-15T06:57:09Z</time>
      </trkpt>
      <trkpt lat="44.59478" lon="0.65476">
        <ele>177.4</ele>
        <time>2022-10-15T06:57:13Z</time>
      </trkpt>
      <trkpt lat="44.59479" lon="0.65506">
        <ele>179.2</ele>
        <time>2022-10-15T06:57:19Z</time>
      </trkpt>
      <trkpt lat="44.59475" lon="0.65512">
        <ele>179.2</ele>
        <time>2022-10-15T06:57:21Z</time>
      </trkpt>
      <trkpt lat="44.59471" lon="0.65517">
        <ele>179.4</ele>
        <time>2022-10-15T06:57:23Z</time>
      </trkpt>
      <trkpt lat="44.59467" lon="0.65529">
        <ele>181</ele>
        <time>2022-10-15T06:57:27Z</time>
      </trkpt>
      <trkpt lat="44.59473" lon="0.65537">
        <ele>181</ele>
        <time>2022-10-15T06:57:30Z</time>
      </trkpt>
      <trkpt lat="44.59484" lon="0.65548">
        <ele>183.2</ele>
        <time>2022-10-15T06:57:35Z</time>
      </trkpt>
      <trkpt lat="44.59498" lon="0.65566">
        <ele>185.1</ele>
        <time>2022-10-15T06:57:42Z</time>
      </trkpt>
      <trkpt lat="44.59507" lon="0.65578">
        <ele>186.6</ele>
        <time>2022-10-15T06:57:47Z</time>
      </trkpt>
      <trkpt lat="44.5951" lon="0.6558">
        <ele>186.6</ele>
        <time>2022-10-15T06:57:49Z</time>
      </trkpt>
      <trkpt lat="44.59512" lon="0.65581">
        <ele>186.9</ele>
        <time>2022-10-15T06:57:50Z</time>
      </trkpt>
      <trkpt lat="44.59524" lon="0.65585">
        <ele>187.3</ele>
        <time>2022-10-15T06:57:55Z</time>
      </trkpt>
      <trkpt lat="44.59541" lon="0.65583">
        <ele>187.6</ele>
        <time>2022-10-15T06:58:01Z</time>
      </trkpt>
      <trkpt lat="44.59553" lon="0.65583">
        <ele>187.9</ele>
        <time>2022-10-15T06:58:05Z</time>
      </trkpt>
      <trkpt lat="44.59564" lon="0.65583">
        <ele>188.2</ele>
        <time>2022-10-15T06:58:09Z</time>
      </trkpt>
      <trkpt lat="44.59577" lon="0.65589">
        <ele>188.7</ele>
        <time>2022-10-15T06:58:14Z</time>
      </trkpt>
      <trkpt lat="44.5959" lon="0.65599">
        <ele>190.4</ele>
        <time>2022-10-15T06:58:19Z</time>
      </trkpt>
      <trkpt lat="44.59594" lon="0.65602">
        <ele>190.5</ele>
        <time>2022-10-15T06:58:21Z</time>
      </trkpt>
      <trkpt lat="44.596" lon="0.6561">
        <ele>190.6</ele>
        <time>2022-10-15T06:58:24Z</time>
      </trkpt>
      <trkpt lat="44.59606" lon="0.65616">
        <ele>190.7</ele>
        <time>2022-10-15T06:58:27Z</time>
      </trkpt>
      <trkpt lat="44.59615" lon="0.65626">
        <ele>190</ele>
        <time>2022-10-15T06:58:32Z</time>
      </trkpt>
      <trkpt lat="44.59625" lon="0.65638">
        <ele>189.2</ele>
        <time>2022-10-15T06:58:37Z</time>
      </trkpt>
      <trkpt lat="44.59629" lon="0.65647">
        <ele>189.2</ele>
        <time>2022-10-15T06:58:40Z</time>
      </trkpt>
      <trkpt lat="44.59633" lon="0.6565">
        <ele>189.2</ele>
        <time>2022-10-15T06:58:42Z</time>
      </trkpt>
      <trkpt lat="44.59645" lon="0.65659">
        <ele>188.7</ele>
        <time>2022-10-15T06:58:47Z</time>
      </trkpt>
      <trkpt lat="44.59649" lon="0.65658">
        <ele>188.2</ele>
        <time>2022-10-15T06:58:50Z</time>
      </trkpt>
      <trkpt lat="44.59652" lon="0.65636">
        <ele>188.2</ele>
        <time>2022-10-15T06:58:55Z</time>
      </trkpt>
      <trkpt lat="44.59664" lon="0.65609">
        <ele>187.5</ele>
        <time>2022-10-15T06:59:00Z</time>
      </trkpt>
      <trkpt lat="44.59675" lon="0.65594">
        <ele>186.7</ele>
        <time>2022-10-15T06:59:04Z</time>
      </trkpt>
      <trkpt lat="44.59678" lon="0.65594">
        <ele>186.7</ele>
        <time>2022-10-15T06:59:05Z</time>
      </trkpt>
      <trkpt lat="44.59684" lon="0.65601">
        <ele>186.5</ele>
        <time>2022-10-15T06:59:07Z</time>
      </trkpt>
      <trkpt lat="44.59698" lon="0.6561">
        <ele>186.4</ele>
        <time>2022-10-15T06:59:11Z</time>
      </trkpt>
      <trkpt lat="44.59702" lon="0.65609">
        <ele>186.3</ele>
        <time>2022-10-15T06:59:12Z</time>
      </trkpt>
      <trkpt lat="44.59708" lon="0.65606">
        <ele>186.3</ele>
        <time>2022-10-15T06:59:14Z</time>
      </trkpt>
      <trkpt lat="44.59715" lon="0.6561">
        <ele>186.2</ele>
        <time>2022-10-15T06:59:16Z</time>
      </trkpt>
      <trkpt lat="44.5972" lon="0.65619">
        <ele>185.7</ele>
        <time>2022-10-15T06:59:18Z</time>
      </trkpt>
      <trkpt lat="44.59727" lon="0.65639">
        <ele>184.9</ele>
        <time>2022-10-15T06:59:23Z</time>
      </trkpt>
      <trkpt lat="44.59733" lon="0.65647">
        <ele>181.7</ele>
        <time>2022-10-15T06:59:26Z</time>
      </trkpt>
      <trkpt lat="44.59737" lon="0.65649">
        <ele>181.7</ele>
        <time>2022-10-15T06:59:32Z</time>
      </trkpt>
      <trkpt lat="44.59743" lon="0.65647">
        <ele>181.8</ele>
        <time>2022-10-15T06:59:34Z</time>
      </trkpt>
      <trkpt lat="44.59751" lon="0.65627">
        <ele>182.3</ele>
        <time>2022-10-15T06:59:38Z</time>
      </trkpt>
      <trkpt lat="44.59754" lon="0.65622">
        <ele>183.9</ele>
        <time>2022-10-15T06:59:39Z</time>
      </trkpt>
      <trkpt lat="44.59761" lon="0.65616">
        <ele>182.4</ele>
        <time>2022-10-15T06:59:41Z</time>
      </trkpt>
      <trkpt lat="44.59766" lon="0.65617">
        <ele>182.4</ele>
        <time>2022-10-15T06:59:42Z</time>
      </trkpt>
      <trkpt lat="44.5977" lon="0.65621">
        <ele>180.5</ele>
        <time>2022-10-15T06:59:43Z</time>
      </trkpt>
      <trkpt lat="44.5978" lon="0.65629">
        <ele>176.6</ele>
        <time>2022-10-15T06:59:45Z</time>
      </trkpt>
      <trkpt lat="44.5979" lon="0.65632">
        <ele>176.6</ele>
        <time>2022-10-15T06:59:47Z</time>
      </trkpt>
      <trkpt lat="44.59795" lon="0.65632">
        <ele>174.8</ele>
        <time>2022-10-15T06:59:48Z</time>
      </trkpt>
      <trkpt lat="44.59804" lon="0.65625">
        <ele>176.5</ele>
        <time>2022-10-15T06:59:50Z</time>
      </trkpt>
      <trkpt lat="44.59816" lon="0.65607">
        <ele>176.4</ele>
        <time>2022-10-15T06:59:53Z</time>
      </trkpt>
      <trkpt lat="44.59831" lon="0.65591">
        <ele>172.9</ele>
        <time>2022-10-15T06:59:56Z</time>
      </trkpt>
      <trkpt lat="44.59843" lon="0.65581">
        <ele>170.3</ele>
        <time>2022-10-15T06:59:58Z</time>
      </trkpt>
      <trkpt lat="44.59855" lon="0.65578">
        <ele>167.7</ele>
        <time>2022-10-15T07:00:00Z</time>
      </trkpt>
      <trkpt lat="44.59863" lon="0.65581">
        <ele>167.7</ele>
        <time>2022-10-15T07:00:02Z</time>
      </trkpt>
      <trkpt lat="44.59867" lon="0.65583">
        <ele>165.1</ele>
        <time>2022-10-15T07:00:03Z</time>
      </trkpt>
      <trkpt lat="44.59874" lon="0.65584">
        <ele>165.1</ele>
        <time>2022-10-15T07:00:05Z</time>
      </trkpt>
      <trkpt lat="44.59878" lon="0.65582">
        <ele>165.2</ele>
        <time>2022-10-15T07:00:06Z</time>
      </trkpt>
      <trkpt lat="44.59898" lon="0.65573">
        <ele>161.4</ele>
        <time>2022-10-15T07:00:11Z</time>
      </trkpt>
      <trkpt lat="44.5992" lon="0.65561">
        <ele>157.8</ele>
        <time>2022-10-15T07:00:16Z</time>
      </trkpt>
      <trkpt lat="44.59924" lon="0.65558">
        <ele>157.9</ele>
        <time>2022-10-15T07:00:17Z</time>
      </trkpt>
      <trkpt lat="44.59949" lon="0.65542">
        <ele>155.3</ele>
        <time>2022-10-15T07:00:22Z</time>
      </trkpt>
      <trkpt lat="44.59954" lon="0.65539">
        <ele>154.4</ele>
        <time>2022-10-15T07:00:23Z</time>
      </trkpt>
      <trkpt lat="44.59965" lon="0.65531">
        <ele>153.3</ele>
        <time>2022-10-15T07:00:25Z</time>
      </trkpt>
      <trkpt lat="44.59971" lon="0.65528">
        <ele>153.3</ele>
        <time>2022-10-15T07:00:26Z</time>
      </trkpt>
      <trkpt lat="44.59987" lon="0.6552">
        <ele>152.6</ele>
        <time>2022-10-15T07:00:29Z</time>
      </trkpt>
      <trkpt lat="44.59991" lon="0.65515">
        <ele>151.9</ele>
        <time>2022-10-15T07:00:30Z</time>
      </trkpt>
      <trkpt lat="44.59997" lon="0.65512">
        <ele>151.9</ele>
        <time>2022-10-15T07:00:31Z</time>
      </trkpt>
      <trkpt lat="44.60007" lon="0.65506">
        <ele>151</ele>
        <time>2022-10-15T07:00:33Z</time>
      </trkpt>
      <trkpt lat="44.60013" lon="0.65496">
        <ele>150.2</ele>
        <time>2022-10-15T07:00:35Z</time>
      </trkpt>
      <trkpt lat="44.60016" lon="0.6549">
        <ele>150.3</ele>
        <time>2022-10-15T07:00:36Z</time>
      </trkpt>
      <trkpt lat="44.6002" lon="0.65485">
        <ele>150.2</ele>
        <time>2022-10-15T07:00:37Z</time>
      </trkpt>
      <trkpt lat="44.60034" lon="0.65471">
        <ele>149.5</ele>
        <time>2022-10-15T07:00:40Z</time>
      </trkpt>
      <trkpt lat="44.60065" lon="0.65444">
        <ele>147.8</ele>
        <time>2022-10-15T07:00:46Z</time>
      </trkpt>
      <trkpt lat="44.60082" lon="0.65432">
        <ele>147.5</ele>
        <time>2022-10-15T07:00:49Z</time>
      </trkpt>
      <trkpt lat="44.60088" lon="0.65431">
        <ele>146.9</ele>
        <time>2022-10-15T07:00:50Z</time>
      </trkpt>
      <trkpt lat="44.60097" lon="0.65433">
        <ele>146.9</ele>
        <time>2022-10-15T07:00:52Z</time>
      </trkpt>
      <trkpt lat="44.60102" lon="0.65438">
        <ele>146.3</ele>
        <time>2022-10-15T07:00:53Z</time>
      </trkpt>
      <trkpt lat="44.60106" lon="0.65443">
        <ele>145.7</ele>
        <time>2022-10-15T07:00:54Z</time>
      </trkpt>
      <trkpt lat="44.60115" lon="0.65447">
        <ele>145</ele>
        <time>2022-10-15T07:00:56Z</time>
      </trkpt>
      <trkpt lat="44.6012" lon="0.65448">
        <ele>144.7</ele>
        <time>2022-10-15T07:00:57Z</time>
      </trkpt>
      <trkpt lat="44.60128" lon="0.6546">
        <ele>144.3</ele>
        <time>2022-10-15T07:00:59Z</time>
      </trkpt>
      <trkpt lat="44.6015" lon="0.65492">
        <ele>145.1</ele>
        <time>2022-10-15T07:01:04Z</time>
      </trkpt>
      <trkpt lat="44.60154" lon="0.65498">
        <ele>145.3</ele>
        <time>2022-10-15T07:01:05Z</time>
      </trkpt>
      <trkpt lat="44.60157" lon="0.65503">
        <ele>145.5</ele>
        <time>2022-10-15T07:01:06Z</time>
      </trkpt>
      <trkpt lat="44.60164" lon="0.65521">
        <ele>146.6</ele>
        <time>2022-10-15T07:01:09Z</time>
      </trkpt>
      <trkpt lat="44.60174" lon="0.6555">
        <ele>148.5</ele>
        <time>2022-10-15T07:01:14Z</time>
      </trkpt>
      <trkpt lat="44.60176" lon="0.65556">
        <ele>148.7</ele>
        <time>2022-10-15T07:01:15Z</time>
      </trkpt>
      <trkpt lat="44.60177" lon="0.65561">
        <ele>148.9</ele>
        <time>2022-10-15T07:01:16Z</time>
      </trkpt>
      <trkpt lat="44.60182" lon="0.65578">
        <ele>148.9</ele>
        <time>2022-10-15T07:01:19Z</time>
      </trkpt>
      <trkpt lat="44.60183" lon="0.65583">
        <ele>148.7</ele>
        <time>2022-10-15T07:01:20Z</time>
      </trkpt>
      <trkpt lat="44.60185" lon="0.65589">
        <ele>148.5</ele>
        <time>2022-10-15T07:01:21Z</time>
      </trkpt>
      <trkpt lat="44.6019" lon="0.65613">
        <ele>147.4</ele>
        <time>2022-10-15T07:01:24Z</time>
      </trkpt>
      <trkpt lat="44.60194" lon="0.65631">
        <ele>146.9</ele>
        <time>2022-10-15T07:01:26Z</time>
      </trkpt>
      <trkpt lat="44.60201" lon="0.65647">
        <ele>146.9</ele>
        <time>2022-10-15T07:01:28Z</time>
      </trkpt>
      <trkpt lat="44.60215" lon="0.65687">
        <ele>147.4</ele>
        <time>2022-10-15T07:01:33Z</time>
      </trkpt>
      <trkpt lat="44.60216" lon="0.65696">
        <ele>147.7</ele>
        <time>2022-10-15T07:01:34Z</time>
      </trkpt>
      <trkpt lat="44.6022" lon="0.65727">
        <ele>148.3</ele>
        <time>2022-10-15T07:01:38Z</time>
      </trkpt>
      <trkpt lat="44.60222" lon="0.65734">
        <ele>148.4</ele>
        <time>2022-10-15T07:01:39Z</time>
      </trkpt>
      <trkpt lat="44.60232" lon="0.65776">
        <ele>148.7</ele>
        <time>2022-10-15T07:01:46Z</time>
      </trkpt>
      <trkpt lat="44.60246" lon="0.65829">
        <ele>148.9</ele>
        <time>2022-10-15T07:01:54Z</time>
      </trkpt>
      <trkpt lat="44.60256" lon="0.65869">
        <ele>149.3</ele>
        <time>2022-10-15T07:02:00Z</time>
      </trkpt>
      <trkpt lat="44.60258" lon="0.65876">
        <ele>149.4</ele>
        <time>2022-10-15T07:02:01Z</time>
      </trkpt>
      <trkpt lat="44.6027" lon="0.65919">
        <ele>150.1</ele>
        <time>2022-10-15T07:02:08Z</time>
      </trkpt>
      <trkpt lat="44.60279" lon="0.65958">
        <ele>151.1</ele>
        <time>2022-10-15T07:02:15Z</time>
      </trkpt>
      <trkpt lat="44.60289" lon="0.65995">
        <ele>152.3</ele>
        <time>2022-10-15T07:02:22Z</time>
      </trkpt>
      <trkpt lat="44.60296" lon="0.6603">
        <ele>153.5</ele>
        <time>2022-10-15T07:02:29Z</time>
      </trkpt>
      <trkpt lat="44.60306" lon="0.66069">
        <ele>155.7</ele>
        <time>2022-10-15T07:02:38Z</time>
      </trkpt>
      <trkpt lat="44.60313" lon="0.66088">
        <ele>157</ele>
        <time>2022-10-15T07:02:44Z</time>
      </trkpt>
      <trkpt lat="44.6032" lon="0.66116">
        <ele>158.6</ele>
        <time>2022-10-15T07:02:52Z</time>
      </trkpt>
      <trkpt lat="44.60327" lon="0.66143">
        <ele>159.8</ele>
        <time>2022-10-15T07:02:59Z</time>
      </trkpt>
      <trkpt lat="44.60333" lon="0.66169">
        <ele>160.9</ele>
        <time>2022-10-15T07:03:06Z</time>
      </trkpt>
      <trkpt lat="44.60341" lon="0.66182">
        <ele>161.5</ele>
        <time>2022-10-15T07:03:12Z</time>
      </trkpt>
      <trkpt lat="44.60351" lon="0.66195">
        <ele>161.9</ele>
        <time>2022-10-15T07:03:18Z</time>
      </trkpt>
      <trkpt lat="44.60352" lon="0.66196">
        <ele>162</ele>
        <time>2022-10-15T07:03:20Z</time>
      </trkpt>
      <trkpt lat="44.60346" lon="0.66198">
        <ele>162.1</ele>
        <time>2022-10-15T07:03:54Z</time>
      </trkpt>
      <trkpt lat="44.60343" lon="0.66198">
        <ele>162.1</ele>
        <time>2022-10-15T07:03:55Z</time>
      </trkpt>
      <trkpt lat="44.60341" lon="0.662">
        <ele>162.1</ele>
        <time>2022-10-15T07:03:56Z</time>
      </trkpt>
      <trkpt lat="44.6034" lon="0.66206">
        <ele>162.1</ele>
        <time>2022-10-15T07:03:58Z</time>
      </trkpt>
      <trkpt lat="44.60347" lon="0.66223">
        <ele>161.7</ele>
        <time>2022-10-15T07:04:02Z</time>
      </trkpt>
      <trkpt lat="44.60355" lon="0.66249">
        <ele>160.7</ele>
        <time>2022-10-15T07:04:07Z</time>
      </trkpt>
      <trkpt lat="44.60366" lon="0.66287">
        <ele>157.5</ele>
        <time>2022-10-15T07:04:11Z</time>
      </trkpt>
      <trkpt lat="44.60368" lon="0.66296">
        <ele>156.8</ele>
        <time>2022-10-15T07:04:12Z</time>
      </trkpt>
      <trkpt lat="44.60368" lon="0.66315">
        <ele>155.3</ele>
        <time>2022-10-15T07:04:14Z</time>
      </trkpt>
      <trkpt lat="44.60356" lon="0.66366">
        <ele>152.5</ele>
        <time>2022-10-15T07:04:19Z</time>
      </trkpt>
      <trkpt lat="44.60346" lon="0.66415">
        <ele>150.1</ele>
        <time>2022-10-15T07:04:24Z</time>
      </trkpt>
      <trkpt lat="44.60339" lon="0.66431">
        <ele>149.3</ele>
        <time>2022-10-15T07:04:26Z</time>
      </trkpt>
      <trkpt lat="44.60328" lon="0.66448">
        <ele>146.7</ele>
        <time>2022-10-15T07:04:28Z</time>
      </trkpt>
      <trkpt lat="44.60323" lon="0.66458">
        <ele>145.2</ele>
        <time>2022-10-15T07:04:29Z</time>
      </trkpt>
      <trkpt lat="44.60308" lon="0.66494">
        <ele>141.4</ele>
        <time>2022-10-15T07:04:32Z</time>
      </trkpt>
      <trkpt lat="44.60286" lon="0.66555">
        <ele>138.9</ele>
        <time>2022-10-15T07:04:37Z</time>
      </trkpt>
      <trkpt lat="44.60283" lon="0.66578">
        <ele>138.7</ele>
        <time>2022-10-15T07:04:39Z</time>
      </trkpt>
      <trkpt lat="44.60283" lon="0.66589">
        <ele>138.6</ele>
        <time>2022-10-15T07:04:40Z</time>
      </trkpt>
      <trkpt lat="44.60285" lon="0.66598">
        <ele>138.5</ele>
        <time>2022-10-15T07:04:41Z</time>
      </trkpt>
      <trkpt lat="44.6029" lon="0.66606">
        <ele>138.5</ele>
        <time>2022-10-15T07:04:42Z</time>
      </trkpt>
      <trkpt lat="44.60296" lon="0.66611">
        <ele>138.4</ele>
        <time>2022-10-15T07:04:43Z</time>
      </trkpt>
      <trkpt lat="44.60314" lon="0.66626">
        <ele>138.1</ele>
        <time>2022-10-15T07:04:46Z</time>
      </trkpt>
      <trkpt lat="44.60331" lon="0.66642">
        <ele>137.1</ele>
        <time>2022-10-15T07:04:49Z</time>
      </trkpt>
      <trkpt lat="44.60339" lon="0.66658">
        <ele>135.8</ele>
        <time>2022-10-15T07:04:51Z</time>
      </trkpt>
      <trkpt lat="44.60349" lon="0.66703">
        <ele>130.7</ele>
        <time>2022-10-15T07:04:55Z</time>
      </trkpt>
      <trkpt lat="44.60368" lon="0.66756">
        <ele>127.3</ele>
        <time>2022-10-15T07:04:59Z</time>
      </trkpt>
      <trkpt lat="44.60377" lon="0.6678">
        <ele>128.2</ele>
        <time>2022-10-15T07:05:01Z</time>
      </trkpt>
      <trkpt lat="44.60379" lon="0.66791">
        <ele>129</ele>
        <time>2022-10-15T07:05:02Z</time>
      </trkpt>
      <trkpt lat="44.60383" lon="0.66817">
        <ele>131.7</ele>
        <time>2022-10-15T07:05:05Z</time>
      </trkpt>
      <trkpt lat="44.60385" lon="0.66836">
        <ele>134.4</ele>
        <time>2022-10-15T07:05:09Z</time>
      </trkpt>
      <trkpt lat="44.60385" lon="0.66847">
        <ele>136</ele>
        <time>2022-10-15T07:05:13Z</time>
      </trkpt>
      <trkpt lat="44.60383" lon="0.66863">
        <ele>138.4</ele>
        <time>2022-10-15T07:05:18Z</time>
      </trkpt>
      <trkpt lat="44.60382" lon="0.66877">
        <ele>140.3</ele>
        <time>2022-10-15T07:05:24Z</time>
      </trkpt>
      <trkpt lat="44.60381" lon="0.66886">
        <ele>141.4</ele>
        <time>2022-10-15T07:05:29Z</time>
      </trkpt>
      <trkpt lat="44.60382" lon="0.66888">
        <ele>141.7</ele>
        <time>2022-10-15T07:05:30Z</time>
      </trkpt>
      <trkpt lat="44.60382" lon="0.66893">
        <ele>142.6</ele>
        <time>2022-10-15T07:05:34Z</time>
      </trkpt>
      <trkpt lat="44.60386" lon="0.66896">
        <ele>143.5</ele>
        <time>2022-10-15T07:05:38Z</time>
      </trkpt>
      <trkpt lat="44.60389" lon="0.66898">
        <ele>144</ele>
        <time>2022-10-15T07:05:40Z</time>
      </trkpt>
      <trkpt lat="44.60395" lon="0.66902">
        <ele>145.2</ele>
        <time>2022-10-15T07:05:45Z</time>
      </trkpt>
      <trkpt lat="44.60401" lon="0.66913">
        <ele>147.1</ele>
        <time>2022-10-15T07:05:52Z</time>
      </trkpt>
      <trkpt lat="44.60405" lon="0.66923">
        <ele>148.4</ele>
        <time>2022-10-15T07:05:58Z</time>
      </trkpt>
      <trkpt lat="44.60408" lon="0.66928">
        <ele>149.3</ele>
        <time>2022-10-15T07:06:02Z</time>
      </trkpt>
      <trkpt lat="44.60411" lon="0.66932">
        <ele>149.9</ele>
        <time>2022-10-15T07:06:05Z</time>
      </trkpt>
      <trkpt lat="44.60417" lon="0.66944">
        <ele>151.1</ele>
        <time>2022-10-15T07:06:11Z</time>
      </trkpt>
      <trkpt lat="44.60417" lon="0.66945">
        <ele>151.2</ele>
        <time>2022-10-15T07:06:12Z</time>
      </trkpt>
      <trkpt lat="44.60425" lon="0.66961">
        <ele>151.6</ele>
        <time>2022-10-15T07:06:19Z</time>
      </trkpt>
      <trkpt lat="44.60436" lon="0.66982">
        <ele>151</ele>
        <time>2022-10-15T07:06:26Z</time>
      </trkpt>
      <trkpt lat="44.60441" lon="0.66996">
        <ele>149.9</ele>
        <time>2022-10-15T07:06:29Z</time>
      </trkpt>
      <trkpt lat="44.60448" lon="0.67">
        <ele>147.7</ele>
        <time>2022-10-15T07:06:31Z</time>
      </trkpt>
      <trkpt lat="44.60452" lon="0.67001">
        <ele>146.7</ele>
        <time>2022-10-15T07:06:32Z</time>
      </trkpt>
      <trkpt lat="44.6048" lon="0.67001">
        <ele>141.5</ele>
        <time>2022-10-15T07:06:38Z</time>
      </trkpt>
      <trkpt lat="44.60481" lon="0.67001">
        <ele>141.4</ele>
        <time>2022-10-15T07:06:40Z</time>
      </trkpt>
      <trkpt lat="44.60483" lon="0.67001">
        <ele>141</ele>
        <time>2022-10-15T07:06:46Z</time>
      </trkpt>
      <trkpt lat="44.60495" lon="0.66998">
        <ele>139.1</ele>
        <time>2022-10-15T07:06:51Z</time>
      </trkpt>
      <trkpt lat="44.60498" lon="0.66997">
        <ele>138.6</ele>
        <time>2022-10-15T07:06:52Z</time>
      </trkpt>
      <trkpt lat="44.605" lon="0.67001">
        <ele>138</ele>
        <time>2022-10-15T07:06:54Z</time>
      </trkpt>
      <trkpt lat="44.605" lon="0.67003">
        <ele>137.7</ele>
        <time>2022-10-15T07:06:55Z</time>
      </trkpt>
      <trkpt lat="44.60498" lon="0.6701">
        <ele>136.9</ele>
        <time>2022-10-15T07:06:57Z</time>
      </trkpt>
      <trkpt lat="44.60498" lon="0.67016">
        <ele>136.3</ele>
        <time>2022-10-15T07:06:58Z</time>
      </trkpt>
      <trkpt lat="44.60501" lon="0.67023">
        <ele>135.6</ele>
        <time>2022-10-15T07:06:59Z</time>
      </trkpt>
      <trkpt lat="44.60505" lon="0.67031">
        <ele>134.8</ele>
        <time>2022-10-15T07:07:00Z</time>
      </trkpt>
      <trkpt lat="44.6052" lon="0.67055">
        <ele>133.2</ele>
        <time>2022-10-15T07:07:03Z</time>
      </trkpt>
      <trkpt lat="44.60535" lon="0.67086">
        <ele>132.8</ele>
        <time>2022-10-15T07:07:07Z</time>
      </trkpt>
      <trkpt lat="44.60555" lon="0.67133">
        <ele>135.4</ele>
        <time>2022-10-15T07:07:14Z</time>
      </trkpt>
      <trkpt lat="44.60561" lon="0.6715">
        <ele>137.5</ele>
        <time>2022-10-15T07:07:18Z</time>
      </trkpt>
      <trkpt lat="44.60567" lon="0.67163">
        <ele>139.7</ele>
        <time>2022-10-15T07:07:23Z</time>
      </trkpt>
      <trkpt lat="44.60571" lon="0.67171">
        <ele>141.2</ele>
        <time>2022-10-15T07:07:28Z</time>
      </trkpt>
      <trkpt lat="44.60578" lon="0.67183">
        <ele>143.4</ele>
        <time>2022-10-15T07:07:35Z</time>
      </trkpt>
      <trkpt lat="44.60581" lon="0.67193">
        <ele>145</ele>
        <time>2022-10-15T07:07:41Z</time>
      </trkpt>
      <trkpt lat="44.60582" lon="0.67203">
        <ele>146</ele>
        <time>2022-10-15T07:07:45Z</time>
      </trkpt>
      <trkpt lat="44.60583" lon="0.67205">
        <ele>146.3</ele>
        <time>2022-10-15T07:07:47Z</time>
      </trkpt>
      <trkpt lat="44.60584" lon="0.67216">
        <ele>147.1</ele>
        <time>2022-10-15T07:07:52Z</time>
      </trkpt>
      <trkpt lat="44.60585" lon="0.67218">
        <ele>147.2</ele>
        <time>2022-10-15T07:07:53Z</time>
      </trkpt>
      <trkpt lat="44.60591" lon="0.67234">
        <ele>147.7</ele>
        <time>2022-10-15T07:07:59Z</time>
      </trkpt>
      <trkpt lat="44.60598" lon="0.67256">
        <ele>147.8</ele>
        <time>2022-10-15T07:08:05Z</time>
      </trkpt>
      <trkpt lat="44.6061" lon="0.6728">
        <ele>147.7</ele>
        <time>2022-10-15T07:08:10Z</time>
      </trkpt>
      <trkpt lat="44.60625" lon="0.67295">
        <ele>147.8</ele>
        <time>2022-10-15T07:08:15Z</time>
      </trkpt>
      <trkpt lat="44.6064" lon="0.67307">
        <ele>148.3</ele>
        <time>2022-10-15T07:08:20Z</time>
      </trkpt>
      <trkpt lat="44.60653" lon="0.67318">
        <ele>148.9</ele>
        <time>2022-10-15T07:08:25Z</time>
      </trkpt>
      <trkpt lat="44.60667" lon="0.67333">
        <ele>149.6</ele>
        <time>2022-10-15T07:08:30Z</time>
      </trkpt>
      <trkpt lat="44.60677" lon="0.67352">
        <ele>150.4</ele>
        <time>2022-10-15T07:08:35Z</time>
      </trkpt>
      <trkpt lat="44.60685" lon="0.67374">
        <ele>151.2</ele>
        <time>2022-10-15T07:08:41Z</time>
      </trkpt>
      <trkpt lat="44.60694" lon="0.67402">
        <ele>152.3</ele>
        <time>2022-10-15T07:08:48Z</time>
      </trkpt>
      <trkpt lat="44.60702" lon="0.67423">
        <ele>153.5</ele>
        <time>2022-10-15T07:08:54Z</time>
      </trkpt>
      <trkpt lat="44.60709" lon="0.67445">
        <ele>155.3</ele>
        <time>2022-10-15T07:09:01Z</time>
      </trkpt>
      <trkpt lat="44.60716" lon="0.67458">
        <ele>156.9</ele>
        <time>2022-10-15T07:09:08Z</time>
      </trkpt>
      <trkpt lat="44.60718" lon="0.67466">
        <ele>157.7</ele>
        <time>2022-10-15T07:09:12Z</time>
      </trkpt>
      <trkpt lat="44.60717" lon="0.67468">
        <ele>158</ele>
        <time>2022-10-15T07:09:13Z</time>
      </trkpt>
      <trkpt lat="44.60706" lon="0.67473">
        <ele>158.3</ele>
        <time>2022-10-15T07:09:17Z</time>
      </trkpt>
      <trkpt lat="44.60692" lon="0.6748">
        <ele>158.2</ele>
        <time>2022-10-15T07:09:21Z</time>
      </trkpt>
      <trkpt lat="44.60685" lon="0.67485">
        <ele>158.2</ele>
        <time>2022-10-15T07:09:23Z</time>
      </trkpt>
      <trkpt lat="44.60668" lon="0.675">
        <ele>158.2</ele>
        <time>2022-10-15T07:09:29Z</time>
      </trkpt>
      <trkpt lat="44.60653" lon="0.67515">
        <ele>158.4</ele>
        <time>2022-10-15T07:09:35Z</time>
      </trkpt>
      <trkpt lat="44.60637" lon="0.67529">
        <ele>158.8</ele>
        <time>2022-10-15T07:09:41Z</time>
      </trkpt>
      <trkpt lat="44.60611" lon="0.67552">
        <ele>159.3</ele>
        <time>2022-10-15T07:09:49Z</time>
      </trkpt>
      <trkpt lat="44.60593" lon="0.67567">
        <ele>159.5</ele>
        <time>2022-10-15T07:09:54Z</time>
      </trkpt>
      <trkpt lat="44.60585" lon="0.67572">
        <ele>159.5</ele>
        <time>2022-10-15T07:09:56Z</time>
      </trkpt>
      <trkpt lat="44.60553" lon="0.67595">
        <ele>160</ele>
        <time>2022-10-15T07:10:04Z</time>
      </trkpt>
      <trkpt lat="44.60505" lon="0.67625">
        <ele>161.4</ele>
        <time>2022-10-15T07:10:16Z</time>
      </trkpt>
      <trkpt lat="44.60464" lon="0.67649">
        <ele>162.4</ele>
        <time>2022-10-15T07:10:26Z</time>
      </trkpt>
      <trkpt lat="44.60425" lon="0.67668">
        <ele>162.9</ele>
        <time>2022-10-15T07:10:35Z</time>
      </trkpt>
      <trkpt lat="44.60421" lon="0.67671">
        <ele>162.9</ele>
        <time>2022-10-15T07:10:36Z</time>
      </trkpt>
      <trkpt lat="44.60397" lon="0.67684">
        <ele>162.7</ele>
        <time>2022-10-15T07:10:42Z</time>
      </trkpt>
      <trkpt lat="44.60379" lon="0.67692">
        <ele>163.1</ele>
        <time>2022-10-15T07:10:46Z</time>
      </trkpt>
      <trkpt lat="44.6037" lon="0.67694">
        <ele>163.4</ele>
        <time>2022-10-15T07:10:48Z</time>
      </trkpt>
      <trkpt lat="44.60361" lon="0.67695">
        <ele>163.6</ele>
        <time>2022-10-15T07:10:50Z</time>
      </trkpt>
      <trkpt lat="44.60349" lon="0.67697">
        <ele>164.1</ele>
        <time>2022-10-15T07:10:53Z</time>
      </trkpt>
      <trkpt lat="44.60328" lon="0.67702">
        <ele>165.1</ele>
        <time>2022-10-15T07:10:59Z</time>
      </trkpt>
      <trkpt lat="44.60305" lon="0.67709">
        <ele>166</ele>
        <time>2022-10-15T07:11:05Z</time>
      </trkpt>
      <trkpt lat="44.60282" lon="0.67715">
        <ele>166.5</ele>
        <time>2022-10-15T07:11:11Z</time>
      </trkpt>
      <trkpt lat="44.60266" lon="0.67717">
        <ele>166.8</ele>
        <time>2022-10-15T07:11:15Z</time>
      </trkpt>
      <trkpt lat="44.60241" lon="0.67722">
        <ele>167.3</ele>
        <time>2022-10-15T07:11:21Z</time>
      </trkpt>
      <trkpt lat="44.60227" lon="0.67728">
        <ele>167.6</ele>
        <time>2022-10-15T07:11:25Z</time>
      </trkpt>
      <trkpt lat="44.60204" lon="0.67731">
        <ele>168.1</ele>
        <time>2022-10-15T07:11:31Z</time>
      </trkpt>
      <trkpt lat="44.60173" lon="0.67728">
        <ele>168.9</ele>
        <time>2022-10-15T07:11:39Z</time>
      </trkpt>
      <trkpt lat="44.60147" lon="0.67729">
        <ele>169.7</ele>
        <time>2022-10-15T07:11:46Z</time>
      </trkpt>
      <trkpt lat="44.60124" lon="0.67728">
        <ele>170.7</ele>
        <time>2022-10-15T07:11:53Z</time>
      </trkpt>
      <trkpt lat="44.60107" lon="0.67729">
        <ele>171.6</ele>
        <time>2022-10-15T07:11:59Z</time>
      </trkpt>
      <trkpt lat="44.60095" lon="0.67728">
        <ele>172</ele>
        <time>2022-10-15T07:12:04Z</time>
      </trkpt>
      <trkpt lat="44.60082" lon="0.67728">
        <ele>172.4</ele>
        <time>2022-10-15T07:12:09Z</time>
      </trkpt>
      <trkpt lat="44.60067" lon="0.67727">
        <ele>172.7</ele>
        <time>2022-10-15T07:12:14Z</time>
      </trkpt>
      <trkpt lat="44.60051" lon="0.67727">
        <ele>173.1</ele>
        <time>2022-10-15T07:12:19Z</time>
      </trkpt>
      <trkpt lat="44.60031" lon="0.67724">
        <ele>173.8</ele>
        <time>2022-10-15T07:12:25Z</time>
      </trkpt>
      <trkpt lat="44.60014" lon="0.67724">
        <ele>174.8</ele>
        <time>2022-10-15T07:12:31Z</time>
      </trkpt>
      <trkpt lat="44.59996" lon="0.67722">
        <ele>176</ele>
        <time>2022-10-15T07:12:37Z</time>
      </trkpt>
      <trkpt lat="44.59984" lon="0.67719">
        <ele>176.8</ele>
        <time>2022-10-15T07:12:42Z</time>
      </trkpt>
      <trkpt lat="44.59963" lon="0.67717">
        <ele>178</ele>
        <time>2022-10-15T07:12:49Z</time>
      </trkpt>
      <trkpt lat="44.5995" lon="0.67717">
        <ele>178.7</ele>
        <time>2022-10-15T07:12:54Z</time>
      </trkpt>
      <trkpt lat="44.59936" lon="0.67721">
        <ele>179.3</ele>
        <time>2022-10-15T07:12:59Z</time>
      </trkpt>
      <trkpt lat="44.59922" lon="0.67725">
        <ele>180</ele>
        <time>2022-10-15T07:13:04Z</time>
      </trkpt>
      <trkpt lat="44.59911" lon="0.67731">
        <ele>180.8</ele>
        <time>2022-10-15T07:13:09Z</time>
      </trkpt>
      <trkpt lat="44.599" lon="0.67738">
        <ele>181.6</ele>
        <time>2022-10-15T07:13:14Z</time>
      </trkpt>
      <trkpt lat="44.59888" lon="0.67747">
        <ele>182.7</ele>
        <time>2022-10-15T07:13:20Z</time>
      </trkpt>
      <trkpt lat="44.59883" lon="0.67753">
        <ele>183.3</ele>
        <time>2022-10-15T07:13:23Z</time>
      </trkpt>
      <trkpt lat="44.5988" lon="0.67757">
        <ele>183.6</ele>
        <time>2022-10-15T07:13:25Z</time>
      </trkpt>
      <trkpt lat="44.59872" lon="0.6777">
        <ele>184.6</ele>
        <time>2022-10-15T07:13:31Z</time>
      </trkpt>
      <trkpt lat="44.59865" lon="0.67788">
        <ele>185.5</ele>
        <time>2022-10-15T07:13:37Z</time>
      </trkpt>
      <trkpt lat="44.5986" lon="0.67801">
        <ele>185.8</ele>
        <time>2022-10-15T07:13:42Z</time>
      </trkpt>
      <trkpt lat="44.59854" lon="0.67827">
        <ele>185.7</ele>
        <time>2022-10-15T07:13:47Z</time>
      </trkpt>
      <trkpt lat="44.5985" lon="0.67847">
        <ele>185.4</ele>
        <time>2022-10-15T07:13:50Z</time>
      </trkpt>
      <trkpt lat="44.59848" lon="0.67861">
        <ele>185.1</ele>
        <time>2022-10-15T07:13:52Z</time>
      </trkpt>
      <trkpt lat="44.59842" lon="0.67879">
        <ele>184.5</ele>
        <time>2022-10-15T07:13:55Z</time>
      </trkpt>
      <trkpt lat="44.59838" lon="0.6789">
        <ele>184</ele>
        <time>2022-10-15T07:13:57Z</time>
      </trkpt>
      <trkpt lat="44.59835" lon="0.67896">
        <ele>183.7</ele>
        <time>2022-10-15T07:13:58Z</time>
      </trkpt>
      <trkpt lat="44.59812" lon="0.67935">
        <ele>181.7</ele>
        <time>2022-10-15T07:14:05Z</time>
      </trkpt>
      <trkpt lat="44.59781" lon="0.67978">
        <ele>179.6</ele>
        <time>2022-10-15T07:14:12Z</time>
      </trkpt>
      <trkpt lat="44.59754" lon="0.68007">
        <ele>178.7</ele>
        <time>2022-10-15T07:14:18Z</time>
      </trkpt>
      <trkpt lat="44.59725" lon="0.68028">
        <ele>178.2</ele>
        <time>2022-10-15T07:14:24Z</time>
      </trkpt>
      <trkpt lat="44.59689" lon="0.68048">
        <ele>178</ele>
        <time>2022-10-15T07:14:31Z</time>
      </trkpt>
      <trkpt lat="44.5965" lon="0.68063">
        <ele>176.9</ele>
        <time>2022-10-15T07:14:38Z</time>
      </trkpt>
      <trkpt lat="44.59644" lon="0.68065">
        <ele>176.7</ele>
        <time>2022-10-15T07:14:39Z</time>
      </trkpt>
      <trkpt lat="44.59632" lon="0.68063">
        <ele>175.8</ele>
        <time>2022-10-15T07:14:41Z</time>
      </trkpt>
      <trkpt lat="44.59616" lon="0.68038">
        <ele>173.3</ele>
        <time>2022-10-15T07:14:44Z</time>
      </trkpt>
      <trkpt lat="44.59595" lon="0.68004">
        <ele>170</ele>
        <time>2022-10-15T07:14:48Z</time>
      </trkpt>
      <trkpt lat="44.5959" lon="0.67998">
        <ele>169</ele>
        <time>2022-10-15T07:14:49Z</time>
      </trkpt>
      <trkpt lat="44.59583" lon="0.67996">
        <ele>168.7</ele>
        <time>2022-10-15T07:14:50Z</time>
      </trkpt>
      <trkpt lat="44.59577" lon="0.67998">
        <ele>168.3</ele>
        <time>2022-10-15T07:14:51Z</time>
      </trkpt>
      <trkpt lat="44.59557" lon="0.68008">
        <ele>167.4</ele>
        <time>2022-10-15T07:14:54Z</time>
      </trkpt>
      <trkpt lat="44.59506" lon="0.68036">
        <ele>165.2</ele>
        <time>2022-10-15T07:15:02Z</time>
      </trkpt>
      <trkpt lat="44.59463" lon="0.68072">
        <ele>163.2</ele>
        <time>2022-10-15T07:15:09Z</time>
      </trkpt>
      <trkpt lat="44.59417" lon="0.68125">
        <ele>160.8</ele>
        <time>2022-10-15T07:15:17Z</time>
      </trkpt>
      <trkpt lat="44.59373" lon="0.6818">
        <ele>158.2</ele>
        <time>2022-10-15T07:15:25Z</time>
      </trkpt>
      <trkpt lat="44.59331" lon="0.68233">
        <ele>155.7</ele>
        <time>2022-10-15T07:15:33Z</time>
      </trkpt>
      <trkpt lat="44.59315" lon="0.68254">
        <ele>154.6</ele>
        <time>2022-10-15T07:15:36Z</time>
      </trkpt>
      <trkpt lat="44.59274" lon="0.68315">
        <ele>151.7</ele>
        <time>2022-10-15T07:15:44Z</time>
      </trkpt>
      <trkpt lat="44.59246" lon="0.68363">
        <ele>149.8</ele>
        <time>2022-10-15T07:15:50Z</time>
      </trkpt>
      <trkpt lat="44.59228" lon="0.68393">
        <ele>148.7</ele>
        <time>2022-10-15T07:15:54Z</time>
      </trkpt>
      <trkpt lat="44.59223" lon="0.68399">
        <ele>148.5</ele>
        <time>2022-10-15T07:15:55Z</time>
      </trkpt>
      <trkpt lat="44.59214" lon="0.68412">
        <ele>148.1</ele>
        <time>2022-10-15T07:15:57Z</time>
      </trkpt>
      <trkpt lat="44.59206" lon="0.68426">
        <ele>147.6</ele>
        <time>2022-10-15T07:15:59Z</time>
      </trkpt>
      <trkpt lat="44.59196" lon="0.68444">
        <ele>147</ele>
        <time>2022-10-15T07:16:03Z</time>
      </trkpt>
      <trkpt lat="44.59189" lon="0.68457">
        <ele>146.6</ele>
        <time>2022-10-15T07:16:07Z</time>
      </trkpt>
      <trkpt lat="44.59175" lon="0.68484">
        <ele>145.9</ele>
        <time>2022-10-15T07:16:12Z</time>
      </trkpt>
      <trkpt lat="44.59157" lon="0.68522">
        <ele>144.7</ele>
        <time>2022-10-15T07:16:18Z</time>
      </trkpt>
      <trkpt lat="44.59138" lon="0.68562">
        <ele>143.5</ele>
        <time>2022-10-15T07:16:24Z</time>
      </trkpt>
      <trkpt lat="44.59117" lon="0.68606">
        <ele>142.1</ele>
        <time>2022-10-15T07:16:30Z</time>
      </trkpt>
      <trkpt lat="44.59097" lon="0.68653">
        <ele>140.6</ele>
        <time>2022-10-15T07:16:36Z</time>
      </trkpt>
      <trkpt lat="44.59081" lon="0.68682">
        <ele>139.5</ele>
        <time>2022-10-15T07:16:40Z</time>
      </trkpt>
      <trkpt lat="44.59077" lon="0.68688">
        <ele>139.6</ele>
        <time>2022-10-15T07:16:41Z</time>
      </trkpt>
      <trkpt lat="44.59054" lon="0.68725">
        <ele>139</ele>
        <time>2022-10-15T07:16:47Z</time>
      </trkpt>
      <trkpt lat="44.5904" lon="0.68744">
        <ele>138.6</ele>
        <time>2022-10-15T07:16:50Z</time>
      </trkpt>
      <trkpt lat="44.5903" lon="0.68755">
        <ele>138.1</ele>
        <time>2022-10-15T07:16:52Z</time>
      </trkpt>
      <trkpt lat="44.59015" lon="0.68767">
        <ele>138</ele>
        <time>2022-10-15T07:16:55Z</time>
      </trkpt>
      <trkpt lat="44.59011" lon="0.68773">
        <ele>137.7</ele>
        <time>2022-10-15T07:16:56Z</time>
      </trkpt>
      <trkpt lat="44.59006" lon="0.68779">
        <ele>137.4</ele>
        <time>2022-10-15T07:16:57Z</time>
      </trkpt>
      <trkpt lat="44.58996" lon="0.68786">
        <ele>136.7</ele>
        <time>2022-10-15T07:16:59Z</time>
      </trkpt>
      <trkpt lat="44.5898" lon="0.68805">
        <ele>136.1</ele>
        <time>2022-10-15T07:17:03Z</time>
      </trkpt>
      <trkpt lat="44.58976" lon="0.6881">
        <ele>136.2</ele>
        <time>2022-10-15T07:17:04Z</time>
      </trkpt>
      <trkpt lat="44.58967" lon="0.68819">
        <ele>135.6</ele>
        <time>2022-10-15T07:17:07Z</time>
      </trkpt>
      <trkpt lat="44.58951" lon="0.6884">
        <ele>135</ele>
        <time>2022-10-15T07:17:13Z</time>
      </trkpt>
      <trkpt lat="44.58945" lon="0.68848">
        <ele>135</ele>
        <time>2022-10-15T07:17:15Z</time>
      </trkpt>
      <trkpt lat="44.58935" lon="0.68861">
        <ele>134.6</ele>
        <time>2022-10-15T07:17:18Z</time>
      </trkpt>
      <trkpt lat="44.58927" lon="0.68868">
        <ele>134.7</ele>
        <time>2022-10-15T07:17:20Z</time>
      </trkpt>
      <trkpt lat="44.58919" lon="0.68882">
        <ele>134.2</ele>
        <time>2022-10-15T07:17:23Z</time>
      </trkpt>
      <trkpt lat="44.58916" lon="0.68887">
        <ele>134.3</ele>
        <time>2022-10-15T07:17:24Z</time>
      </trkpt>
      <trkpt lat="44.58908" lon="0.68896">
        <ele>133.5</ele>
        <time>2022-10-15T07:17:26Z</time>
      </trkpt>
      <trkpt lat="44.589" lon="0.68903">
        <ele>133.2</ele>
        <time>2022-10-15T07:17:28Z</time>
      </trkpt>
      <trkpt lat="44.58874" lon="0.68932">
        <ele>131.4</ele>
        <time>2022-10-15T07:17:34Z</time>
      </trkpt>
      <trkpt lat="44.58859" lon="0.68946">
        <ele>130.5</ele>
        <time>2022-10-15T07:17:37Z</time>
      </trkpt>
      <trkpt lat="44.58848" lon="0.68954">
        <ele>129.8</ele>
        <time>2022-10-15T07:17:39Z</time>
      </trkpt>
      <trkpt lat="44.58836" lon="0.68961">
        <ele>128.8</ele>
        <time>2022-10-15T07:17:41Z</time>
      </trkpt>
      <trkpt lat="44.58824" lon="0.68973">
        <ele>128.2</ele>
        <time>2022-10-15T07:17:43Z</time>
      </trkpt>
      <trkpt lat="44.58797" lon="0.69003">
        <ele>125.9</ele>
        <time>2022-10-15T07:17:48Z</time>
      </trkpt>
      <trkpt lat="44.58791" lon="0.69009">
        <ele>125.6</ele>
        <time>2022-10-15T07:17:49Z</time>
      </trkpt>
      <trkpt lat="44.58776" lon="0.69029">
        <ele>124.4</ele>
        <time>2022-10-15T07:17:52Z</time>
      </trkpt>
      <trkpt lat="44.58754" lon="0.69059">
        <ele>123.9</ele>
        <time>2022-10-15T07:17:57Z</time>
      </trkpt>
      <trkpt lat="44.5875" lon="0.69065">
        <ele>123.3</ele>
        <time>2022-10-15T07:17:58Z</time>
      </trkpt>
      <trkpt lat="44.58743" lon="0.69078">
        <ele>122.9</ele>
        <time>2022-10-15T07:18:00Z</time>
      </trkpt>
      <trkpt lat="44.58739" lon="0.69084">
        <ele>123.2</ele>
        <time>2022-10-15T07:18:01Z</time>
      </trkpt>
      <trkpt lat="44.58735" lon="0.69088">
        <ele>123.3</ele>
        <time>2022-10-15T07:18:02Z</time>
      </trkpt>
      <trkpt lat="44.58726" lon="0.69095">
        <ele>124</ele>
        <time>2022-10-15T07:18:04Z</time>
      </trkpt>
      <trkpt lat="44.58724" lon="0.69099">
        <ele>124.2</ele>
        <time>2022-10-15T07:18:05Z</time>
      </trkpt>
      <trkpt lat="44.58716" lon="0.69112">
        <ele>125.1</ele>
        <time>2022-10-15T07:18:09Z</time>
      </trkpt>
      <trkpt lat="44.58707" lon="0.69131">
        <ele>124.8</ele>
        <time>2022-10-15T07:18:15Z</time>
      </trkpt>
      <trkpt lat="44.58697" lon="0.69155">
        <ele>125.5</ele>
        <time>2022-10-15T07:18:22Z</time>
      </trkpt>
      <trkpt lat="44.58684" lon="0.69178">
        <ele>126</ele>
        <time>2022-10-15T07:18:29Z</time>
      </trkpt>
      <trkpt lat="44.58674" lon="0.69196">
        <ele>126.4</ele>
        <time>2022-10-15T07:18:35Z</time>
      </trkpt>
      <trkpt lat="44.58665" lon="0.69214">
        <ele>127.3</ele>
        <time>2022-10-15T07:18:40Z</time>
      </trkpt>
      <trkpt lat="44.58655" lon="0.69233">
        <ele>127.1</ele>
        <time>2022-10-15T07:18:45Z</time>
      </trkpt>
      <trkpt lat="44.58643" lon="0.69251">
        <ele>127.9</ele>
        <time>2022-10-15T07:18:50Z</time>
      </trkpt>
      <trkpt lat="44.58632" lon="0.6927">
        <ele>127.9</ele>
        <time>2022-10-15T07:18:55Z</time>
      </trkpt>
      <trkpt lat="44.58617" lon="0.69292">
        <ele>129.7</ele>
        <time>2022-10-15T07:19:01Z</time>
      </trkpt>
      <trkpt lat="44.58605" lon="0.69314">
        <ele>130.3</ele>
        <time>2022-10-15T07:19:06Z</time>
      </trkpt>
      <trkpt lat="44.58583" lon="0.69345">
        <ele>130.8</ele>
        <time>2022-10-15T07:19:14Z</time>
      </trkpt>
      <trkpt lat="44.58552" lon="0.69383">
        <ele>133.9</ele>
        <time>2022-10-15T07:19:25Z</time>
      </trkpt>
      <trkpt lat="44.58532" lon="0.69412">
        <ele>137</ele>
        <time>2022-10-15T07:19:33Z</time>
      </trkpt>
      <trkpt lat="44.58512" lon="0.69433">
        <ele>138.5</ele>
        <time>2022-10-15T07:19:40Z</time>
      </trkpt>
      <trkpt lat="44.58493" lon="0.69449">
        <ele>139.8</ele>
        <time>2022-10-15T07:19:47Z</time>
      </trkpt>
      <trkpt lat="44.58479" lon="0.69459">
        <ele>140.8</ele>
        <time>2022-10-15T07:19:53Z</time>
      </trkpt>
      <trkpt lat="44.58466" lon="0.69469">
        <ele>141.8</ele>
        <time>2022-10-15T07:19:59Z</time>
      </trkpt>
      <trkpt lat="44.58461" lon="0.69471">
        <ele>142.1</ele>
        <time>2022-10-15T07:20:01Z</time>
      </trkpt>
      <trkpt lat="44.58457" lon="0.6947">
        <ele>142.8</ele>
        <time>2022-10-15T07:20:03Z</time>
      </trkpt>
      <trkpt lat="44.58448" lon="0.69465">
        <ele>143.7</ele>
        <time>2022-10-15T07:20:08Z</time>
      </trkpt>
      <trkpt lat="44.58436" lon="0.69459">
        <ele>145.1</ele>
        <time>2022-10-15T07:20:14Z</time>
      </trkpt>
      <trkpt lat="44.58428" lon="0.69453">
        <ele>146.1</ele>
        <time>2022-10-15T07:20:19Z</time>
      </trkpt>
      <trkpt lat="44.58421" lon="0.69446">
        <ele>146.9</ele>
        <time>2022-10-15T07:20:23Z</time>
      </trkpt>
      <trkpt lat="44.5842" lon="0.69442">
        <ele>147</ele>
        <time>2022-10-15T07:20:24Z</time>
      </trkpt>
      <trkpt lat="44.58422" lon="0.69435">
        <ele>147.3</ele>
        <time>2022-10-15T07:20:26Z</time>
      </trkpt>
      <trkpt lat="44.58429" lon="0.6942">
        <ele>147.3</ele>
        <time>2022-10-15T07:20:30Z</time>
      </trkpt>
      <trkpt lat="44.58432" lon="0.69413">
        <ele>147.1</ele>
        <time>2022-10-15T07:20:32Z</time>
      </trkpt>
      <trkpt lat="44.58432" lon="0.69407">
        <ele>146.8</ele>
        <time>2022-10-15T07:20:33Z</time>
      </trkpt>
      <trkpt lat="44.5843" lon="0.69403">
        <ele>146.6</ele>
        <time>2022-10-15T07:20:34Z</time>
      </trkpt>
      <trkpt lat="44.58426" lon="0.69397">
        <ele>146.1</ele>
        <time>2022-10-15T07:20:36Z</time>
      </trkpt>
      <trkpt lat="44.58407" lon="0.69389">
        <ele>145.2</ele>
        <time>2022-10-15T07:20:41Z</time>
      </trkpt>
      <trkpt lat="44.5839" lon="0.69388">
        <ele>145.7</ele>
        <time>2022-10-15T07:20:46Z</time>
      </trkpt>
      <trkpt lat="44.58375" lon="0.6939">
        <ele>147.4</ele>
        <time>2022-10-15T07:20:52Z</time>
      </trkpt>
      <trkpt lat="44.58366" lon="0.69391">
        <ele>148.6</ele>
        <time>2022-10-15T07:20:57Z</time>
      </trkpt>
      <trkpt lat="44.58364" lon="0.69391">
        <ele>148.8</ele>
        <time>2022-10-15T07:20:58Z</time>
      </trkpt>
      <trkpt lat="44.58356" lon="0.69394">
        <ele>149.9</ele>
        <time>2022-10-15T07:21:02Z</time>
      </trkpt>
      <trkpt lat="44.58352" lon="0.69393">
        <ele>150.3</ele>
        <time>2022-10-15T07:21:04Z</time>
      </trkpt>
      <trkpt lat="44.58349" lon="0.6939">
        <ele>150.7</ele>
        <time>2022-10-15T07:21:06Z</time>
      </trkpt>
      <trkpt lat="44.58344" lon="0.69382">
        <ele>151.3</ele>
        <time>2022-10-15T07:21:10Z</time>
      </trkpt>
      <trkpt lat="44.58342" lon="0.69377">
        <ele>151.6</ele>
        <time>2022-10-15T07:21:12Z</time>
      </trkpt>
      <trkpt lat="44.58339" lon="0.6937">
        <ele>152</ele>
        <time>2022-10-15T07:21:15Z</time>
      </trkpt>
      <trkpt lat="44.58334" lon="0.69357">
        <ele>152.6</ele>
        <time>2022-10-15T07:21:19Z</time>
      </trkpt>
      <trkpt lat="44.58332" lon="0.69355">
        <ele>152.8</ele>
        <time>2022-10-15T07:21:20Z</time>
      </trkpt>
      <trkpt lat="44.58332" lon="0.6935">
        <ele>153</ele>
        <time>2022-10-15T07:21:22Z</time>
      </trkpt>
      <trkpt lat="44.58331" lon="0.69344">
        <ele>153.2</ele>
        <time>2022-10-15T07:21:24Z</time>
      </trkpt>
      <trkpt lat="44.58331" lon="0.69338">
        <ele>153.5</ele>
        <time>2022-10-15T07:21:26Z</time>
      </trkpt>
      <trkpt lat="44.58331" lon="0.69332">
        <ele>153.8</ele>
        <time>2022-10-15T07:21:28Z</time>
      </trkpt>
      <trkpt lat="44.5833" lon="0.69325">
        <ele>154</ele>
        <time>2022-10-15T07:21:30Z</time>
      </trkpt>
      <trkpt lat="44.5833" lon="0.69319">
        <ele>154.2</ele>
        <time>2022-10-15T07:21:32Z</time>
      </trkpt>
      <trkpt lat="44.5833" lon="0.69301">
        <ele>154.6</ele>
        <time>2022-10-15T07:21:37Z</time>
      </trkpt>
      <trkpt lat="44.58329" lon="0.69286">
        <ele>155.1</ele>
        <time>2022-10-15T07:21:41Z</time>
      </trkpt>
      <trkpt lat="44.58331" lon="0.69263">
        <ele>156</ele>
        <time>2022-10-15T07:21:46Z</time>
      </trkpt>
      <trkpt lat="44.58336" lon="0.6924">
        <ele>156.9</ele>
        <time>2022-10-15T07:21:51Z</time>
      </trkpt>
      <trkpt lat="44.5834" lon="0.69216">
        <ele>157.7</ele>
        <time>2022-10-15T07:21:56Z</time>
      </trkpt>
      <trkpt lat="44.58344" lon="0.69194">
        <ele>158.4</ele>
        <time>2022-10-15T07:22:01Z</time>
      </trkpt>
      <trkpt lat="44.58347" lon="0.69174">
        <ele>159</ele>
        <time>2022-10-15T07:22:05Z</time>
      </trkpt>
      <trkpt lat="44.58349" lon="0.69145">
        <ele>159.9</ele>
        <time>2022-10-15T07:22:11Z</time>
      </trkpt>
      <trkpt lat="44.5835" lon="0.69122">
        <ele>160.8</ele>
        <time>2022-10-15T07:22:16Z</time>
      </trkpt>
      <trkpt lat="44.58346" lon="0.69099">
        <ele>161.6</ele>
        <time>2022-10-15T07:22:21Z</time>
      </trkpt>
      <trkpt lat="44.58338" lon="0.69081">
        <ele>161.9</ele>
        <time>2022-10-15T07:22:26Z</time>
      </trkpt>
      <trkpt lat="44.58326" lon="0.69056">
        <ele>161.7</ele>
        <time>2022-10-15T07:22:31Z</time>
      </trkpt>
      <trkpt lat="44.58312" lon="0.6903">
        <ele>161.1</ele>
        <time>2022-10-15T07:22:35Z</time>
      </trkpt>
      <trkpt lat="44.58305" lon="0.69018">
        <ele>160.7</ele>
        <time>2022-10-15T07:22:37Z</time>
      </trkpt>
      <trkpt lat="44.58296" lon="0.69009">
        <ele>160.4</ele>
        <time>2022-10-15T07:22:39Z</time>
      </trkpt>
      <trkpt lat="44.58281" lon="0.69">
        <ele>159.8</ele>
        <time>2022-10-15T07:22:42Z</time>
      </trkpt>
      <trkpt lat="44.58272" lon="0.68993">
        <ele>159.3</ele>
        <time>2022-10-15T07:22:44Z</time>
      </trkpt>
      <trkpt lat="44.58262" lon="0.6897">
        <ele>157.2</ele>
        <time>2022-10-15T07:22:47Z</time>
      </trkpt>
      <trkpt lat="44.58252" lon="0.6893">
        <ele>154.4</ele>
        <time>2022-10-15T07:22:51Z</time>
      </trkpt>
      <trkpt lat="44.58239" lon="0.68886">
        <ele>152.8</ele>
        <time>2022-10-15T07:22:56Z</time>
      </trkpt>
      <trkpt lat="44.58224" lon="0.68845">
        <ele>152.5</ele>
        <time>2022-10-15T07:23:02Z</time>
      </trkpt>
      <trkpt lat="44.58211" lon="0.68812">
        <ele>154.2</ele>
        <time>2022-10-15T07:23:08Z</time>
      </trkpt>
      <trkpt lat="44.582" lon="0.6879">
        <ele>155.5</ele>
        <time>2022-10-15T07:23:13Z</time>
      </trkpt>
      <trkpt lat="44.58189" lon="0.68778">
        <ele>156.3</ele>
        <time>2022-10-15T07:23:17Z</time>
      </trkpt>
      <trkpt lat="44.58179" lon="0.68764">
        <ele>157.1</ele>
        <time>2022-10-15T07:23:22Z</time>
      </trkpt>
      <trkpt lat="44.58171" lon="0.68753">
        <ele>157.7</ele>
        <time>2022-10-15T07:23:26Z</time>
      </trkpt>
      <trkpt lat="44.58165" lon="0.68742">
        <ele>158.3</ele>
        <time>2022-10-15T07:23:31Z</time>
      </trkpt>
      <trkpt lat="44.58163" lon="0.68739">
        <ele>158.5</ele>
        <time>2022-10-15T07:23:32Z</time>
      </trkpt>
      <trkpt lat="44.58158" lon="0.68734">
        <ele>158.9</ele>
        <time>2022-10-15T07:23:35Z</time>
      </trkpt>
      <trkpt lat="44.58151" lon="0.68726">
        <ele>159.6</ele>
        <time>2022-10-15T07:23:40Z</time>
      </trkpt>
      <trkpt lat="44.58139" lon="0.68714">
        <ele>160.6</ele>
        <time>2022-10-15T07:23:46Z</time>
      </trkpt>
      <trkpt lat="44.5813" lon="0.68703">
        <ele>160.9</ele>
        <time>2022-10-15T07:23:52Z</time>
      </trkpt>
      <trkpt lat="44.58119" lon="0.68691">
        <ele>160.3</ele>
        <time>2022-10-15T07:23:56Z</time>
      </trkpt>
      <trkpt lat="44.58115" lon="0.68689">
        <ele>159.5</ele>
        <time>2022-10-15T07:23:57Z</time>
      </trkpt>
      <trkpt lat="44.58112" lon="0.68692">
        <ele>159.5</ele>
        <time>2022-10-15T07:23:58Z</time>
      </trkpt>
      <trkpt lat="44.58109" lon="0.68695">
        <ele>159.4</ele>
        <time>2022-10-15T07:23:59Z</time>
      </trkpt>
      <trkpt lat="44.58096" lon="0.68715">
        <ele>158.8</ele>
        <time>2022-10-15T07:24:03Z</time>
      </trkpt>
      <trkpt lat="44.58072" lon="0.6875">
        <ele>157.8</ele>
        <time>2022-10-15T07:24:09Z</time>
      </trkpt>
      <trkpt lat="44.58034" lon="0.68809">
        <ele>156.6</ele>
        <time>2022-10-15T07:24:18Z</time>
      </trkpt>
      <trkpt lat="44.57999" lon="0.6887">
        <ele>156</ele>
        <time>2022-10-15T07:24:27Z</time>
      </trkpt>
      <trkpt lat="44.57986" lon="0.68915">
        <ele>155.9</ele>
        <time>2022-10-15T07:24:33Z</time>
      </trkpt>
      <trkpt lat="44.57971" lon="0.68969">
        <ele>155.5</ele>
        <time>2022-10-15T07:24:40Z</time>
      </trkpt>
      <trkpt lat="44.57945" lon="0.69016">
        <ele>155.1</ele>
        <time>2022-10-15T07:24:47Z</time>
      </trkpt>
      <trkpt lat="44.57918" lon="0.69057">
        <ele>154.5</ele>
        <time>2022-10-15T07:24:54Z</time>
      </trkpt>
      <trkpt lat="44.57893" lon="0.69095">
        <ele>154</ele>
        <time>2022-10-15T07:25:00Z</time>
      </trkpt>
      <trkpt lat="44.57873" lon="0.69125">
        <ele>153.4</ele>
        <time>2022-10-15T07:25:05Z</time>
      </trkpt>
      <trkpt lat="44.5787" lon="0.69132">
        <ele>153.4</ele>
        <time>2022-10-15T07:25:06Z</time>
      </trkpt>
      <trkpt lat="44.57855" lon="0.69175">
        <ele>153.6</ele>
        <time>2022-10-15T07:25:12Z</time>
      </trkpt>
      <trkpt lat="44.57839" lon="0.69225">
        <ele>153.8</ele>
        <time>2022-10-15T07:25:19Z</time>
      </trkpt>
      <trkpt lat="44.57836" lon="0.69232">
        <ele>153.8</ele>
        <time>2022-10-15T07:25:20Z</time>
      </trkpt>
      <trkpt lat="44.57808" lon="0.69294">
        <ele>154.1</ele>
        <time>2022-10-15T07:25:29Z</time>
      </trkpt>
      <trkpt lat="44.57799" lon="0.69314">
        <ele>154.2</ele>
        <time>2022-10-15T07:25:32Z</time>
      </trkpt>
      <trkpt lat="44.57787" lon="0.6934">
        <ele>154.3</ele>
        <time>2022-10-15T07:25:36Z</time>
      </trkpt>
      <trkpt lat="44.57762" lon="0.69391">
        <ele>154.6</ele>
        <time>2022-10-15T07:25:45Z</time>
      </trkpt>
      <trkpt lat="44.57747" lon="0.69425">
        <ele>154.8</ele>
        <time>2022-10-15T07:25:52Z</time>
      </trkpt>
      <trkpt lat="44.57748" lon="0.6943">
        <ele>154.9</ele>
        <time>2022-10-15T07:25:53Z</time>
      </trkpt>
      <trkpt lat="44.57753" lon="0.69435">
        <ele>155.1</ele>
        <time>2022-10-15T07:25:55Z</time>
      </trkpt>
      <trkpt lat="44.57768" lon="0.6944">
        <ele>155.5</ele>
        <time>2022-10-15T07:25:59Z</time>
      </trkpt>
      <trkpt lat="44.57776" lon="0.69444">
        <ele>155.6</ele>
        <time>2022-10-15T07:26:01Z</time>
      </trkpt>
      <trkpt lat="44.578" lon="0.69461">
        <ele>155.3</ele>
        <time>2022-10-15T07:26:07Z</time>
      </trkpt>
      <trkpt lat="44.57805" lon="0.6947">
        <ele>155.1</ele>
        <time>2022-10-15T07:26:09Z</time>
      </trkpt>
      <trkpt lat="44.57807" lon="0.69477">
        <ele>154.9</ele>
        <time>2022-10-15T07:26:10Z</time>
      </trkpt>
      <trkpt lat="44.57807" lon="0.69483">
        <ele>154.7</ele>
        <time>2022-10-15T07:26:11Z</time>
      </trkpt>
      <trkpt lat="44.57807" lon="0.69495">
        <ele>154.2</ele>
        <time>2022-10-15T07:26:13Z</time>
      </trkpt>
      <trkpt lat="44.57808" lon="0.69501">
        <ele>153.9</ele>
        <time>2022-10-15T07:26:14Z</time>
      </trkpt>
      <trkpt lat="44.5781" lon="0.69507">
        <ele>153.5</ele>
        <time>2022-10-15T07:26:15Z</time>
      </trkpt>
      <trkpt lat="44.57818" lon="0.69518">
        <ele>152.7</ele>
        <time>2022-10-15T07:26:17Z</time>
      </trkpt>
      <trkpt lat="44.57844" lon="0.69547">
        <ele>150</ele>
        <time>2022-10-15T07:26:22Z</time>
      </trkpt>
      <trkpt lat="44.57889" lon="0.69597">
        <ele>146.5</ele>
        <time>2022-10-15T07:26:29Z</time>
      </trkpt>
      <trkpt lat="44.5792" lon="0.6963">
        <ele>143.8</ele>
        <time>2022-10-15T07:26:34Z</time>
      </trkpt>
      <trkpt lat="44.57946" lon="0.6966">
        <ele>142</ele>
        <time>2022-10-15T07:26:38Z</time>
      </trkpt>
      <trkpt lat="44.57952" lon="0.69665">
        <ele>141.7</ele>
        <time>2022-10-15T07:26:39Z</time>
      </trkpt>
      <trkpt lat="44.57959" lon="0.69669">
        <ele>141.3</ele>
        <time>2022-10-15T07:26:40Z</time>
      </trkpt>
      <trkpt lat="44.57975" lon="0.69672">
        <ele>140.2</ele>
        <time>2022-10-15T07:26:42Z</time>
      </trkpt>
      <trkpt lat="44.57991" lon="0.6967">
        <ele>139.2</ele>
        <time>2022-10-15T07:26:44Z</time>
      </trkpt>
      <trkpt lat="44.58" lon="0.6967">
        <ele>138.8</ele>
        <time>2022-10-15T07:26:45Z</time>
      </trkpt>
      <trkpt lat="44.58041" lon="0.69669">
        <ele>137.5</ele>
        <time>2022-10-15T07:26:50Z</time>
      </trkpt>
      <trkpt lat="44.58082" lon="0.69655">
        <ele>135.8</ele>
        <time>2022-10-15T07:26:55Z</time>
      </trkpt>
      <trkpt lat="44.58115" lon="0.69651">
        <ele>135</ele>
        <time>2022-10-15T07:26:59Z</time>
      </trkpt>
      <trkpt lat="44.58132" lon="0.69654">
        <ele>133.9</ele>
        <time>2022-10-15T07:27:01Z</time>
      </trkpt>
      <trkpt lat="44.58149" lon="0.69663">
        <ele>132.9</ele>
        <time>2022-10-15T07:27:03Z</time>
      </trkpt>
      <trkpt lat="44.58189" lon="0.69691">
        <ele>131.6</ele>
        <time>2022-10-15T07:27:08Z</time>
      </trkpt>
      <trkpt lat="44.58201" lon="0.697">
        <ele>131.8</ele>
        <time>2022-10-15T07:27:10Z</time>
      </trkpt>
      <trkpt lat="44.58204" lon="0.69706">
        <ele>131.5</ele>
        <time>2022-10-15T07:27:11Z</time>
      </trkpt>
      <trkpt lat="44.58205" lon="0.69712">
        <ele>131.2</ele>
        <time>2022-10-15T07:27:12Z</time>
      </trkpt>
      <trkpt lat="44.58203" lon="0.69719">
        <ele>130.8</ele>
        <time>2022-10-15T07:27:13Z</time>
      </trkpt>
      <trkpt lat="44.58199" lon="0.69736">
        <ele>130</ele>
        <time>2022-10-15T07:27:15Z</time>
      </trkpt>
      <trkpt lat="44.58194" lon="0.69763">
        <ele>129.1</ele>
        <time>2022-10-15T07:27:18Z</time>
      </trkpt>
      <trkpt lat="44.58191" lon="0.69791">
        <ele>128.5</ele>
        <time>2022-10-15T07:27:21Z</time>
      </trkpt>
      <trkpt lat="44.58192" lon="0.698">
        <ele>128.4</ele>
        <time>2022-10-15T07:27:22Z</time>
      </trkpt>
      <trkpt lat="44.58193" lon="0.69808">
        <ele>128.2</ele>
        <time>2022-10-15T07:27:23Z</time>
      </trkpt>
      <trkpt lat="44.58204" lon="0.69842">
        <ele>127.4</ele>
        <time>2022-10-15T07:27:27Z</time>
      </trkpt>
      <trkpt lat="44.58226" lon="0.69908">
        <ele>124.9</ele>
        <time>2022-10-15T07:27:34Z</time>
      </trkpt>
      <trkpt lat="44.58239" lon="0.69955">
        <ele>123.3</ele>
        <time>2022-10-15T07:27:39Z</time>
      </trkpt>
      <trkpt lat="44.58259" lon="0.70014">
        <ele>121.2</ele>
        <time>2022-10-15T07:27:46Z</time>
      </trkpt>
      <trkpt lat="44.58274" lon="0.70055">
        <ele>120</ele>
        <time>2022-10-15T07:27:51Z</time>
      </trkpt>
      <trkpt lat="44.58294" lon="0.70117">
        <ele>118.2</ele>
        <time>2022-10-15T07:27:58Z</time>
      </trkpt>
      <trkpt lat="44.58303" lon="0.70144">
        <ele>117.4</ele>
        <time>2022-10-15T07:28:01Z</time>
      </trkpt>
      <trkpt lat="44.58302" lon="0.70164">
        <ele>116.7</ele>
        <time>2022-10-15T07:28:03Z</time>
      </trkpt>
      <trkpt lat="44.583" lon="0.70182">
        <ele>115.7</ele>
        <time>2022-10-15T07:28:05Z</time>
      </trkpt>
      <trkpt lat="44.58301" lon="0.70192">
        <ele>115.3</ele>
        <time>2022-10-15T07:28:06Z</time>
      </trkpt>
      <trkpt lat="44.58302" lon="0.70201">
        <ele>114.9</ele>
        <time>2022-10-15T07:28:07Z</time>
      </trkpt>
      <trkpt lat="44.58314" lon="0.70246">
        <ele>113.5</ele>
        <time>2022-10-15T07:28:12Z</time>
      </trkpt>
      <trkpt lat="44.5832" lon="0.70273">
        <ele>112.7</ele>
        <time>2022-10-15T07:28:15Z</time>
      </trkpt>
      <trkpt lat="44.5832" lon="0.70291">
        <ele>112.3</ele>
        <time>2022-10-15T07:28:17Z</time>
      </trkpt>
      <trkpt lat="44.58318" lon="0.70309">
        <ele>111.9</ele>
        <time>2022-10-15T07:28:19Z</time>
      </trkpt>
      <trkpt lat="44.58311" lon="0.70335">
        <ele>111.3</ele>
        <time>2022-10-15T07:28:22Z</time>
      </trkpt>
      <trkpt lat="44.58305" lon="0.70371">
        <ele>110.8</ele>
        <time>2022-10-15T07:28:26Z</time>
      </trkpt>
      <trkpt lat="44.58305" lon="0.70381">
        <ele>110.6</ele>
        <time>2022-10-15T07:28:27Z</time>
      </trkpt>
      <trkpt lat="44.58311" lon="0.70438">
        <ele>109.9</ele>
        <time>2022-10-15T07:28:33Z</time>
      </trkpt>
      <trkpt lat="44.58315" lon="0.70452">
        <ele>110.1</ele>
        <time>2022-10-15T07:28:35Z</time>
      </trkpt>
      <trkpt lat="44.58317" lon="0.70455">
        <ele>110.2</ele>
        <time>2022-10-15T07:28:36Z</time>
      </trkpt>
      <trkpt lat="44.58319" lon="0.70457">
        <ele>110.3</ele>
        <time>2022-10-15T07:28:37Z</time>
      </trkpt>
      <trkpt lat="44.58322" lon="0.70457">
        <ele>110.3</ele>
        <time>2022-10-15T07:28:40Z</time>
      </trkpt>
      <trkpt lat="44.58323" lon="0.70458">
        <ele>110.3</ele>
        <time>2022-10-15T07:28:42Z</time>
      </trkpt>
      <trkpt lat="44.58326" lon="0.70458">
        <ele>110.4</ele>
        <time>2022-10-15T07:29:33Z</time>
      </trkpt>
      <trkpt lat="44.58327" lon="0.7046">
        <ele>110.4</ele>
        <time>2022-10-15T07:29:34Z</time>
      </trkpt>
      <trkpt lat="44.58333" lon="0.70476">
        <ele>110.5</ele>
        <time>2022-10-15T07:29:38Z</time>
      </trkpt>
      <trkpt lat="44.58338" lon="0.70488">
        <ele>110.9</ele>
        <time>2022-10-15T07:29:41Z</time>
      </trkpt>
      <trkpt lat="44.58345" lon="0.70501">
        <ele>111.5</ele>
        <time>2022-10-15T07:29:44Z</time>
      </trkpt>
      <trkpt lat="44.58357" lon="0.70525">
        <ele>113.4</ele>
        <time>2022-10-15T07:29:50Z</time>
      </trkpt>
      <trkpt lat="44.58366" lon="0.70541">
        <ele>115</ele>
        <time>2022-10-15T07:29:56Z</time>
      </trkpt>
      <trkpt lat="44.58376" lon="0.70556">
        <ele>116.6</ele>
        <time>2022-10-15T07:30:02Z</time>
      </trkpt>
      <trkpt lat="44.58383" lon="0.70568">
        <ele>118.2</ele>
        <time>2022-10-15T07:30:08Z</time>
      </trkpt>
      <trkpt lat="44.58388" lon="0.70575">
        <ele>119.3</ele>
        <time>2022-10-15T07:30:14Z</time>
      </trkpt>
      <trkpt lat="44.58393" lon="0.70583">
        <ele>120.7</ele>
        <time>2022-10-15T07:30:20Z</time>
      </trkpt>
      <trkpt lat="44.584" lon="0.70597">
        <ele>122.8</ele>
        <time>2022-10-15T07:30:29Z</time>
      </trkpt>
      <trkpt lat="44.58401" lon="0.70598">
        <ele>123</ele>
        <time>2022-10-15T07:30:30Z</time>
      </trkpt>
      <trkpt lat="44.58407" lon="0.70603">
        <ele>124.1</ele>
        <time>2022-10-15T07:30:35Z</time>
      </trkpt>
      <trkpt lat="44.58411" lon="0.70604">
        <ele>124.7</ele>
        <time>2022-10-15T07:30:38Z</time>
      </trkpt>
      <trkpt lat="44.58413" lon="0.70603">
        <ele>125</ele>
        <time>2022-10-15T07:30:40Z</time>
      </trkpt>
      <trkpt lat="44.5842" lon="0.70602">
        <ele>126.2</ele>
        <time>2022-10-15T07:30:46Z</time>
      </trkpt>
      <trkpt lat="44.58429" lon="0.70601">
        <ele>127.1</ele>
        <time>2022-10-15T07:30:52Z</time>
      </trkpt>
      <trkpt lat="44.58441" lon="0.70605">
        <ele>127.9</ele>
        <time>2022-10-15T07:30:58Z</time>
      </trkpt>
      <trkpt lat="44.58447" lon="0.70616">
        <ele>128.5</ele>
        <time>2022-10-15T07:31:03Z</time>
      </trkpt>
      <trkpt lat="44.5845" lon="0.70621">
        <ele>128.7</ele>
        <time>2022-10-15T07:31:05Z</time>
      </trkpt>
      <trkpt lat="44.58453" lon="0.70629">
        <ele>128.9</ele>
        <time>2022-10-15T07:31:07Z</time>
      </trkpt>
      <trkpt lat="44.58459" lon="0.70642">
        <ele>129.4</ele>
        <time>2022-10-15T07:31:11Z</time>
      </trkpt>
      <trkpt lat="44.58468" lon="0.70662">
        <ele>129.8</ele>
        <time>2022-10-15T07:31:17Z</time>
      </trkpt>
      <trkpt lat="44.58476" lon="0.70681">
        <ele>130.1</ele>
        <time>2022-10-15T07:31:22Z</time>
      </trkpt>
      <trkpt lat="44.58486" lon="0.70705">
        <ele>130.2</ele>
        <time>2022-10-15T07:31:28Z</time>
      </trkpt>
      <trkpt lat="44.585" lon="0.70724">
        <ele>130.3</ele>
        <time>2022-10-15T07:31:33Z</time>
      </trkpt>
      <trkpt lat="44.58514" lon="0.70743">
        <ele>130.1</ele>
        <time>2022-10-15T07:31:38Z</time>
      </trkpt>
      <trkpt lat="44.58532" lon="0.70757">
        <ele>130</ele>
        <time>2022-10-15T07:31:43Z</time>
      </trkpt>
      <trkpt lat="44.58555" lon="0.70771">
        <ele>129.6</ele>
        <time>2022-10-15T07:31:49Z</time>
      </trkpt>
      <trkpt lat="44.58559" lon="0.70773">
        <ele>129.5</ele>
        <time>2022-10-15T07:31:50Z</time>
      </trkpt>
      <trkpt lat="44.58585" lon="0.7079">
        <ele>129.3</ele>
        <time>2022-10-15T07:31:56Z</time>
      </trkpt>
      <trkpt lat="44.58609" lon="0.70808">
        <ele>129.2</ele>
        <time>2022-10-15T07:32:02Z</time>
      </trkpt>
      <trkpt lat="44.58642" lon="0.70833">
        <ele>129.4</ele>
        <time>2022-10-15T07:32:10Z</time>
      </trkpt>
      <trkpt lat="44.58658" lon="0.70845">
        <ele>129.5</ele>
        <time>2022-10-15T07:32:14Z</time>
      </trkpt>
      <trkpt lat="44.58662" lon="0.70849">
        <ele>129.5</ele>
        <time>2022-10-15T07:32:15Z</time>
      </trkpt>
      <trkpt lat="44.58678" lon="0.70864">
        <ele>129.6</ele>
        <time>2022-10-15T07:32:19Z</time>
      </trkpt>
      <trkpt lat="44.58687" lon="0.70867">
        <ele>129.7</ele>
        <time>2022-10-15T07:32:21Z</time>
      </trkpt>
      <trkpt lat="44.58691" lon="0.70865">
        <ele>129.7</ele>
        <time>2022-10-15T07:32:22Z</time>
      </trkpt>
      <trkpt lat="44.58695" lon="0.70862">
        <ele>129.7</ele>
        <time>2022-10-15T07:32:23Z</time>
      </trkpt>
      <trkpt lat="44.58711" lon="0.70848">
        <ele>129.8</ele>
        <time>2022-10-15T07:32:27Z</time>
      </trkpt>
      <trkpt lat="44.58728" lon="0.70834">
        <ele>130.2</ele>
        <time>2022-10-15T07:32:32Z</time>
      </trkpt>
      <trkpt lat="44.58748" lon="0.70819">
        <ele>130.7</ele>
        <time>2022-10-15T07:32:38Z</time>
      </trkpt>
      <trkpt lat="44.58765" lon="0.70806">
        <ele>131.7</ele>
        <time>2022-10-15T07:32:43Z</time>
      </trkpt>
      <trkpt lat="44.58785" lon="0.70786">
        <ele>132.5</ele>
        <time>2022-10-15T07:32:49Z</time>
      </trkpt>
      <trkpt lat="44.58804" lon="0.70762">
        <ele>133.4</ele>
        <time>2022-10-15T07:32:55Z</time>
      </trkpt>
      <trkpt lat="44.58813" lon="0.70748">
        <ele>133.4</ele>
        <time>2022-10-15T07:32:58Z</time>
      </trkpt>
      <trkpt lat="44.58819" lon="0.70732">
        <ele>133.4</ele>
        <time>2022-10-15T07:33:01Z</time>
      </trkpt>
      <trkpt lat="44.58832" lon="0.70688">
        <ele>132.8</ele>
        <time>2022-10-15T07:33:08Z</time>
      </trkpt>
      <trkpt lat="44.58834" lon="0.70681">
        <ele>132.9</ele>
        <time>2022-10-15T07:33:09Z</time>
      </trkpt>
      <trkpt lat="44.58834" lon="0.70657">
        <ele>132.5</ele>
        <time>2022-10-15T07:33:12Z</time>
      </trkpt>
      <trkpt lat="44.58832" lon="0.70628">
        <ele>131.7</ele>
        <time>2022-10-15T07:33:15Z</time>
      </trkpt>
      <trkpt lat="44.58832" lon="0.70617">
        <ele>131.3</ele>
        <time>2022-10-15T07:33:16Z</time>
      </trkpt>
      <trkpt lat="44.58833" lon="0.70606">
        <ele>131.4</ele>
        <time>2022-10-15T07:33:17Z</time>
      </trkpt>
      <trkpt lat="44.58839" lon="0.70587">
        <ele>131</ele>
        <time>2022-10-15T07:33:19Z</time>
      </trkpt>
      <trkpt lat="44.58847" lon="0.70571">
        <ele>131.1</ele>
        <time>2022-10-15T07:33:21Z</time>
      </trkpt>
      <trkpt lat="44.58857" lon="0.70561">
        <ele>131.6</ele>
        <time>2022-10-15T07:33:23Z</time>
      </trkpt>
      <trkpt lat="44.58883" lon="0.70543">
        <ele>132.8</ele>
        <time>2022-10-15T07:33:29Z</time>
      </trkpt>
      <trkpt lat="44.58897" lon="0.70528">
        <ele>133.4</ele>
        <time>2022-10-15T07:33:33Z</time>
      </trkpt>
      <trkpt lat="44.5891" lon="0.70532">
        <ele>133.9</ele>
        <time>2022-10-15T07:33:37Z</time>
      </trkpt>
      <trkpt lat="44.58926" lon="0.70532">
        <ele>134.9</ele>
        <time>2022-10-15T07:33:41Z</time>
      </trkpt>
      <trkpt lat="44.58936" lon="0.70529">
        <ele>134.9</ele>
        <time>2022-10-15T07:33:44Z</time>
      </trkpt>
      <trkpt lat="44.58939" lon="0.70531">
        <ele>135.5</ele>
        <time>2022-10-15T07:33:45Z</time>
      </trkpt>
      <trkpt lat="44.58955" lon="0.70534">
        <ele>136.2</ele>
        <time>2022-10-15T07:33:49Z</time>
      </trkpt>
      <trkpt lat="44.58975" lon="0.70536">
        <ele>137.3</ele>
        <time>2022-10-15T07:33:54Z</time>
      </trkpt>
      <trkpt lat="44.58998" lon="0.70538">
        <ele>137.9</ele>
        <time>2022-10-15T07:33:59Z</time>
      </trkpt>
      <trkpt lat="44.59013" lon="0.70531">
        <ele>139.1</ele>
        <time>2022-10-15T07:34:03Z</time>
      </trkpt>
      <trkpt lat="44.59023" lon="0.70517">
        <ele>139.7</ele>
        <time>2022-10-15T07:34:07Z</time>
      </trkpt>
      <trkpt lat="44.59041" lon="0.70482">
        <ele>140.2</ele>
        <time>2022-10-15T07:34:15Z</time>
      </trkpt>
      <trkpt lat="44.59057" lon="0.7045">
        <ele>140.6</ele>
        <time>2022-10-15T07:34:23Z</time>
      </trkpt>
      <trkpt lat="44.59065" lon="0.70422">
        <ele>140.9</ele>
        <time>2022-10-15T07:34:29Z</time>
      </trkpt>
      <trkpt lat="44.59072" lon="0.7039">
        <ele>141.3</ele>
        <time>2022-10-15T07:34:35Z</time>
      </trkpt>
      <trkpt lat="44.59081" lon="0.70353">
        <ele>141.1</ele>
        <time>2022-10-15T07:34:42Z</time>
      </trkpt>
      <trkpt lat="44.5909" lon="0.70315">
        <ele>140.9</ele>
        <time>2022-10-15T07:34:48Z</time>
      </trkpt>
      <trkpt lat="44.59096" lon="0.70289">
        <ele>140.3</ele>
        <time>2022-10-15T07:34:52Z</time>
      </trkpt>
      <trkpt lat="44.59099" lon="0.70286">
        <ele>140.2</ele>
        <time>2022-10-15T07:34:53Z</time>
      </trkpt>
      <trkpt lat="44.59103" lon="0.70285">
        <ele>140.1</ele>
        <time>2022-10-15T07:34:54Z</time>
      </trkpt>
      <trkpt lat="44.5911" lon="0.7029">
        <ele>139.9</ele>
        <time>2022-10-15T07:34:56Z</time>
      </trkpt>
      <trkpt lat="44.59125" lon="0.70298">
        <ele>139.6</ele>
        <time>2022-10-15T07:35:00Z</time>
      </trkpt>
      <trkpt lat="44.59128" lon="0.70297">
        <ele>139.6</ele>
        <time>2022-10-15T07:35:01Z</time>
      </trkpt>
      <trkpt lat="44.59131" lon="0.70295">
        <ele>139.6</ele>
        <time>2022-10-15T07:35:02Z</time>
      </trkpt>
      <trkpt lat="44.59137" lon="0.70281">
        <ele>139.7</ele>
        <time>2022-10-15T07:35:05Z</time>
      </trkpt>
      <trkpt lat="44.59155" lon="0.70246">
        <ele>139.9</ele>
        <time>2022-10-15T07:35:12Z</time>
      </trkpt>
      <trkpt lat="44.59157" lon="0.70241">
        <ele>140</ele>
        <time>2022-10-15T07:35:13Z</time>
      </trkpt>
      <trkpt lat="44.59171" lon="0.70217">
        <ele>140.3</ele>
        <time>2022-10-15T07:35:18Z</time>
      </trkpt>
      <trkpt lat="44.59183" lon="0.70201">
        <ele>140.4</ele>
        <time>2022-10-15T07:35:22Z</time>
      </trkpt>
      <trkpt lat="44.59187" lon="0.70197">
        <ele>140.5</ele>
        <time>2022-10-15T07:35:23Z</time>
      </trkpt>
      <trkpt lat="44.59206" lon="0.70176">
        <ele>140.5</ele>
        <time>2022-10-15T07:35:29Z</time>
      </trkpt>
      <trkpt lat="44.59229" lon="0.70152">
        <ele>139.9</ele>
        <time>2022-10-15T07:35:35Z</time>
      </trkpt>
      <trkpt lat="44.59234" lon="0.70149">
        <ele>139.7</ele>
        <time>2022-10-15T07:35:36Z</time>
      </trkpt>
      <trkpt lat="44.59263" lon="0.7013">
        <ele>138.9</ele>
        <time>2022-10-15T07:35:42Z</time>
      </trkpt>
      <trkpt lat="44.59292" lon="0.70113">
        <ele>138.4</ele>
        <time>2022-10-15T07:35:48Z</time>
      </trkpt>
      <trkpt lat="44.59325" lon="0.70092">
        <ele>139.2</ele>
        <time>2022-10-15T07:35:55Z</time>
      </trkpt>
      <trkpt lat="44.5933" lon="0.70088">
        <ele>139.2</ele>
        <time>2022-10-15T07:35:56Z</time>
      </trkpt>
      <trkpt lat="44.59347" lon="0.70073">
        <ele>139</ele>
        <time>2022-10-15T07:36:00Z</time>
      </trkpt>
      <trkpt lat="44.59382" lon="0.70048">
        <ele>137.9</ele>
        <time>2022-10-15T07:36:07Z</time>
      </trkpt>
      <trkpt lat="44.59415" lon="0.70032">
        <ele>137.6</ele>
        <time>2022-10-15T07:36:13Z</time>
      </trkpt>
      <trkpt lat="44.5942" lon="0.70031">
        <ele>137.6</ele>
        <time>2022-10-15T07:36:14Z</time>
      </trkpt>
      <trkpt lat="44.59447" lon="0.70029">
        <ele>138.4</ele>
        <time>2022-10-15T07:36:19Z</time>
      </trkpt>
      <trkpt lat="44.59483" lon="0.70023">
        <ele>139.1</ele>
        <time>2022-10-15T07:36:26Z</time>
      </trkpt>
      <trkpt lat="44.59512" lon="0.70011">
        <ele>139.8</ele>
        <time>2022-10-15T07:36:32Z</time>
      </trkpt>
      <trkpt lat="44.5955" lon="0.6999">
        <ele>140.3</ele>
        <time>2022-10-15T07:36:40Z</time>
      </trkpt>
      <trkpt lat="44.59574" lon="0.6997">
        <ele>140.8</ele>
        <time>2022-10-15T07:36:46Z</time>
      </trkpt>
      <trkpt lat="44.59581" lon="0.69962">
        <ele>140.9</ele>
        <time>2022-10-15T07:36:48Z</time>
      </trkpt>
      <trkpt lat="44.59605" lon="0.69937">
        <ele>140.9</ele>
        <time>2022-10-15T07:36:54Z</time>
      </trkpt>
      <trkpt lat="44.59634" lon="0.69906">
        <ele>141.2</ele>
        <time>2022-10-15T07:37:01Z</time>
      </trkpt>
      <trkpt lat="44.59665" lon="0.69876">
        <ele>142.1</ele>
        <time>2022-10-15T07:37:08Z</time>
      </trkpt>
      <trkpt lat="44.5969" lon="0.69849">
        <ele>143.7</ele>
        <time>2022-10-15T07:37:14Z</time>
      </trkpt>
      <trkpt lat="44.59718" lon="0.69827">
        <ele>145.5</ele>
        <time>2022-10-15T07:37:21Z</time>
      </trkpt>
      <trkpt lat="44.59743" lon="0.69812">
        <ele>146.8</ele>
        <time>2022-10-15T07:37:27Z</time>
      </trkpt>
      <trkpt lat="44.59768" lon="0.69803">
        <ele>147.9</ele>
        <time>2022-10-15T07:37:33Z</time>
      </trkpt>
      <trkpt lat="44.59798" lon="0.69796">
        <ele>149.2</ele>
        <time>2022-10-15T07:37:40Z</time>
      </trkpt>
      <trkpt lat="44.59834" lon="0.69786">
        <ele>150.3</ele>
        <time>2022-10-15T07:37:48Z</time>
      </trkpt>
      <trkpt lat="44.59864" lon="0.69774">
        <ele>151.1</ele>
        <time>2022-10-15T07:37:55Z</time>
      </trkpt>
      <trkpt lat="44.59881" lon="0.69766">
        <ele>151.6</ele>
        <time>2022-10-15T07:37:59Z</time>
      </trkpt>
      <trkpt lat="44.59888" lon="0.69761">
        <ele>151.8</ele>
        <time>2022-10-15T07:38:01Z</time>
      </trkpt>
      <trkpt lat="44.59892" lon="0.69758">
        <ele>151.9</ele>
        <time>2022-10-15T07:38:02Z</time>
      </trkpt>
      <trkpt lat="44.59909" lon="0.69749">
        <ele>152.4</ele>
        <time>2022-10-15T07:38:06Z</time>
      </trkpt>
      <trkpt lat="44.59933" lon="0.69737">
        <ele>152.8</ele>
        <time>2022-10-15T07:38:12Z</time>
      </trkpt>
      <trkpt lat="44.59937" lon="0.69734">
        <ele>152.9</ele>
        <time>2022-10-15T07:38:13Z</time>
      </trkpt>
      <trkpt lat="44.59961" lon="0.69716">
        <ele>153</ele>
        <time>2022-10-15T07:38:19Z</time>
      </trkpt>
      <trkpt lat="44.59985" lon="0.69694">
        <ele>152.5</ele>
        <time>2022-10-15T07:38:25Z</time>
      </trkpt>
      <trkpt lat="44.59989" lon="0.69689">
        <ele>152.3</ele>
        <time>2022-10-15T07:38:26Z</time>
      </trkpt>
      <trkpt lat="44.60015" lon="0.69649">
        <ele>150.8</ele>
        <time>2022-10-15T07:38:32Z</time>
      </trkpt>
      <trkpt lat="44.6005" lon="0.69584">
        <ele>150</ele>
        <time>2022-10-15T07:38:40Z</time>
      </trkpt>
      <trkpt lat="44.60082" lon="0.69521">
        <ele>150.4</ele>
        <time>2022-10-15T07:38:48Z</time>
      </trkpt>
      <trkpt lat="44.60106" lon="0.69456">
        <ele>151.5</ele>
        <time>2022-10-15T07:38:56Z</time>
      </trkpt>
      <trkpt lat="44.60128" lon="0.69402">
        <ele>151.8</ele>
        <time>2022-10-15T07:39:03Z</time>
      </trkpt>
      <trkpt lat="44.60159" lon="0.69355">
        <ele>151.9</ele>
        <time>2022-10-15T07:39:10Z</time>
      </trkpt>
      <trkpt lat="44.60191" lon="0.69317">
        <ele>152.3</ele>
        <time>2022-10-15T07:39:17Z</time>
      </trkpt>
      <trkpt lat="44.60228" lon="0.69271">
        <ele>151.7</ele>
        <time>2022-10-15T07:39:25Z</time>
      </trkpt>
      <trkpt lat="44.60269" lon="0.69213">
        <ele>151.8</ele>
        <time>2022-10-15T07:39:34Z</time>
      </trkpt>
      <trkpt lat="44.60285" lon="0.69186">
        <ele>151.5</ele>
        <time>2022-10-15T07:39:38Z</time>
      </trkpt>
      <trkpt lat="44.60295" lon="0.69174">
        <ele>151</ele>
        <time>2022-10-15T07:39:40Z</time>
      </trkpt>
      <trkpt lat="44.60331" lon="0.69128">
        <ele>149</ele>
        <time>2022-10-15T07:39:47Z</time>
      </trkpt>
      <trkpt lat="44.60376" lon="0.69078">
        <ele>146.6</ele>
        <time>2022-10-15T07:39:55Z</time>
      </trkpt>
      <trkpt lat="44.60412" lon="0.69058">
        <ele>145</ele>
        <time>2022-10-15T07:40:01Z</time>
      </trkpt>
      <trkpt lat="44.60453" lon="0.69042">
        <ele>143.2</ele>
        <time>2022-10-15T07:40:08Z</time>
      </trkpt>
      <trkpt lat="44.60469" lon="0.69037">
        <ele>142.5</ele>
        <time>2022-10-15T07:40:11Z</time>
      </trkpt>
      <trkpt lat="44.60478" lon="0.69033">
        <ele>142.1</ele>
        <time>2022-10-15T07:40:13Z</time>
      </trkpt>
      <trkpt lat="44.60483" lon="0.69031">
        <ele>141.9</ele>
        <time>2022-10-15T07:40:14Z</time>
      </trkpt>
      <trkpt lat="44.60492" lon="0.69027">
        <ele>141.5</ele>
        <time>2022-10-15T07:40:16Z</time>
      </trkpt>
      <trkpt lat="44.60496" lon="0.69025">
        <ele>141.3</ele>
        <time>2022-10-15T07:40:17Z</time>
      </trkpt>
      <trkpt lat="44.605" lon="0.69022">
        <ele>141.2</ele>
        <time>2022-10-15T07:40:18Z</time>
      </trkpt>
      <trkpt lat="44.6051" lon="0.69019">
        <ele>140.8</ele>
        <time>2022-10-15T07:40:20Z</time>
      </trkpt>
      <trkpt lat="44.60515" lon="0.69018">
        <ele>140.6</ele>
        <time>2022-10-15T07:40:21Z</time>
      </trkpt>
      <trkpt lat="44.60519" lon="0.69017">
        <ele>140.4</ele>
        <time>2022-10-15T07:40:22Z</time>
      </trkpt>
      <trkpt lat="44.6053" lon="0.69017">
        <ele>139.9</ele>
        <time>2022-10-15T07:40:24Z</time>
      </trkpt>
      <trkpt lat="44.60535" lon="0.69018">
        <ele>139.7</ele>
        <time>2022-10-15T07:40:25Z</time>
      </trkpt>
      <trkpt lat="44.60541" lon="0.6902">
        <ele>139.5</ele>
        <time>2022-10-15T07:40:26Z</time>
      </trkpt>
      <trkpt lat="44.60557" lon="0.69026">
        <ele>138.8</ele>
        <time>2022-10-15T07:40:29Z</time>
      </trkpt>
      <trkpt lat="44.60561" lon="0.69028">
        <ele>138.6</ele>
        <time>2022-10-15T07:40:30Z</time>
      </trkpt>
      <trkpt lat="44.6057" lon="0.69027">
        <ele>138.2</ele>
        <time>2022-10-15T07:40:32Z</time>
      </trkpt>
      <trkpt lat="44.60586" lon="0.6902">
        <ele>137.5</ele>
        <time>2022-10-15T07:40:36Z</time>
      </trkpt>
      <trkpt lat="44.60618" lon="0.69">
        <ele>136.1</ele>
        <time>2022-10-15T07:40:42Z</time>
      </trkpt>
      <trkpt lat="44.6065" lon="0.68967">
        <ele>134.4</ele>
        <time>2022-10-15T07:40:47Z</time>
      </trkpt>
      <trkpt lat="44.60661" lon="0.68956">
        <ele>133.9</ele>
        <time>2022-10-15T07:40:49Z</time>
      </trkpt>
      <trkpt lat="44.60676" lon="0.68947">
        <ele>133.2</ele>
        <time>2022-10-15T07:40:51Z</time>
      </trkpt>
      <trkpt lat="44.60684" lon="0.68941">
        <ele>132.8</ele>
        <time>2022-10-15T07:40:52Z</time>
      </trkpt>
      <trkpt lat="44.60701" lon="0.68925">
        <ele>132</ele>
        <time>2022-10-15T07:40:54Z</time>
      </trkpt>
      <trkpt lat="44.60725" lon="0.68902">
        <ele>130.8</ele>
        <time>2022-10-15T07:40:57Z</time>
      </trkpt>
      <trkpt lat="44.6074" lon="0.68886">
        <ele>130</ele>
        <time>2022-10-15T07:40:59Z</time>
      </trkpt>
      <trkpt lat="44.60775" lon="0.68841">
        <ele>128</ele>
        <time>2022-10-15T07:41:04Z</time>
      </trkpt>
      <trkpt lat="44.60797" lon="0.68802">
        <ele>126.6</ele>
        <time>2022-10-15T07:41:08Z</time>
      </trkpt>
      <trkpt lat="44.60813" lon="0.68764">
        <ele>125.2</ele>
        <time>2022-10-15T07:41:12Z</time>
      </trkpt>
      <trkpt lat="44.6082" lon="0.68756">
        <ele>124.9</ele>
        <time>2022-10-15T07:41:14Z</time>
      </trkpt>
      <trkpt lat="44.60825" lon="0.68756">
        <ele>124.6</ele>
        <time>2022-10-15T07:41:15Z</time>
      </trkpt>
      <trkpt lat="44.60859" lon="0.68761">
        <ele>123.2</ele>
        <time>2022-10-15T07:41:20Z</time>
      </trkpt>
      <trkpt lat="44.60874" lon="0.68756">
        <ele>122.6</ele>
        <time>2022-10-15T07:41:22Z</time>
      </trkpt>
      <trkpt lat="44.6088" lon="0.6875">
        <ele>122.3</ele>
        <time>2022-10-15T07:41:23Z</time>
      </trkpt>
      <trkpt lat="44.60885" lon="0.68744">
        <ele>122</ele>
        <time>2022-10-15T07:41:24Z</time>
      </trkpt>
      <trkpt lat="44.60894" lon="0.68728">
        <ele>121.4</ele>
        <time>2022-10-15T07:41:26Z</time>
      </trkpt>
      <trkpt lat="44.60914" lon="0.68668">
        <ele>119.5</ele>
        <time>2022-10-15T07:41:33Z</time>
      </trkpt>
      <trkpt lat="44.60922" lon="0.68647">
        <ele>118.8</ele>
        <time>2022-10-15T07:41:37Z</time>
      </trkpt>
      <trkpt lat="44.60923" lon="0.68646">
        <ele>118.7</ele>
        <time>2022-10-15T07:41:39Z</time>
      </trkpt>
      <trkpt lat="44.60924" lon="0.68642">
        <ele>118.6</ele>
        <time>2022-10-15T07:42:54Z</time>
      </trkpt>
      <trkpt lat="44.60925" lon="0.6864">
        <ele>118.5</ele>
        <time>2022-10-15T07:42:55Z</time>
      </trkpt>
      <trkpt lat="44.60933" lon="0.68618">
        <ele>117.8</ele>
        <time>2022-10-15T07:43:01Z</time>
      </trkpt>
      <trkpt lat="44.60942" lon="0.68595">
        <ele>117</ele>
        <time>2022-10-15T07:43:06Z</time>
      </trkpt>
      <trkpt lat="44.60949" lon="0.68588">
        <ele>116.4</ele>
        <time>2022-10-15T07:43:08Z</time>
      </trkpt>
      <trkpt lat="44.60959" lon="0.68585">
        <ele>115.4</ele>
        <time>2022-10-15T07:43:10Z</time>
      </trkpt>
      <trkpt lat="44.60987" lon="0.68591">
        <ele>113.2</ele>
        <time>2022-10-15T07:43:14Z</time>
      </trkpt>
      <trkpt lat="44.61028" lon="0.686">
        <ele>110.3</ele>
        <time>2022-10-15T07:43:19Z</time>
      </trkpt>
      <trkpt lat="44.61045" lon="0.68594">
        <ele>109.5</ele>
        <time>2022-10-15T07:43:21Z</time>
      </trkpt>
      <trkpt lat="44.61053" lon="0.68588">
        <ele>109.3</ele>
        <time>2022-10-15T07:43:22Z</time>
      </trkpt>
      <trkpt lat="44.6106" lon="0.68581">
        <ele>109.2</ele>
        <time>2022-10-15T07:43:23Z</time>
      </trkpt>
      <trkpt lat="44.61077" lon="0.6856">
        <ele>109.5</ele>
        <time>2022-10-15T07:43:26Z</time>
      </trkpt>
      <trkpt lat="44.611" lon="0.68534">
        <ele>111.3</ele>
        <time>2022-10-15T07:43:31Z</time>
      </trkpt>
      <trkpt lat="44.61119" lon="0.68512">
        <ele>114.2</ele>
        <time>2022-10-15T07:43:37Z</time>
      </trkpt>
      <trkpt lat="44.61139" lon="0.68488">
        <ele>117.6</ele>
        <time>2022-10-15T07:43:45Z</time>
      </trkpt>
      <trkpt lat="44.61152" lon="0.68469">
        <ele>119.9</ele>
        <time>2022-10-15T07:43:51Z</time>
      </trkpt>
      <trkpt lat="44.61163" lon="0.68456">
        <ele>121.7</ele>
        <time>2022-10-15T07:43:57Z</time>
      </trkpt>
      <trkpt lat="44.61173" lon="0.68448">
        <ele>123.3</ele>
        <time>2022-10-15T07:44:03Z</time>
      </trkpt>
      <trkpt lat="44.61184" lon="0.68443">
        <ele>125.5</ele>
        <time>2022-10-15T07:44:09Z</time>
      </trkpt>
      <trkpt lat="44.61195" lon="0.68437">
        <ele>130.1</ele>
        <time>2022-10-15T07:44:16Z</time>
      </trkpt>
      <trkpt lat="44.61197" lon="0.68437">
        <ele>130</ele>
        <time>2022-10-15T07:44:18Z</time>
      </trkpt>
      <trkpt lat="44.61247" lon="0.68413">
        <ele>140.2</ele>
        <time>2022-10-15T07:45:27Z</time>
      </trkpt>
      <trkpt lat="44.61247" lon="0.68408">
        <ele>141</ele>
        <time>2022-10-15T07:45:29Z</time>
      </trkpt>
      <trkpt lat="44.61247" lon="0.68397">
        <ele>142.9</ele>
        <time>2022-10-15T07:45:35Z</time>
      </trkpt>
      <trkpt lat="44.61247" lon="0.68393">
        <ele>143.5</ele>
        <time>2022-10-15T07:45:38Z</time>
      </trkpt>
      <trkpt lat="44.61251" lon="0.6835">
        <ele>148.9</ele>
        <time>2022-10-15T07:46:23Z</time>
      </trkpt>
      <trkpt lat="44.61253" lon="0.6835">
        <ele>148.9</ele>
        <time>2022-10-15T07:46:24Z</time>
      </trkpt>
      <trkpt lat="44.61261" lon="0.68357">
        <ele>149</ele>
        <time>2022-10-15T07:46:29Z</time>
      </trkpt>
      <trkpt lat="44.61271" lon="0.68366">
        <ele>149.2</ele>
        <time>2022-10-15T07:46:34Z</time>
      </trkpt>
      <trkpt lat="44.61267" lon="0.68369">
        <ele>149.3</ele>
        <time>2022-10-15T07:46:37Z</time>
      </trkpt>
      <trkpt lat="44.61265" lon="0.68368">
        <ele>149.4</ele>
        <time>2022-10-15T07:46:38Z</time>
      </trkpt>
      <trkpt lat="44.61255" lon="0.6836">
        <ele>149.6</ele>
        <time>2022-10-15T07:46:43Z</time>
      </trkpt>
      <trkpt lat="44.61254" lon="0.68358">
        <ele>149.6</ele>
        <time>2022-10-15T07:46:44Z</time>
      </trkpt>
      <trkpt lat="44.61254" lon="0.68357">
        <ele>149.6</ele>
        <time>2022-10-15T07:46:46Z</time>
      </trkpt>
      <trkpt lat="44.61259" lon="0.68357">
        <ele>149.7</ele>
        <time>2022-10-15T07:47:55Z</time>
      </trkpt>
      <trkpt lat="44.61264" lon="0.68362">
        <ele>149.8</ele>
        <time>2022-10-15T07:47:57Z</time>
      </trkpt>
      <trkpt lat="44.61287" lon="0.68375">
        <ele>150.3</ele>
        <time>2022-10-15T07:48:03Z</time>
      </trkpt>
      <trkpt lat="44.61306" lon="0.68382">
        <ele>150.6</ele>
        <time>2022-10-15T07:48:08Z</time>
      </trkpt>
      <trkpt lat="44.61333" lon="0.68383">
        <ele>150.5</ele>
        <time>2022-10-15T07:48:14Z</time>
      </trkpt>
      <trkpt lat="44.61338" lon="0.68383">
        <ele>150.4</ele>
        <time>2022-10-15T07:48:15Z</time>
      </trkpt>
      <trkpt lat="44.61346" lon="0.68386">
        <ele>150.1</ele>
        <time>2022-10-15T07:48:17Z</time>
      </trkpt>
      <trkpt lat="44.6135" lon="0.68391">
        <ele>150</ele>
        <time>2022-10-15T07:48:18Z</time>
      </trkpt>
      <trkpt lat="44.61352" lon="0.68398">
        <ele>149.8</ele>
        <time>2022-10-15T07:48:19Z</time>
      </trkpt>
      <trkpt lat="44.61362" lon="0.68424">
        <ele>149.2</ele>
        <time>2022-10-15T07:48:23Z</time>
      </trkpt>
      <trkpt lat="44.61365" lon="0.68427">
        <ele>149.1</ele>
        <time>2022-10-15T07:48:24Z</time>
      </trkpt>
      <trkpt lat="44.61371" lon="0.68426">
        <ele>149</ele>
        <time>2022-10-15T07:48:26Z</time>
      </trkpt>
      <trkpt lat="44.61374" lon="0.68424">
        <ele>148.9</ele>
        <time>2022-10-15T07:48:28Z</time>
      </trkpt>
      <trkpt lat="44.61378" lon="0.68418">
        <ele>148.7</ele>
        <time>2022-10-15T07:48:30Z</time>
      </trkpt>
      <trkpt lat="44.61383" lon="0.68408">
        <ele>148.5</ele>
        <time>2022-10-15T07:48:32Z</time>
      </trkpt>
      <trkpt lat="44.6139" lon="0.6839">
        <ele>148.3</ele>
        <time>2022-10-15T07:48:35Z</time>
      </trkpt>
      <trkpt lat="44.61405" lon="0.68355">
        <ele>148.6</ele>
        <time>2022-10-15T07:48:40Z</time>
      </trkpt>
      <trkpt lat="44.61403" lon="0.6834">
        <ele>148.7</ele>
        <time>2022-10-15T07:48:42Z</time>
      </trkpt>
      <trkpt lat="44.61397" lon="0.68327">
        <ele>148.8</ele>
        <time>2022-10-15T07:48:44Z</time>
      </trkpt>
      <trkpt lat="44.61393" lon="0.68323">
        <ele>148.9</ele>
        <time>2022-10-15T07:48:45Z</time>
      </trkpt>
      <trkpt lat="44.61374" lon="0.68293">
        <ele>149.2</ele>
        <time>2022-10-15T07:48:51Z</time>
      </trkpt>
      <trkpt lat="44.61365" lon="0.68278">
        <ele>149</ele>
        <time>2022-10-15T07:48:54Z</time>
      </trkpt>
      <trkpt lat="44.61362" lon="0.68273">
        <ele>148.6</ele>
        <time>2022-10-15T07:48:55Z</time>
      </trkpt>
      <trkpt lat="44.61356" lon="0.68255">
        <ele>148.1</ele>
        <time>2022-10-15T07:48:59Z</time>
      </trkpt>
      <trkpt lat="44.61359" lon="0.68239">
        <ele>145.5</ele>
        <time>2022-10-15T07:49:02Z</time>
      </trkpt>
      <trkpt lat="44.6136" lon="0.68232">
        <ele>143.9</ele>
        <time>2022-10-15T07:49:03Z</time>
      </trkpt>
      <trkpt lat="44.61369" lon="0.68206">
        <ele>140.8</ele>
        <time>2022-10-15T07:49:07Z</time>
      </trkpt>
      <trkpt lat="44.61372" lon="0.68199">
        <ele>139</ele>
        <time>2022-10-15T07:49:08Z</time>
      </trkpt>
      <trkpt lat="44.61386" lon="0.68177">
        <ele>135.3</ele>
        <time>2022-10-15T07:49:12Z</time>
      </trkpt>
      <trkpt lat="44.6139" lon="0.68172">
        <ele>134.9</ele>
        <time>2022-10-15T07:49:13Z</time>
      </trkpt>
      <trkpt lat="44.6141" lon="0.68143">
        <ele>126.3</ele>
        <time>2022-10-15T07:49:18Z</time>
      </trkpt>
      <trkpt lat="44.61426" lon="0.68109">
        <ele>119.4</ele>
        <time>2022-10-15T07:49:22Z</time>
      </trkpt>
      <trkpt lat="44.61443" lon="0.68066">
        <ele>111</ele>
        <time>2022-10-15T07:49:26Z</time>
      </trkpt>
      <trkpt lat="44.61453" lon="0.68035">
        <ele>107.2</ele>
        <time>2022-10-15T07:49:29Z</time>
      </trkpt>
      <trkpt lat="44.61461" lon="0.6802">
        <ele>103.8</ele>
        <time>2022-10-15T07:49:32Z</time>
      </trkpt>
      <trkpt lat="44.61469" lon="0.68013">
        <ele>102</ele>
        <time>2022-10-15T07:49:34Z</time>
      </trkpt>
      <trkpt lat="44.61473" lon="0.67998">
        <ele>101.4</ele>
        <time>2022-10-15T07:49:36Z</time>
      </trkpt>
      <trkpt lat="44.61475" lon="0.6799">
        <ele>101</ele>
        <time>2022-10-15T07:49:37Z</time>
      </trkpt>
      <trkpt lat="44.61487" lon="0.67964">
        <ele>99.8</ele>
        <time>2022-10-15T07:49:40Z</time>
      </trkpt>
      <trkpt lat="44.61517" lon="0.67898">
        <ele>96.8</ele>
        <time>2022-10-15T07:49:47Z</time>
      </trkpt>
      <trkpt lat="44.6155" lon="0.67833">
        <ele>97.5</ele>
        <time>2022-10-15T07:49:54Z</time>
      </trkpt>
      <trkpt lat="44.61555" lon="0.67824">
        <ele>97.6</ele>
        <time>2022-10-15T07:49:55Z</time>
      </trkpt>
      <trkpt lat="44.61585" lon="0.67761">
        <ele>98.2</ele>
        <time>2022-10-15T07:50:02Z</time>
      </trkpt>
      <trkpt lat="44.61589" lon="0.67752">
        <ele>98.4</ele>
        <time>2022-10-15T07:50:03Z</time>
      </trkpt>
      <trkpt lat="44.61613" lon="0.67707">
        <ele>99.1</ele>
        <time>2022-10-15T07:50:09Z</time>
      </trkpt>
      <trkpt lat="44.61647" lon="0.67647">
        <ele>97.7</ele>
        <time>2022-10-15T07:50:17Z</time>
      </trkpt>
      <trkpt lat="44.6168" lon="0.67584">
        <ele>97.1</ele>
        <time>2022-10-15T07:50:24Z</time>
      </trkpt>
      <trkpt lat="44.61683" lon="0.67574">
        <ele>97.1</ele>
        <time>2022-10-15T07:50:25Z</time>
      </trkpt>
      <trkpt lat="44.61701" lon="0.67527">
        <ele>97.2</ele>
        <time>2022-10-15T07:50:30Z</time>
      </trkpt>
      <trkpt lat="44.61711" lon="0.67511">
        <ele>97.3</ele>
        <time>2022-10-15T07:50:32Z</time>
      </trkpt>
      <trkpt lat="44.61745" lon="0.67473">
        <ele>97.4</ele>
        <time>2022-10-15T07:50:38Z</time>
      </trkpt>
      <trkpt lat="44.61793" lon="0.67424">
        <ele>97.4</ele>
        <time>2022-10-15T07:50:46Z</time>
      </trkpt>
      <trkpt lat="44.61799" lon="0.67419">
        <ele>97.5</ele>
        <time>2022-10-15T07:50:47Z</time>
      </trkpt>
      <trkpt lat="44.61835" lon="0.67387">
        <ele>97.9</ele>
        <time>2022-10-15T07:50:53Z</time>
      </trkpt>
      <trkpt lat="44.61862" lon="0.67348">
        <ele>98.6</ele>
        <time>2022-10-15T07:50:59Z</time>
      </trkpt>
      <trkpt lat="44.61887" lon="0.67298">
        <ele>99.8</ele>
        <time>2022-10-15T07:51:07Z</time>
      </trkpt>
      <trkpt lat="44.61907" lon="0.67255">
        <ele>100.9</ele>
        <time>2022-10-15T07:51:14Z</time>
      </trkpt>
      <trkpt lat="44.61926" lon="0.67212">
        <ele>102.2</ele>
        <time>2022-10-15T07:51:21Z</time>
      </trkpt>
      <trkpt lat="44.61938" lon="0.6718">
        <ele>103.9</ele>
        <time>2022-10-15T07:51:27Z</time>
      </trkpt>
      <trkpt lat="44.61943" lon="0.67147">
        <ele>105.7</ele>
        <time>2022-10-15T07:51:34Z</time>
      </trkpt>
      <trkpt lat="44.61946" lon="0.67123">
        <ele>106.6</ele>
        <time>2022-10-15T07:51:39Z</time>
      </trkpt>
      <trkpt lat="44.61952" lon="0.67083">
        <ele>107.5</ele>
        <time>2022-10-15T07:51:47Z</time>
      </trkpt>
      <trkpt lat="44.61951" lon="0.67053">
        <ele>107.9</ele>
        <time>2022-10-15T07:51:53Z</time>
      </trkpt>
      <trkpt lat="44.61949" lon="0.67022">
        <ele>108.1</ele>
        <time>2022-10-15T07:51:59Z</time>
      </trkpt>
      <trkpt lat="44.61946" lon="0.66992">
        <ele>108.5</ele>
        <time>2022-10-15T07:52:05Z</time>
      </trkpt>
      <trkpt lat="44.61942" lon="0.66967">
        <ele>109.4</ele>
        <time>2022-10-15T07:52:11Z</time>
      </trkpt>
      <trkpt lat="44.61939" lon="0.6695">
        <ele>110.4</ele>
        <time>2022-10-15T07:52:17Z</time>
      </trkpt>
      <trkpt lat="44.61937" lon="0.66938">
        <ele>111.2</ele>
        <time>2022-10-15T07:52:21Z</time>
      </trkpt>
      <trkpt lat="44.61937" lon="0.66935">
        <ele>111.4</ele>
        <time>2022-10-15T07:52:22Z</time>
      </trkpt>
      <trkpt lat="44.61934" lon="0.66922">
        <ele>112.4</ele>
        <time>2022-10-15T07:52:26Z</time>
      </trkpt>
      <trkpt lat="44.61932" lon="0.66903">
        <ele>113.9</ele>
        <time>2022-10-15T07:52:32Z</time>
      </trkpt>
      <trkpt lat="44.61931" lon="0.6689">
        <ele>114.9</ele>
        <time>2022-10-15T07:52:37Z</time>
      </trkpt>
      <trkpt lat="44.61929" lon="0.66879">
        <ele>115.8</ele>
        <time>2022-10-15T07:52:43Z</time>
      </trkpt>
      <trkpt lat="44.61928" lon="0.66872">
        <ele>116.5</ele>
        <time>2022-10-15T07:52:46Z</time>
      </trkpt>
      <trkpt lat="44.61926" lon="0.66866">
        <ele>117.3</ele>
        <time>2022-10-15T07:52:49Z</time>
      </trkpt>
      <trkpt lat="44.61925" lon="0.66864">
        <ele>117.5</ele>
        <time>2022-10-15T07:52:50Z</time>
      </trkpt>
      <trkpt lat="44.61924" lon="0.6686">
        <ele>118</ele>
        <time>2022-10-15T07:52:52Z</time>
      </trkpt>
      <trkpt lat="44.61923" lon="0.66857">
        <ele>118.5</ele>
        <time>2022-10-15T07:52:54Z</time>
      </trkpt>
      <trkpt lat="44.61878" lon="0.66813">
        <ele>129.2</ele>
        <time>2022-10-15T07:53:38Z</time>
      </trkpt>
      <trkpt lat="44.61874" lon="0.66811">
        <ele>130.1</ele>
        <time>2022-10-15T07:53:42Z</time>
      </trkpt>
      <trkpt lat="44.6187" lon="0.6681">
        <ele>130.7</ele>
        <time>2022-10-15T07:53:45Z</time>
      </trkpt>
      <trkpt lat="44.61797" lon="0.6676">
        <ele>149.1</ele>
        <time>2022-10-15T07:54:57Z</time>
      </trkpt>
      <trkpt lat="44.61795" lon="0.66758">
        <ele>149.5</ele>
        <time>2022-10-15T07:54:59Z</time>
      </trkpt>
      <trkpt lat="44.61782" lon="0.66749">
        <ele>151.5</ele>
        <time>2022-10-15T07:55:05Z</time>
      </trkpt>
      <trkpt lat="44.6177" lon="0.66739">
        <ele>152.5</ele>
        <time>2022-10-15T07:55:10Z</time>
      </trkpt>
      <trkpt lat="44.61765" lon="0.66727">
        <ele>153.8</ele>
        <time>2022-10-15T07:55:14Z</time>
      </trkpt>
      <trkpt lat="44.61766" lon="0.66719">
        <ele>153.8</ele>
        <time>2022-10-15T07:55:17Z</time>
      </trkpt>
      <trkpt lat="44.61769" lon="0.66716">
        <ele>153.9</ele>
        <time>2022-10-15T07:55:19Z</time>
      </trkpt>
      <trkpt lat="44.61783" lon="0.66711">
        <ele>153.9</ele>
        <time>2022-10-15T07:55:24Z</time>
      </trkpt>
      <trkpt lat="44.61803" lon="0.66703">
        <ele>153.9</ele>
        <time>2022-10-15T07:55:31Z</time>
      </trkpt>
      <trkpt lat="44.61825" lon="0.66693">
        <ele>154</ele>
        <time>2022-10-15T07:55:37Z</time>
      </trkpt>
      <trkpt lat="44.61855" lon="0.6668">
        <ele>154.1</ele>
        <time>2022-10-15T07:55:44Z</time>
      </trkpt>
      <trkpt lat="44.61879" lon="0.66669">
        <ele>154.3</ele>
        <time>2022-10-15T07:55:50Z</time>
      </trkpt>
      <trkpt lat="44.61904" lon="0.66655">
        <ele>154.7</ele>
        <time>2022-10-15T07:55:56Z</time>
      </trkpt>
      <trkpt lat="44.61924" lon="0.66642">
        <ele>155.1</ele>
        <time>2022-10-15T07:56:01Z</time>
      </trkpt>
      <trkpt lat="44.61955" lon="0.66619">
        <ele>155.8</ele>
        <time>2022-10-15T07:56:08Z</time>
      </trkpt>
      <trkpt lat="44.61978" lon="0.66601">
        <ele>156.3</ele>
        <time>2022-10-15T07:56:14Z</time>
      </trkpt>
      <trkpt lat="44.62005" lon="0.66581">
        <ele>156.7</ele>
        <time>2022-10-15T07:56:20Z</time>
      </trkpt>
      <trkpt lat="44.62027" lon="0.66563">
        <ele>156.6</ele>
        <time>2022-10-15T07:56:25Z</time>
      </trkpt>
      <trkpt lat="44.62035" lon="0.66555">
        <ele>156.4</ele>
        <time>2022-10-15T07:56:27Z</time>
      </trkpt>
      <trkpt lat="44.62057" lon="0.66533">
        <ele>155.6</ele>
        <time>2022-10-15T07:56:32Z</time>
      </trkpt>
      <trkpt lat="44.62078" lon="0.66507">
        <ele>155</ele>
        <time>2022-10-15T07:56:37Z</time>
      </trkpt>
      <trkpt lat="44.62095" lon="0.66486">
        <ele>155</ele>
        <time>2022-10-15T07:56:42Z</time>
      </trkpt>
      <trkpt lat="44.62119" lon="0.66449">
        <ele>154.8</ele>
        <time>2022-10-15T07:56:48Z</time>
      </trkpt>
      <trkpt lat="44.62129" lon="0.66431">
        <ele>154.6</ele>
        <time>2022-10-15T07:56:51Z</time>
      </trkpt>
      <trkpt lat="44.62131" lon="0.66423">
        <ele>154.5</ele>
        <time>2022-10-15T07:56:53Z</time>
      </trkpt>
      <trkpt lat="44.62131" lon="0.66418">
        <ele>154.4</ele>
        <time>2022-10-15T07:56:55Z</time>
      </trkpt>
      <trkpt lat="44.62133" lon="0.66418">
        <ele>154.4</ele>
        <time>2022-10-15T07:56:56Z</time>
      </trkpt>
      <trkpt lat="44.62141" lon="0.66432">
        <ele>154.1</ele>
        <time>2022-10-15T07:57:00Z</time>
      </trkpt>
      <trkpt lat="44.62146" lon="0.6644">
        <ele>154.1</ele>
        <time>2022-10-15T07:57:03Z</time>
      </trkpt>
      <trkpt lat="44.62145" lon="0.66438">
        <ele>154.1</ele>
        <time>2022-10-15T07:57:05Z</time>
      </trkpt>
      <trkpt lat="44.62141" lon="0.66432">
        <ele>154.1</ele>
        <time>2022-10-15T07:57:07Z</time>
      </trkpt>
      <trkpt lat="44.62139" lon="0.66425">
        <ele>154</ele>
        <time>2022-10-15T07:57:09Z</time>
      </trkpt>
      <trkpt lat="44.6214" lon="0.6642">
        <ele>154</ele>
        <time>2022-10-15T07:57:10Z</time>
      </trkpt>
      <trkpt lat="44.62141" lon="0.66415">
        <ele>154</ele>
        <time>2022-10-15T07:57:11Z</time>
      </trkpt>
      <trkpt lat="44.6215" lon="0.664">
        <ele>153.9</ele>
        <time>2022-10-15T07:57:14Z</time>
      </trkpt>
      <trkpt lat="44.62163" lon="0.66381">
        <ele>153.9</ele>
        <time>2022-10-15T07:57:18Z</time>
      </trkpt>
      <trkpt lat="44.62171" lon="0.66372">
        <ele>153.8</ele>
        <time>2022-10-15T07:57:20Z</time>
      </trkpt>
      <trkpt lat="44.62174" lon="0.66366">
        <ele>153.8</ele>
        <time>2022-10-15T07:57:21Z</time>
      </trkpt>
      <trkpt lat="44.62187" lon="0.66343">
        <ele>153.5</ele>
        <time>2022-10-15T07:57:25Z</time>
      </trkpt>
      <trkpt lat="44.62202" lon="0.66301">
        <ele>152.5</ele>
        <time>2022-10-15T07:57:31Z</time>
      </trkpt>
      <trkpt lat="44.62211" lon="0.6627">
        <ele>151.3</ele>
        <time>2022-10-15T07:57:35Z</time>
      </trkpt>
      <trkpt lat="44.62214" lon="0.66262">
        <ele>151</ele>
        <time>2022-10-15T07:57:36Z</time>
      </trkpt>
      <trkpt lat="44.62223" lon="0.6624">
        <ele>149.9</ele>
        <time>2022-10-15T07:57:39Z</time>
      </trkpt>
      <trkpt lat="44.62232" lon="0.66226">
        <ele>148.9</ele>
        <time>2022-10-15T07:57:41Z</time>
      </trkpt>
      <trkpt lat="44.62255" lon="0.66198">
        <ele>146.1</ele>
        <time>2022-10-15T07:57:45Z</time>
      </trkpt>
      <trkpt lat="44.62299" lon="0.66154">
        <ele>141.2</ele>
        <time>2022-10-15T07:57:51Z</time>
      </trkpt>
      <trkpt lat="44.62343" lon="0.66109">
        <ele>134.3</ele>
        <time>2022-10-15T07:57:57Z</time>
      </trkpt>
      <trkpt lat="44.62359" lon="0.66087">
        <ele>131.2</ele>
        <time>2022-10-15T07:58:00Z</time>
      </trkpt>
      <trkpt lat="44.62365" lon="0.66081">
        <ele>130.4</ele>
        <time>2022-10-15T07:58:01Z</time>
      </trkpt>
      <trkpt lat="44.62377" lon="0.66074">
        <ele>129.1</ele>
        <time>2022-10-15T07:58:03Z</time>
      </trkpt>
      <trkpt lat="44.62392" lon="0.66073">
        <ele>128.1</ele>
        <time>2022-10-15T07:58:05Z</time>
      </trkpt>
      <trkpt lat="44.62411" lon="0.66077">
        <ele>127.5</ele>
        <time>2022-10-15T07:58:08Z</time>
      </trkpt>
      <trkpt lat="44.62414" lon="0.6608">
        <ele>127.4</ele>
        <time>2022-10-15T07:58:09Z</time>
      </trkpt>
      <trkpt lat="44.62415" lon="0.66091">
        <ele>127.5</ele>
        <time>2022-10-15T07:58:11Z</time>
      </trkpt>
      <trkpt lat="44.62413" lon="0.66097">
        <ele>127.6</ele>
        <time>2022-10-15T07:58:12Z</time>
      </trkpt>
      <trkpt lat="44.62407" lon="0.66116">
        <ele>127.7</ele>
        <time>2022-10-15T07:58:15Z</time>
      </trkpt>
      <trkpt lat="44.6241" lon="0.66127">
        <ele>127.4</ele>
        <time>2022-10-15T07:58:17Z</time>
      </trkpt>
      <trkpt lat="44.62415" lon="0.66131">
        <ele>127.2</ele>
        <time>2022-10-15T07:58:18Z</time>
      </trkpt>
      <trkpt lat="44.62421" lon="0.66134">
        <ele>126.9</ele>
        <time>2022-10-15T07:58:19Z</time>
      </trkpt>
      <trkpt lat="44.62441" lon="0.6614">
        <ele>126.1</ele>
        <time>2022-10-15T07:58:22Z</time>
      </trkpt>
      <trkpt lat="44.62486" lon="0.66152">
        <ele>123.6</ele>
        <time>2022-10-15T07:58:28Z</time>
      </trkpt>
      <trkpt lat="44.62526" lon="0.66165">
        <ele>121.6</ele>
        <time>2022-10-15T07:58:33Z</time>
      </trkpt>
      <trkpt lat="44.62585" lon="0.66189">
        <ele>118.4</ele>
        <time>2022-10-15T07:58:40Z</time>
      </trkpt>
      <trkpt lat="44.62633" lon="0.66208">
        <ele>115.9</ele>
        <time>2022-10-15T07:58:45Z</time>
      </trkpt>
      <trkpt lat="44.62643" lon="0.6621">
        <ele>115.4</ele>
        <time>2022-10-15T07:58:46Z</time>
      </trkpt>
      <trkpt lat="44.62652" lon="0.66208">
        <ele>114.9</ele>
        <time>2022-10-15T07:58:47Z</time>
      </trkpt>
      <trkpt lat="44.62662" lon="0.66203">
        <ele>114.5</ele>
        <time>2022-10-15T07:58:48Z</time>
      </trkpt>
      <trkpt lat="44.62703" lon="0.66166">
        <ele>112.8</ele>
        <time>2022-10-15T07:58:53Z</time>
      </trkpt>
      <trkpt lat="44.6275" lon="0.66124">
        <ele>112.2</ele>
        <time>2022-10-15T07:58:59Z</time>
      </trkpt>
      <trkpt lat="44.62773" lon="0.66105">
        <ele>112.1</ele>
        <time>2022-10-15T07:59:02Z</time>
      </trkpt>
      <trkpt lat="44.62789" lon="0.66096">
        <ele>111.5</ele>
        <time>2022-10-15T07:59:04Z</time>
      </trkpt>
      <trkpt lat="44.62827" lon="0.66083">
        <ele>111.2</ele>
        <time>2022-10-15T07:59:09Z</time>
      </trkpt>
      <trkpt lat="44.62882" lon="0.6607">
        <ele>111</ele>
        <time>2022-10-15T07:59:16Z</time>
      </trkpt>
      <trkpt lat="44.62931" lon="0.66057">
        <ele>109.6</ele>
        <time>2022-10-15T07:59:22Z</time>
      </trkpt>
      <trkpt lat="44.62963" lon="0.66047">
        <ele>108.8</ele>
        <time>2022-10-15T07:59:26Z</time>
      </trkpt>
      <trkpt lat="44.62979" lon="0.6604">
        <ele>108.4</ele>
        <time>2022-10-15T07:59:28Z</time>
      </trkpt>
      <trkpt lat="44.63031" lon="0.66013">
        <ele>108.3</ele>
        <time>2022-10-15T07:59:35Z</time>
      </trkpt>
      <trkpt lat="44.63075" lon="0.65995">
        <ele>107.5</ele>
        <time>2022-10-15T07:59:41Z</time>
      </trkpt>
      <trkpt lat="44.63082" lon="0.65992">
        <ele>107.1</ele>
        <time>2022-10-15T07:59:42Z</time>
      </trkpt>
      <trkpt lat="44.63095" lon="0.65983">
        <ele>106.9</ele>
        <time>2022-10-15T07:59:44Z</time>
      </trkpt>
      <trkpt lat="44.631" lon="0.65975">
        <ele>106.9</ele>
        <time>2022-10-15T07:59:45Z</time>
      </trkpt>
      <trkpt lat="44.63101" lon="0.65967">
        <ele>107.1</ele>
        <time>2022-10-15T07:59:46Z</time>
      </trkpt>
      <trkpt lat="44.631" lon="0.65949">
        <ele>107.2</ele>
        <time>2022-10-15T07:59:48Z</time>
      </trkpt>
      <trkpt lat="44.63104" lon="0.65887">
        <ele>107.6</ele>
        <time>2022-10-15T07:59:55Z</time>
      </trkpt>
      <trkpt lat="44.63108" lon="0.6584">
        <ele>108.3</ele>
        <time>2022-10-15T08:00:01Z</time>
      </trkpt>
      <trkpt lat="44.63112" lon="0.6579">
        <ele>109.3</ele>
        <time>2022-10-15T08:00:08Z</time>
      </trkpt>
      <trkpt lat="44.63114" lon="0.65771">
        <ele>109.7</ele>
        <time>2022-10-15T08:00:11Z</time>
      </trkpt>
      <trkpt lat="44.63116" lon="0.65761">
        <ele>109.9</ele>
        <time>2022-10-15T08:00:13Z</time>
      </trkpt>
      <trkpt lat="44.63119" lon="0.65758">
        <ele>109.6</ele>
        <time>2022-10-15T08:00:14Z</time>
      </trkpt>
      <trkpt lat="44.63126" lon="0.65758">
        <ele>109.5</ele>
        <time>2022-10-15T08:00:16Z</time>
      </trkpt>
      <trkpt lat="44.63155" lon="0.65776">
        <ele>108.7</ele>
        <time>2022-10-15T08:00:22Z</time>
      </trkpt>
      <trkpt lat="44.63188" lon="0.65794">
        <ele>107.9</ele>
        <time>2022-10-15T08:00:28Z</time>
      </trkpt>
      <trkpt lat="44.6324" lon="0.65823">
        <ele>106.7</ele>
        <time>2022-10-15T08:00:37Z</time>
      </trkpt>
      <trkpt lat="44.63246" lon="0.65827">
        <ele>106.7</ele>
        <time>2022-10-15T08:00:38Z</time>
      </trkpt>
      <trkpt lat="44.63301" lon="0.65857">
        <ele>106.5</ele>
        <time>2022-10-15T08:00:47Z</time>
      </trkpt>
      <trkpt lat="44.63356" lon="0.65888">
        <ele>106.4</ele>
        <time>2022-10-15T08:00:56Z</time>
      </trkpt>
      <trkpt lat="44.63362" lon="0.65891">
        <ele>106.5</ele>
        <time>2022-10-15T08:00:57Z</time>
      </trkpt>
      <trkpt lat="44.63415" lon="0.6592">
        <ele>106.9</ele>
        <time>2022-10-15T08:01:06Z</time>
      </trkpt>
      <trkpt lat="44.63467" lon="0.6595">
        <ele>107.3</ele>
        <time>2022-10-15T08:01:15Z</time>
      </trkpt>
      <trkpt lat="44.63508" lon="0.65971">
        <ele>107.4</ele>
        <time>2022-10-15T08:01:22Z</time>
      </trkpt>
      <trkpt lat="44.63548" lon="0.65994">
        <ele>107.6</ele>
        <time>2022-10-15T08:01:29Z</time>
      </trkpt>
      <trkpt lat="44.6359" lon="0.66018">
        <ele>107.8</ele>
        <time>2022-10-15T08:01:37Z</time>
      </trkpt>
      <trkpt lat="44.63646" lon="0.66048">
        <ele>107.6</ele>
        <time>2022-10-15T08:01:47Z</time>
      </trkpt>
      <trkpt lat="44.63689" lon="0.66072">
        <ele>107.2</ele>
        <time>2022-10-15T08:01:55Z</time>
      </trkpt>
      <trkpt lat="44.63738" lon="0.66099">
        <ele>106.5</ele>
        <time>2022-10-15T08:02:03Z</time>
      </trkpt>
      <trkpt lat="44.63793" lon="0.6613">
        <ele>105.9</ele>
        <time>2022-10-15T08:02:12Z</time>
      </trkpt>
      <trkpt lat="44.638" lon="0.66133">
        <ele>105.8</ele>
        <time>2022-10-15T08:02:13Z</time>
      </trkpt>
      <trkpt lat="44.6385" lon="0.66161">
        <ele>105.7</ele>
        <time>2022-10-15T08:02:21Z</time>
      </trkpt>
      <trkpt lat="44.63874" lon="0.66175">
        <ele>105.9</ele>
        <time>2022-10-15T08:02:25Z</time>
      </trkpt>
      <trkpt lat="44.63877" lon="0.6618">
        <ele>105.8</ele>
        <time>2022-10-15T08:02:26Z</time>
      </trkpt>
      <trkpt lat="44.63879" lon="0.66187">
        <ele>105.7</ele>
        <time>2022-10-15T08:02:27Z</time>
      </trkpt>
      <trkpt lat="44.63877" lon="0.66203">
        <ele>105.6</ele>
        <time>2022-10-15T08:02:29Z</time>
      </trkpt>
      <trkpt lat="44.63876" lon="0.66211">
        <ele>105.5</ele>
        <time>2022-10-15T08:02:30Z</time>
      </trkpt>
      <trkpt lat="44.63879" lon="0.66224">
        <ele>105.3</ele>
        <time>2022-10-15T08:02:32Z</time>
      </trkpt>
      <trkpt lat="44.63888" lon="0.66234">
        <ele>105.8</ele>
        <time>2022-10-15T08:02:34Z</time>
      </trkpt>
      <trkpt lat="44.63899" lon="0.66244">
        <ele>106.7</ele>
        <time>2022-10-15T08:02:36Z</time>
      </trkpt>
      <trkpt lat="44.63931" lon="0.66276">
        <ele>106.5</ele>
        <time>2022-10-15T08:02:42Z</time>
      </trkpt>
      <trkpt lat="44.63964" lon="0.66309">
        <ele>106</ele>
        <time>2022-10-15T08:02:48Z</time>
      </trkpt>
      <trkpt lat="44.63993" lon="0.66339">
        <ele>105.8</ele>
        <time>2022-10-15T08:02:53Z</time>
      </trkpt>
      <trkpt lat="44.63999" lon="0.66345">
        <ele>105.7</ele>
        <time>2022-10-15T08:02:54Z</time>
      </trkpt>
      <trkpt lat="44.64004" lon="0.66351">
        <ele>105.6</ele>
        <time>2022-10-15T08:02:55Z</time>
      </trkpt>
      <trkpt lat="44.64017" lon="0.66362">
        <ele>105.5</ele>
        <time>2022-10-15T08:02:57Z</time>
      </trkpt>
      <trkpt lat="44.6403" lon="0.6637">
        <ele>105.3</ele>
        <time>2022-10-15T08:02:59Z</time>
      </trkpt>
      <trkpt lat="44.64079" lon="0.66391">
        <ele>104.8</ele>
        <time>2022-10-15T08:03:06Z</time>
      </trkpt>
      <trkpt lat="44.64134" lon="0.66416">
        <ele>104.1</ele>
        <time>2022-10-15T08:03:14Z</time>
      </trkpt>
      <trkpt lat="44.64147" lon="0.66423">
        <ele>104</ele>
        <time>2022-10-15T08:03:16Z</time>
      </trkpt>
      <trkpt lat="44.64178" lon="0.66446">
        <ele>103.6</ele>
        <time>2022-10-15T08:03:21Z</time>
      </trkpt>
      <trkpt lat="44.64197" lon="0.66478">
        <ele>103.3</ele>
        <time>2022-10-15T08:03:25Z</time>
      </trkpt>
      <trkpt lat="44.64231" lon="0.66534">
        <ele>104.7</ele>
        <time>2022-10-15T08:03:32Z</time>
      </trkpt>
      <trkpt lat="44.6425" lon="0.66565">
        <ele>105.3</ele>
        <time>2022-10-15T08:03:36Z</time>
      </trkpt>
      <trkpt lat="44.64262" lon="0.66578">
        <ele>105.8</ele>
        <time>2022-10-15T08:03:38Z</time>
      </trkpt>
      <trkpt lat="44.64301" lon="0.66606">
        <ele>103.2</ele>
        <time>2022-10-15T08:03:44Z</time>
      </trkpt>
      <trkpt lat="44.64343" lon="0.66633">
        <ele>100.5</ele>
        <time>2022-10-15T08:03:50Z</time>
      </trkpt>
      <trkpt lat="44.64384" lon="0.6666">
        <ele>95.8</ele>
        <time>2022-10-15T08:03:56Z</time>
      </trkpt>
      <trkpt lat="44.64423" lon="0.66683">
        <ele>95.8</ele>
        <time>2022-10-15T08:04:02Z</time>
      </trkpt>
      <trkpt lat="44.64471" lon="0.66708">
        <ele>97</ele>
        <time>2022-10-15T08:04:09Z</time>
      </trkpt>
      <trkpt lat="44.64514" lon="0.66724">
        <ele>98.3</ele>
        <time>2022-10-15T08:04:15Z</time>
      </trkpt>
      <trkpt lat="44.64548" lon="0.66736">
        <ele>97.8</ele>
        <time>2022-10-15T08:04:20Z</time>
      </trkpt>
      <trkpt lat="44.64575" lon="0.66745">
        <ele>96.9</ele>
        <time>2022-10-15T08:04:24Z</time>
      </trkpt>
      <trkpt lat="44.64588" lon="0.66749">
        <ele>96.8</ele>
        <time>2022-10-15T08:04:26Z</time>
      </trkpt>
      <trkpt lat="44.64612" lon="0.66762">
        <ele>95.8</ele>
        <time>2022-10-15T08:04:30Z</time>
      </trkpt>
      <trkpt lat="44.64618" lon="0.66766">
        <ele>95.8</ele>
        <time>2022-10-15T08:04:31Z</time>
      </trkpt>
      <trkpt lat="44.64653" lon="0.66792">
        <ele>94.9</ele>
        <time>2022-10-15T08:04:37Z</time>
      </trkpt>
      <trkpt lat="44.64688" lon="0.66816">
        <ele>94.6</ele>
        <time>2022-10-15T08:04:44Z</time>
      </trkpt>
      <trkpt lat="44.64697" lon="0.66823">
        <ele>94.8</ele>
        <time>2022-10-15T08:04:46Z</time>
      </trkpt>
      <trkpt lat="44.64708" lon="0.66838">
        <ele>95.1</ele>
        <time>2022-10-15T08:04:49Z</time>
      </trkpt>
      <trkpt lat="44.6471" lon="0.66852">
        <ele>95.1</ele>
        <time>2022-10-15T08:04:51Z</time>
      </trkpt>
      <trkpt lat="44.64707" lon="0.66858">
        <ele>95</ele>
        <time>2022-10-15T08:04:52Z</time>
      </trkpt>
      <trkpt lat="44.64687" lon="0.66895">
        <ele>92.7</ele>
        <time>2022-10-15T08:04:58Z</time>
      </trkpt>
      <trkpt lat="44.64666" lon="0.66938">
        <ele>90.3</ele>
        <time>2022-10-15T08:05:04Z</time>
      </trkpt>
      <trkpt lat="44.64639" lon="0.6699">
        <ele>90.1</ele>
        <time>2022-10-15T08:05:12Z</time>
      </trkpt>
      <trkpt lat="44.64626" lon="0.67009">
        <ele>89.8</ele>
        <time>2022-10-15T08:05:15Z</time>
      </trkpt>
      <trkpt lat="44.64617" lon="0.67021">
        <ele>89.3</ele>
        <time>2022-10-15T08:05:17Z</time>
      </trkpt>
      <trkpt lat="44.64613" lon="0.67034">
        <ele>88.9</ele>
        <time>2022-10-15T08:05:19Z</time>
      </trkpt>
      <trkpt lat="44.64617" lon="0.67047">
        <ele>88.9</ele>
        <time>2022-10-15T08:05:21Z</time>
      </trkpt>
      <trkpt lat="44.64621" lon="0.67051">
        <ele>88.5</ele>
        <time>2022-10-15T08:05:22Z</time>
      </trkpt>
      <trkpt lat="44.64642" lon="0.67074">
        <ele>88.2</ele>
        <time>2022-10-15T08:05:28Z</time>
      </trkpt>
      <trkpt lat="44.64646" lon="0.67076">
        <ele>88.2</ele>
        <time>2022-10-15T08:05:29Z</time>
      </trkpt>
      <trkpt lat="44.64667" lon="0.67084">
        <ele>88</ele>
        <time>2022-10-15T08:05:34Z</time>
      </trkpt>
      <trkpt lat="44.64692" lon="0.67093">
        <ele>87.4</ele>
        <time>2022-10-15T08:05:40Z</time>
      </trkpt>
      <trkpt lat="44.64709" lon="0.67099">
        <ele>87.1</ele>
        <time>2022-10-15T08:05:44Z</time>
      </trkpt>
      <trkpt lat="44.64735" lon="0.67107">
        <ele>86.2</ele>
        <time>2022-10-15T08:05:49Z</time>
      </trkpt>
      <trkpt lat="44.64785" lon="0.67124">
        <ele>84.1</ele>
        <time>2022-10-15T08:05:57Z</time>
      </trkpt>
      <trkpt lat="44.64829" lon="0.67138">
        <ele>82.1</ele>
        <time>2022-10-15T08:06:04Z</time>
      </trkpt>
      <trkpt lat="44.64877" lon="0.67157">
        <ele>79.6</ele>
        <time>2022-10-15T08:06:12Z</time>
      </trkpt>
      <trkpt lat="44.64909" lon="0.6717">
        <ele>78.7</ele>
        <time>2022-10-15T08:06:17Z</time>
      </trkpt>
      <trkpt lat="44.64917" lon="0.67169">
        <ele>78.3</ele>
        <time>2022-10-15T08:06:19Z</time>
      </trkpt>
      <trkpt lat="44.6492" lon="0.67166">
        <ele>78.3</ele>
        <time>2022-10-15T08:06:20Z</time>
      </trkpt>
      <trkpt lat="44.64924" lon="0.67162">
        <ele>78.2</ele>
        <time>2022-10-15T08:06:21Z</time>
      </trkpt>
      <trkpt lat="44.64928" lon="0.67148">
        <ele>77.9</ele>
        <time>2022-10-15T08:06:23Z</time>
      </trkpt>
      <trkpt lat="44.64943" lon="0.67099">
        <ele>77.6</ele>
        <time>2022-10-15T08:06:29Z</time>
      </trkpt>
      <trkpt lat="44.6497" lon="0.67027">
        <ele>76.9</ele>
        <time>2022-10-15T08:06:37Z</time>
      </trkpt>
      <trkpt lat="44.65002" lon="0.66958">
        <ele>76.1</ele>
        <time>2022-10-15T08:06:45Z</time>
      </trkpt>
      <trkpt lat="44.65032" lon="0.66895">
        <ele>75.8</ele>
        <time>2022-10-15T08:06:52Z</time>
      </trkpt>
      <trkpt lat="44.65045" lon="0.66868">
        <ele>75.7</ele>
        <time>2022-10-15T08:06:55Z</time>
      </trkpt>
      <trkpt lat="44.6508" lon="0.66808">
        <ele>75.6</ele>
        <time>2022-10-15T08:07:02Z</time>
      </trkpt>
      <trkpt lat="44.65103" lon="0.66777">
        <ele>75.3</ele>
        <time>2022-10-15T08:07:06Z</time>
      </trkpt>
      <trkpt lat="44.65117" lon="0.66766">
        <ele>75.1</ele>
        <time>2022-10-15T08:07:08Z</time>
      </trkpt>
      <trkpt lat="44.65133" lon="0.66764">
        <ele>74.8</ele>
        <time>2022-10-15T08:07:10Z</time>
      </trkpt>
      <trkpt lat="44.65141" lon="0.66766">
        <ele>74.6</ele>
        <time>2022-10-15T08:07:11Z</time>
      </trkpt>
      <trkpt lat="44.65189" lon="0.66782">
        <ele>73.8</ele>
        <time>2022-10-15T08:07:17Z</time>
      </trkpt>
      <trkpt lat="44.6523" lon="0.66779">
        <ele>73.5</ele>
        <time>2022-10-15T08:07:22Z</time>
      </trkpt>
      <trkpt lat="44.65284" lon="0.66767">
        <ele>73.5</ele>
        <time>2022-10-15T08:07:29Z</time>
      </trkpt>
      <trkpt lat="44.65342" lon="0.66753">
        <ele>73.8</ele>
        <time>2022-10-15T08:07:37Z</time>
      </trkpt>
      <trkpt lat="44.65349" lon="0.66751">
        <ele>73.8</ele>
        <time>2022-10-15T08:07:38Z</time>
      </trkpt>
      <trkpt lat="44.65378" lon="0.66742">
        <ele>74</ele>
        <time>2022-10-15T08:07:42Z</time>
      </trkpt>
      <trkpt lat="44.65384" lon="0.66737">
        <ele>74.2</ele>
        <time>2022-10-15T08:07:43Z</time>
      </trkpt>
      <trkpt lat="44.65395" lon="0.66722">
        <ele>74.4</ele>
        <time>2022-10-15T08:07:45Z</time>
      </trkpt>
      <trkpt lat="44.65398" lon="0.66712">
        <ele>74.4</ele>
        <time>2022-10-15T08:07:46Z</time>
      </trkpt>
      <trkpt lat="44.65399" lon="0.66702">
        <ele>74.4</ele>
        <time>2022-10-15T08:07:47Z</time>
      </trkpt>
      <trkpt lat="44.65399" lon="0.66681">
        <ele>74.4</ele>
        <time>2022-10-15T08:07:49Z</time>
      </trkpt>
      <trkpt lat="44.65395" lon="0.66621">
        <ele>74.7</ele>
        <time>2022-10-15T08:07:55Z</time>
      </trkpt>
      <trkpt lat="44.65391" lon="0.66539">
        <ele>75.4</ele>
        <time>2022-10-15T08:08:04Z</time>
      </trkpt>
      <trkpt lat="44.65388" lon="0.6646">
        <ele>76.1</ele>
        <time>2022-10-15T08:08:13Z</time>
      </trkpt>
      <trkpt lat="44.65383" lon="0.664">
        <ele>76.7</ele>
        <time>2022-10-15T08:08:20Z</time>
      </trkpt>
      <trkpt lat="44.65374" lon="0.6636">
        <ele>77</ele>
        <time>2022-10-15T08:08:25Z</time>
      </trkpt>
      <trkpt lat="44.65369" lon="0.66345">
        <ele>77.1</ele>
        <time>2022-10-15T08:08:27Z</time>
      </trkpt>
      <trkpt lat="44.65349" lon="0.663">
        <ele>77.6</ele>
        <time>2022-10-15T08:08:34Z</time>
      </trkpt>
      <trkpt lat="44.65328" lon="0.66251">
        <ele>77.8</ele>
        <time>2022-10-15T08:08:42Z</time>
      </trkpt>
      <trkpt lat="44.65325" lon="0.66246">
        <ele>77.8</ele>
        <time>2022-10-15T08:08:43Z</time>
      </trkpt>
      <trkpt lat="44.6532" lon="0.66237">
        <ele>77.8</ele>
        <time>2022-10-15T08:08:45Z</time>
      </trkpt>
      <trkpt lat="44.65316" lon="0.66234">
        <ele>77.8</ele>
        <time>2022-10-15T08:08:46Z</time>
      </trkpt>
      <trkpt lat="44.65311" lon="0.66231">
        <ele>77.8</ele>
        <time>2022-10-15T08:08:47Z</time>
      </trkpt>
      <trkpt lat="44.65296" lon="0.66226">
        <ele>77.8</ele>
        <time>2022-10-15T08:08:50Z</time>
      </trkpt>
      <trkpt lat="44.65264" lon="0.66208">
        <ele>77.7</ele>
        <time>2022-10-15T08:08:56Z</time>
      </trkpt>
      <trkpt lat="44.65253" lon="0.66202">
        <ele>77.7</ele>
        <time>2022-10-15T08:08:58Z</time>
      </trkpt>
      <trkpt lat="44.65239" lon="0.66192">
        <ele>77.7</ele>
        <time>2022-10-15T08:09:01Z</time>
      </trkpt>
      <trkpt lat="44.6523" lon="0.66187">
        <ele>77.8</ele>
        <time>2022-10-15T08:09:03Z</time>
      </trkpt>
      <trkpt lat="44.65215" lon="0.66183">
        <ele>77.8</ele>
        <time>2022-10-15T08:09:06Z</time>
      </trkpt>
      <trkpt lat="44.65192" lon="0.66169">
        <ele>78</ele>
        <time>2022-10-15T08:09:11Z</time>
      </trkpt>
      <trkpt lat="44.65188" lon="0.66167">
        <ele>78.1</ele>
        <time>2022-10-15T08:09:12Z</time>
      </trkpt>
      <trkpt lat="44.65184" lon="0.66164">
        <ele>78.1</ele>
        <time>2022-10-15T08:09:13Z</time>
      </trkpt>
      <trkpt lat="44.65171" lon="0.66155">
        <ele>78.3</ele>
        <time>2022-10-15T08:09:16Z</time>
      </trkpt>
      <trkpt lat="44.65167" lon="0.66151">
        <ele>78.6</ele>
        <time>2022-10-15T08:09:17Z</time>
      </trkpt>
      <trkpt lat="44.65145" lon="0.66131">
        <ele>79.7</ele>
        <time>2022-10-15T08:09:23Z</time>
      </trkpt>
      <trkpt lat="44.65124" lon="0.66115">
        <ele>82.8</ele>
        <time>2022-10-15T08:09:29Z</time>
      </trkpt>
      <trkpt lat="44.65105" lon="0.66106">
        <ele>84.9</ele>
        <time>2022-10-15T08:09:35Z</time>
      </trkpt>
      <trkpt lat="44.65081" lon="0.66094">
        <ele>85.6</ele>
        <time>2022-10-15T08:09:42Z</time>
      </trkpt>
      <trkpt lat="44.65077" lon="0.66087">
        <ele>85.8</ele>
        <time>2022-10-15T08:09:44Z</time>
      </trkpt>
      <trkpt lat="44.65077" lon="0.66083">
        <ele>85.8</ele>
        <time>2022-10-15T08:09:45Z</time>
      </trkpt>
      <trkpt lat="44.65076" lon="0.66066">
        <ele>86</ele>
        <time>2022-10-15T08:09:49Z</time>
      </trkpt>
      <trkpt lat="44.65076" lon="0.66059">
        <ele>85.9</ele>
        <time>2022-10-15T08:09:50Z</time>
      </trkpt>
      <trkpt lat="44.65076" lon="0.66026">
        <ele>85.8</ele>
        <time>2022-10-15T08:09:54Z</time>
      </trkpt>
      <trkpt lat="44.65074" lon="0.66005">
        <ele>85.2</ele>
        <time>2022-10-15T08:09:56Z</time>
      </trkpt>
      <trkpt lat="44.65074" lon="0.65981">
        <ele>83.9</ele>
        <time>2022-10-15T08:09:58Z</time>
      </trkpt>
      <trkpt lat="44.65076" lon="0.65941">
        <ele>83.4</ele>
        <time>2022-10-15T08:10:02Z</time>
      </trkpt>
      <trkpt lat="44.65072" lon="0.65928">
        <ele>83.2</ele>
        <time>2022-10-15T08:10:04Z</time>
      </trkpt>
      <trkpt lat="44.65069" lon="0.65923">
        <ele>83.7</ele>
        <time>2022-10-15T08:10:05Z</time>
      </trkpt>
      <trkpt lat="44.65054" lon="0.65901">
        <ele>84.1</ele>
        <time>2022-10-15T08:10:10Z</time>
      </trkpt>
      <trkpt lat="44.65048" lon="0.6589">
        <ele>83.9</ele>
        <time>2022-10-15T08:10:12Z</time>
      </trkpt>
      <trkpt lat="44.65044" lon="0.65881">
        <ele>84.6</ele>
        <time>2022-10-15T08:10:14Z</time>
      </trkpt>
      <trkpt lat="44.6504" lon="0.65864">
        <ele>85.1</ele>
        <time>2022-10-15T08:10:18Z</time>
      </trkpt>
      <trkpt lat="44.65035" lon="0.65845">
        <ele>85.8</ele>
        <time>2022-10-15T08:10:23Z</time>
      </trkpt>
      <trkpt lat="44.65029" lon="0.65828">
        <ele>87.3</ele>
        <time>2022-10-15T08:10:28Z</time>
      </trkpt>
      <trkpt lat="44.65022" lon="0.65808">
        <ele>87.9</ele>
        <time>2022-10-15T08:10:33Z</time>
      </trkpt>
      <trkpt lat="44.65016" lon="0.65788">
        <ele>89.8</ele>
        <time>2022-10-15T08:10:38Z</time>
      </trkpt>
      <trkpt lat="44.65009" lon="0.65767">
        <ele>91.5</ele>
        <time>2022-10-15T08:10:43Z</time>
      </trkpt>
      <trkpt lat="44.65003" lon="0.6574">
        <ele>92.4</ele>
        <time>2022-10-15T08:10:48Z</time>
      </trkpt>
      <trkpt lat="44.64997" lon="0.65711">
        <ele>94.4</ele>
        <time>2022-10-15T08:10:54Z</time>
      </trkpt>
      <trkpt lat="44.64993" lon="0.65686">
        <ele>94.7</ele>
        <time>2022-10-15T08:10:59Z</time>
      </trkpt>
      <trkpt lat="44.64986" lon="0.65653">
        <ele>94.8</ele>
        <time>2022-10-15T08:11:05Z</time>
      </trkpt>
      <trkpt lat="44.64982" lon="0.65625">
        <ele>96.3</ele>
        <time>2022-10-15T08:11:10Z</time>
      </trkpt>
      <trkpt lat="44.6498" lon="0.65589">
        <ele>96.5</ele>
        <time>2022-10-15T08:11:16Z</time>
      </trkpt>
      <trkpt lat="44.64976" lon="0.65561">
        <ele>96.5</ele>
        <time>2022-10-15T08:11:21Z</time>
      </trkpt>
      <trkpt lat="44.64973" lon="0.65531">
        <ele>95.7</ele>
        <time>2022-10-15T08:11:26Z</time>
      </trkpt>
      <trkpt lat="44.6497" lon="0.65499">
        <ele>95.3</ele>
        <time>2022-10-15T08:11:31Z</time>
      </trkpt>
      <trkpt lat="44.64969" lon="0.65472">
        <ele>94.2</ele>
        <time>2022-10-15T08:11:35Z</time>
      </trkpt>
      <trkpt lat="44.64969" lon="0.65466">
        <ele>93.3</ele>
        <time>2022-10-15T08:11:36Z</time>
      </trkpt>
      <trkpt lat="44.64965" lon="0.65451">
        <ele>92.5</ele>
        <time>2022-10-15T08:11:38Z</time>
      </trkpt>
      <trkpt lat="44.64963" lon="0.65444">
        <ele>92.5</ele>
        <time>2022-10-15T08:11:39Z</time>
      </trkpt>
      <trkpt lat="44.64957" lon="0.65424">
        <ele>92.4</ele>
        <time>2022-10-15T08:11:42Z</time>
      </trkpt>
      <trkpt lat="44.64955" lon="0.65416">
        <ele>91.5</ele>
        <time>2022-10-15T08:11:43Z</time>
      </trkpt>
      <trkpt lat="44.64947" lon="0.65382">
        <ele>90.9</ele>
        <time>2022-10-15T08:11:48Z</time>
      </trkpt>
      <trkpt lat="44.6494" lon="0.65354">
        <ele>90.5</ele>
        <time>2022-10-15T08:11:52Z</time>
      </trkpt>
      <trkpt lat="44.64938" lon="0.65339">
        <ele>90.4</ele>
        <time>2022-10-15T08:11:54Z</time>
      </trkpt>
      <trkpt lat="44.64925" lon="0.65294">
        <ele>90.3</ele>
        <time>2022-10-15T08:12:00Z</time>
      </trkpt>
      <trkpt lat="44.64919" lon="0.65273">
        <ele>90.4</ele>
        <time>2022-10-15T08:12:03Z</time>
      </trkpt>
      <trkpt lat="44.64914" lon="0.65255">
        <ele>90.5</ele>
        <time>2022-10-15T08:12:06Z</time>
      </trkpt>
      <trkpt lat="44.64907" lon="0.65231">
        <ele>90.7</ele>
        <time>2022-10-15T08:12:10Z</time>
      </trkpt>
      <trkpt lat="44.64904" lon="0.65218">
        <ele>90.7</ele>
        <time>2022-10-15T08:12:12Z</time>
      </trkpt>
      <trkpt lat="44.6489" lon="0.65173">
        <ele>90.8</ele>
        <time>2022-10-15T08:12:19Z</time>
      </trkpt>
      <trkpt lat="44.64878" lon="0.65132">
        <ele>90.6</ele>
        <time>2022-10-15T08:12:25Z</time>
      </trkpt>
      <trkpt lat="44.64874" lon="0.65118">
        <ele>90.5</ele>
        <time>2022-10-15T08:12:27Z</time>
      </trkpt>
      <trkpt lat="44.64872" lon="0.65095">
        <ele>90.2</ele>
        <time>2022-10-15T08:12:30Z</time>
      </trkpt>
      <trkpt lat="44.64868" lon="0.65046">
        <ele>89.5</ele>
        <time>2022-10-15T08:12:36Z</time>
      </trkpt>
      <trkpt lat="44.64869" lon="0.65038">
        <ele>89.3</ele>
        <time>2022-10-15T08:12:37Z</time>
      </trkpt>
      <trkpt lat="44.64871" lon="0.65007">
        <ele>88.7</ele>
        <time>2022-10-15T08:12:41Z</time>
      </trkpt>
      <trkpt lat="44.6487" lon="0.64992">
        <ele>88.5</ele>
        <time>2022-10-15T08:12:43Z</time>
      </trkpt>
      <trkpt lat="44.64866" lon="0.64972">
        <ele>88.3</ele>
        <time>2022-10-15T08:12:46Z</time>
      </trkpt>
      <trkpt lat="44.64852" lon="0.64925">
        <ele>88.8</ele>
        <time>2022-10-15T08:12:53Z</time>
      </trkpt>
      <trkpt lat="44.64842" lon="0.64887">
        <ele>89.4</ele>
        <time>2022-10-15T08:12:59Z</time>
      </trkpt>
      <trkpt lat="44.6484" lon="0.6488">
        <ele>89.5</ele>
        <time>2022-10-15T08:13:00Z</time>
      </trkpt>
      <trkpt lat="44.64834" lon="0.6486">
        <ele>89.9</ele>
        <time>2022-10-15T08:13:03Z</time>
      </trkpt>
      <trkpt lat="44.64827" lon="0.64842">
        <ele>90.2</ele>
        <time>2022-10-15T08:13:06Z</time>
      </trkpt>
      <trkpt lat="44.64824" lon="0.64828">
        <ele>90.5</ele>
        <time>2022-10-15T08:13:08Z</time>
      </trkpt>
      <trkpt lat="44.64814" lon="0.6479">
        <ele>91.1</ele>
        <time>2022-10-15T08:13:14Z</time>
      </trkpt>
      <trkpt lat="44.64802" lon="0.64747">
        <ele>91.7</ele>
        <time>2022-10-15T08:13:21Z</time>
      </trkpt>
      <trkpt lat="44.64793" lon="0.64725">
        <ele>92.1</ele>
        <time>2022-10-15T08:13:25Z</time>
      </trkpt>
      <trkpt lat="44.64788" lon="0.64716">
        <ele>92.4</ele>
        <time>2022-10-15T08:13:27Z</time>
      </trkpt>
      <trkpt lat="44.64779" lon="0.64698">
        <ele>92.9</ele>
        <time>2022-10-15T08:13:31Z</time>
      </trkpt>
      <trkpt lat="44.64785" lon="0.64688">
        <ele>92.9</ele>
        <time>2022-10-15T08:13:34Z</time>
      </trkpt>
      <trkpt lat="44.64799" lon="0.64684">
        <ele>92.6</ele>
        <time>2022-10-15T08:13:37Z</time>
      </trkpt>
      <trkpt lat="44.64809" lon="0.6468">
        <ele>92.3</ele>
        <time>2022-10-15T08:13:39Z</time>
      </trkpt>
      <trkpt lat="44.64844" lon="0.64669">
        <ele>91.5</ele>
        <time>2022-10-15T08:13:45Z</time>
      </trkpt>
      <trkpt lat="44.6489" lon="0.64656">
        <ele>90.5</ele>
        <time>2022-10-15T08:13:53Z</time>
      </trkpt>
      <trkpt lat="44.64918" lon="0.64649">
        <ele>89.9</ele>
        <time>2022-10-15T08:13:58Z</time>
      </trkpt>
      <trkpt lat="44.64923" lon="0.64648">
        <ele>89.7</ele>
        <time>2022-10-15T08:13:59Z</time>
      </trkpt>
      <trkpt lat="44.64934" lon="0.64642">
        <ele>89.5</ele>
        <time>2022-10-15T08:14:01Z</time>
      </trkpt>
      <trkpt lat="44.64938" lon="0.64637">
        <ele>89.4</ele>
        <time>2022-10-15T08:14:02Z</time>
      </trkpt>
      <trkpt lat="44.64951" lon="0.6463">
        <ele>89.1</ele>
        <time>2022-10-15T08:14:05Z</time>
      </trkpt>
      <trkpt lat="44.64956" lon="0.6463">
        <ele>89</ele>
        <time>2022-10-15T08:14:06Z</time>
      </trkpt>
      <trkpt lat="44.64961" lon="0.64631">
        <ele>88.8</ele>
        <time>2022-10-15T08:14:07Z</time>
      </trkpt>
      <trkpt lat="44.64971" lon="0.64636">
        <ele>88.6</ele>
        <time>2022-10-15T08:14:09Z</time>
      </trkpt>
      <trkpt lat="44.65001" lon="0.64654">
        <ele>87.9</ele>
        <time>2022-10-15T08:14:14Z</time>
      </trkpt>
      <trkpt lat="44.65032" lon="0.64673">
        <ele>87.1</ele>
        <time>2022-10-15T08:14:20Z</time>
      </trkpt>
      <trkpt lat="44.65042" lon="0.64674">
        <ele>86.9</ele>
        <time>2022-10-15T08:14:22Z</time>
      </trkpt>
      <trkpt lat="44.65046" lon="0.64671">
        <ele>86.9</ele>
        <time>2022-10-15T08:14:23Z</time>
      </trkpt>
      <trkpt lat="44.65048" lon="0.64665">
        <ele>87</ele>
        <time>2022-10-15T08:14:24Z</time>
      </trkpt>
      <trkpt lat="44.6505" lon="0.64652">
        <ele>87</ele>
        <time>2022-10-15T08:14:26Z</time>
      </trkpt>
      <trkpt lat="44.65053" lon="0.64646">
        <ele>87.1</ele>
        <time>2022-10-15T08:14:27Z</time>
      </trkpt>
      <trkpt lat="44.65056" lon="0.64641">
        <ele>87.1</ele>
        <time>2022-10-15T08:14:28Z</time>
      </trkpt>
      <trkpt lat="44.65063" lon="0.64632">
        <ele>87.1</ele>
        <time>2022-10-15T08:14:30Z</time>
      </trkpt>
      <trkpt lat="44.65068" lon="0.64614">
        <ele>87.3</ele>
        <time>2022-10-15T08:14:33Z</time>
      </trkpt>
      <trkpt lat="44.65069" lon="0.64602">
        <ele>87.4</ele>
        <time>2022-10-15T08:14:35Z</time>
      </trkpt>
      <trkpt lat="44.6507" lon="0.64595">
        <ele>87.5</ele>
        <time>2022-10-15T08:14:36Z</time>
      </trkpt>
      <trkpt lat="44.65071" lon="0.64588">
        <ele>87.6</ele>
        <time>2022-10-15T08:14:37Z</time>
      </trkpt>
      <trkpt lat="44.65076" lon="0.64566">
        <ele>87.6</ele>
        <time>2022-10-15T08:14:40Z</time>
      </trkpt>
      <trkpt lat="44.65084" lon="0.64523">
        <ele>87.5</ele>
        <time>2022-10-15T08:14:45Z</time>
      </trkpt>
      <trkpt lat="44.65091" lon="0.64481">
        <ele>87.5</ele>
        <time>2022-10-15T08:14:49Z</time>
      </trkpt>
      <trkpt lat="44.65096" lon="0.64448">
        <ele>88</ele>
        <time>2022-10-15T08:14:52Z</time>
      </trkpt>
      <trkpt lat="44.65097" lon="0.64436">
        <ele>88.3</ele>
        <time>2022-10-15T08:14:53Z</time>
      </trkpt>
      <trkpt lat="44.65098" lon="0.64425">
        <ele>88.3</ele>
        <time>2022-10-15T08:14:54Z</time>
      </trkpt>
      <trkpt lat="44.65104" lon="0.6441">
        <ele>88.6</ele>
        <time>2022-10-15T08:14:56Z</time>
      </trkpt>
      <trkpt lat="44.65108" lon="0.64396">
        <ele>89.4</ele>
        <time>2022-10-15T08:14:58Z</time>
      </trkpt>
      <trkpt lat="44.6511" lon="0.64385">
        <ele>90</ele>
        <time>2022-10-15T08:15:00Z</time>
      </trkpt>
      <trkpt lat="44.65114" lon="0.6437">
        <ele>90.5</ele>
        <time>2022-10-15T08:15:04Z</time>
      </trkpt>
      <trkpt lat="44.65121" lon="0.64345">
        <ele>91.3</ele>
        <time>2022-10-15T08:15:10Z</time>
      </trkpt>
      <trkpt lat="44.65126" lon="0.64327">
        <ele>91.6</ele>
        <time>2022-10-15T08:15:14Z</time>
      </trkpt>
      <trkpt lat="44.65132" lon="0.64306">
        <ele>91.9</ele>
        <time>2022-10-15T08:15:19Z</time>
      </trkpt>
      <trkpt lat="44.65136" lon="0.64288">
        <ele>91.8</ele>
        <time>2022-10-15T08:15:23Z</time>
      </trkpt>
      <trkpt lat="44.65145" lon="0.64251">
        <ele>91.1</ele>
        <time>2022-10-15T08:15:30Z</time>
      </trkpt>
      <trkpt lat="44.65146" lon="0.64239">
        <ele>91</ele>
        <time>2022-10-15T08:15:32Z</time>
      </trkpt>
      <trkpt lat="44.65141" lon="0.6423">
        <ele>90.2</ele>
        <time>2022-10-15T08:15:34Z</time>
      </trkpt>
      <trkpt lat="44.65121" lon="0.64206">
        <ele>91.1</ele>
        <time>2022-10-15T08:15:41Z</time>
      </trkpt>
      <trkpt lat="44.65108" lon="0.64191">
        <ele>91.6</ele>
        <time>2022-10-15T08:15:45Z</time>
      </trkpt>
      <trkpt lat="44.65102" lon="0.64183">
        <ele>91.8</ele>
        <time>2022-10-15T08:15:47Z</time>
      </trkpt>
      <trkpt lat="44.65079" lon="0.64152">
        <ele>92.2</ele>
        <time>2022-10-15T08:15:55Z</time>
      </trkpt>
      <trkpt lat="44.65076" lon="0.64148">
        <ele>92.3</ele>
        <time>2022-10-15T08:15:56Z</time>
      </trkpt>
      <trkpt lat="44.65073" lon="0.64138">
        <ele>92.3</ele>
        <time>2022-10-15T08:15:58Z</time>
      </trkpt>
      <trkpt lat="44.65083" lon="0.64124">
        <ele>92.3</ele>
        <time>2022-10-15T08:16:01Z</time>
      </trkpt>
      <trkpt lat="44.65099" lon="0.64108">
        <ele>92.2</ele>
        <time>2022-10-15T08:16:05Z</time>
      </trkpt>
      <trkpt lat="44.65108" lon="0.64101">
        <ele>92.1</ele>
        <time>2022-10-15T08:16:07Z</time>
      </trkpt>
      <trkpt lat="44.65139" lon="0.64072">
        <ele>91.9</ele>
        <time>2022-10-15T08:16:14Z</time>
      </trkpt>
      <trkpt lat="44.65161" lon="0.6405">
        <ele>91.8</ele>
        <time>2022-10-15T08:16:19Z</time>
      </trkpt>
      <trkpt lat="44.6517" lon="0.64042">
        <ele>91.7</ele>
        <time>2022-10-15T08:16:21Z</time>
      </trkpt>
      <trkpt lat="44.65183" lon="0.6403">
        <ele>91.7</ele>
        <time>2022-10-15T08:16:24Z</time>
      </trkpt>
      <trkpt lat="44.65191" lon="0.64021">
        <ele>91.5</ele>
        <time>2022-10-15T08:16:26Z</time>
      </trkpt>
      <trkpt lat="44.65199" lon="0.64012">
        <ele>91.2</ele>
        <time>2022-10-15T08:16:28Z</time>
      </trkpt>
      <trkpt lat="44.65204" lon="0.64008">
        <ele>91.1</ele>
        <time>2022-10-15T08:16:29Z</time>
      </trkpt>
      <trkpt lat="44.65217" lon="0.63996">
        <ele>90.7</ele>
        <time>2022-10-15T08:16:32Z</time>
      </trkpt>
      <trkpt lat="44.65222" lon="0.63991">
        <ele>90.6</ele>
        <time>2022-10-15T08:16:33Z</time>
      </trkpt>
      <trkpt lat="44.65226" lon="0.63987">
        <ele>90.5</ele>
        <time>2022-10-15T08:16:34Z</time>
      </trkpt>
      <trkpt lat="44.65239" lon="0.63974">
        <ele>90.3</ele>
        <time>2022-10-15T08:16:37Z</time>
      </trkpt>
      <trkpt lat="44.65267" lon="0.63946">
        <ele>89.7</ele>
        <time>2022-10-15T08:16:43Z</time>
      </trkpt>
      <trkpt lat="44.65271" lon="0.63942">
        <ele>89.6</ele>
        <time>2022-10-15T08:16:44Z</time>
      </trkpt>
      <trkpt lat="44.65287" lon="0.63922">
        <ele>89.3</ele>
        <time>2022-10-15T08:16:48Z</time>
      </trkpt>
      <trkpt lat="44.653" lon="0.6391">
        <ele>89.1</ele>
        <time>2022-10-15T08:16:51Z</time>
      </trkpt>
      <trkpt lat="44.65312" lon="0.63893">
        <ele>88.7</ele>
        <time>2022-10-15T08:16:54Z</time>
      </trkpt>
      <trkpt lat="44.65343" lon="0.63864">
        <ele>87.9</ele>
        <time>2022-10-15T08:17:00Z</time>
      </trkpt>
      <trkpt lat="44.65358" lon="0.63849">
        <ele>87.7</ele>
        <time>2022-10-15T08:17:03Z</time>
      </trkpt>
      <trkpt lat="44.65368" lon="0.63839">
        <ele>87.5</ele>
        <time>2022-10-15T08:17:05Z</time>
      </trkpt>
      <trkpt lat="44.65386" lon="0.63819">
        <ele>87.1</ele>
        <time>2022-10-15T08:17:08Z</time>
      </trkpt>
      <trkpt lat="44.65399" lon="0.63809">
        <ele>86.9</ele>
        <time>2022-10-15T08:17:10Z</time>
      </trkpt>
      <trkpt lat="44.6541" lon="0.63802">
        <ele>86.6</ele>
        <time>2022-10-15T08:17:12Z</time>
      </trkpt>
      <trkpt lat="44.65423" lon="0.63798">
        <ele>86.4</ele>
        <time>2022-10-15T08:17:14Z</time>
      </trkpt>
      <trkpt lat="44.65431" lon="0.63796">
        <ele>86.3</ele>
        <time>2022-10-15T08:17:15Z</time>
      </trkpt>
      <trkpt lat="44.65452" lon="0.63791">
        <ele>86.2</ele>
        <time>2022-10-15T08:17:18Z</time>
      </trkpt>
      <trkpt lat="44.65464" lon="0.63792">
        <ele>86.1</ele>
        <time>2022-10-15T08:17:20Z</time>
      </trkpt>
      <trkpt lat="44.65474" lon="0.63795">
        <ele>86</ele>
        <time>2022-10-15T08:17:22Z</time>
      </trkpt>
      <trkpt lat="44.65507" lon="0.63802">
        <ele>85.8</ele>
        <time>2022-10-15T08:17:27Z</time>
      </trkpt>
      <trkpt lat="44.65538" lon="0.63801">
        <ele>85.3</ele>
        <time>2022-10-15T08:17:32Z</time>
      </trkpt>
      <trkpt lat="44.65578" lon="0.638">
        <ele>84.5</ele>
        <time>2022-10-15T08:17:39Z</time>
      </trkpt>
      <trkpt lat="44.65584" lon="0.63799">
        <ele>84.3</ele>
        <time>2022-10-15T08:17:40Z</time>
      </trkpt>
      <trkpt lat="44.65599" lon="0.63794">
        <ele>83.7</ele>
        <time>2022-10-15T08:17:43Z</time>
      </trkpt>
      <trkpt lat="44.65609" lon="0.63787">
        <ele>83.1</ele>
        <time>2022-10-15T08:17:45Z</time>
      </trkpt>
      <trkpt lat="44.65619" lon="0.63777">
        <ele>82.1</ele>
        <time>2022-10-15T08:17:47Z</time>
      </trkpt>
      <trkpt lat="44.6563" lon="0.63766">
        <ele>80.4</ele>
        <time>2022-10-15T08:17:49Z</time>
      </trkpt>
      <trkpt lat="44.65641" lon="0.63754">
        <ele>79.1</ele>
        <time>2022-10-15T08:17:51Z</time>
      </trkpt>
      <trkpt lat="44.65652" lon="0.63752">
        <ele>78.2</ele>
        <time>2022-10-15T08:17:53Z</time>
      </trkpt>
      <trkpt lat="44.65669" lon="0.63755">
        <ele>77.7</ele>
        <time>2022-10-15T08:17:56Z</time>
      </trkpt>
      <trkpt lat="44.65673" lon="0.63754">
        <ele>77.6</ele>
        <time>2022-10-15T08:17:57Z</time>
      </trkpt>
      <trkpt lat="44.65678" lon="0.63741">
        <ele>77.3</ele>
        <time>2022-10-15T08:18:00Z</time>
      </trkpt>
      <trkpt lat="44.6568" lon="0.6371">
        <ele>76.7</ele>
        <time>2022-10-15T08:18:05Z</time>
      </trkpt>
      <trkpt lat="44.65679" lon="0.63658">
        <ele>75.7</ele>
        <time>2022-10-15T08:18:12Z</time>
      </trkpt>
      <trkpt lat="44.65674" lon="0.63618">
        <ele>75.5</ele>
        <time>2022-10-15T08:18:17Z</time>
      </trkpt>
      <trkpt lat="44.65673" lon="0.63603">
        <ele>75.5</ele>
        <time>2022-10-15T08:18:19Z</time>
      </trkpt>
      <trkpt lat="44.65669" lon="0.6359">
        <ele>75.7</ele>
        <time>2022-10-15T08:18:21Z</time>
      </trkpt>
      <trkpt lat="44.65663" lon="0.63582">
        <ele>75.9</ele>
        <time>2022-10-15T08:18:23Z</time>
      </trkpt>
      <trkpt lat="44.65658" lon="0.6358">
        <ele>76</ele>
        <time>2022-10-15T08:18:24Z</time>
      </trkpt>
      <trkpt lat="44.65645" lon="0.63572">
        <ele>76.5</ele>
        <time>2022-10-15T08:18:27Z</time>
      </trkpt>
      <trkpt lat="44.65633" lon="0.63563">
        <ele>77.3</ele>
        <time>2022-10-15T08:18:30Z</time>
      </trkpt>
      <trkpt lat="44.65607" lon="0.63548">
        <ele>79.4</ele>
        <time>2022-10-15T08:18:37Z</time>
      </trkpt>
      <trkpt lat="44.65591" lon="0.63532">
        <ele>81.1</ele>
        <time>2022-10-15T08:18:43Z</time>
      </trkpt>
      <trkpt lat="44.65585" lon="0.63504">
        <ele>83</ele>
        <time>2022-10-15T08:18:50Z</time>
      </trkpt>
      <trkpt lat="44.65583" lon="0.63488">
        <ele>84</ele>
        <time>2022-10-15T08:18:55Z</time>
      </trkpt>
      <trkpt lat="44.6558" lon="0.6347">
        <ele>85</ele>
        <time>2022-10-15T08:19:01Z</time>
      </trkpt>
      <trkpt lat="44.65573" lon="0.63443">
        <ele>85.7</ele>
        <time>2022-10-15T08:19:08Z</time>
      </trkpt>
      <trkpt lat="44.65569" lon="0.63417">
        <ele>85.9</ele>
        <time>2022-10-15T08:19:13Z</time>
      </trkpt>
      <trkpt lat="44.65568" lon="0.63406">
        <ele>85.9</ele>
        <time>2022-10-15T08:19:15Z</time>
      </trkpt>
      <trkpt lat="44.65566" lon="0.63393">
        <ele>86</ele>
        <time>2022-10-15T08:19:17Z</time>
      </trkpt>
      <trkpt lat="44.6556" lon="0.63354">
        <ele>85.9</ele>
        <time>2022-10-15T08:19:24Z</time>
      </trkpt>
      <trkpt lat="44.65559" lon="0.6331">
        <ele>84.9</ele>
        <time>2022-10-15T08:19:31Z</time>
      </trkpt>
      <trkpt lat="44.6556" lon="0.63272">
        <ele>84.1</ele>
        <time>2022-10-15T08:19:37Z</time>
      </trkpt>
      <trkpt lat="44.65563" lon="0.63215">
        <ele>83.1</ele>
        <time>2022-10-15T08:19:44Z</time>
      </trkpt>
      <trkpt lat="44.65562" lon="0.63155">
        <ele>82</ele>
        <time>2022-10-15T08:19:50Z</time>
      </trkpt>
      <trkpt lat="44.65554" lon="0.63101">
        <ele>82.7</ele>
        <time>2022-10-15T08:19:56Z</time>
      </trkpt>
      <trkpt lat="44.65546" lon="0.63038">
        <ele>83.4</ele>
        <time>2022-10-15T08:20:04Z</time>
      </trkpt>
      <trkpt lat="44.65548" lon="0.62981">
        <ele>83.2</ele>
        <time>2022-10-15T08:20:11Z</time>
      </trkpt>
      <trkpt lat="44.6555" lon="0.62933">
        <ele>83.2</ele>
        <time>2022-10-15T08:20:17Z</time>
      </trkpt>
      <trkpt lat="44.65554" lon="0.62889">
        <ele>83.3</ele>
        <time>2022-10-15T08:20:23Z</time>
      </trkpt>
      <trkpt lat="44.65557" lon="0.62841">
        <ele>83.3</ele>
        <time>2022-10-15T08:20:29Z</time>
      </trkpt>
      <trkpt lat="44.6556" lon="0.62825">
        <ele>83.1</ele>
        <time>2022-10-15T08:20:31Z</time>
      </trkpt>
      <trkpt lat="44.65567" lon="0.62768">
        <ele>82.3</ele>
        <time>2022-10-15T08:20:38Z</time>
      </trkpt>
      <trkpt lat="44.65574" lon="0.62717">
        <ele>82.1</ele>
        <time>2022-10-15T08:20:44Z</time>
      </trkpt>
      <trkpt lat="44.65579" lon="0.62664">
        <ele>82.6</ele>
        <time>2022-10-15T08:20:51Z</time>
      </trkpt>
      <trkpt lat="44.65581" lon="0.62631">
        <ele>82.6</ele>
        <time>2022-10-15T08:20:56Z</time>
      </trkpt>
      <trkpt lat="44.65581" lon="0.62615">
        <ele>82.7</ele>
        <time>2022-10-15T08:20:58Z</time>
      </trkpt>
      <trkpt lat="44.6558" lon="0.626">
        <ele>82.8</ele>
        <time>2022-10-15T08:21:00Z</time>
      </trkpt>
      <trkpt lat="44.6558" lon="0.62559">
        <ele>82.7</ele>
        <time>2022-10-15T08:21:06Z</time>
      </trkpt>
      <trkpt lat="44.65581" lon="0.62527">
        <ele>80.7</ele>
        <time>2022-10-15T08:21:10Z</time>
      </trkpt>
      <trkpt lat="44.65582" lon="0.6248">
        <ele>76</ele>
        <time>2022-10-15T08:21:14Z</time>
      </trkpt>
      <trkpt lat="44.65583" lon="0.62408">
        <ele>72</ele>
        <time>2022-10-15T08:21:19Z</time>
      </trkpt>
      <trkpt lat="44.65582" lon="0.62397">
        <ele>71.8</ele>
        <time>2022-10-15T08:21:20Z</time>
      </trkpt>
      <trkpt lat="44.65578" lon="0.62378">
        <ele>71.6</ele>
        <time>2022-10-15T08:21:22Z</time>
      </trkpt>
      <trkpt lat="44.65566" lon="0.62328">
        <ele>71.4</ele>
        <time>2022-10-15T08:21:28Z</time>
      </trkpt>
      <trkpt lat="44.6556" lon="0.62306">
        <ele>71.6</ele>
        <time>2022-10-15T08:21:31Z</time>
      </trkpt>
      <trkpt lat="44.65558" lon="0.62299">
        <ele>71.7</ele>
        <time>2022-10-15T08:21:32Z</time>
      </trkpt>
      <trkpt lat="44.6555" lon="0.62271">
        <ele>72.2</ele>
        <time>2022-10-15T08:21:36Z</time>
      </trkpt>
      <trkpt lat="44.65549" lon="0.62265">
        <ele>72.4</ele>
        <time>2022-10-15T08:21:37Z</time>
      </trkpt>
      <trkpt lat="44.65538" lon="0.62216">
        <ele>73.6</ele>
        <time>2022-10-15T08:21:44Z</time>
      </trkpt>
      <trkpt lat="44.65535" lon="0.62202">
        <ele>74</ele>
        <time>2022-10-15T08:21:46Z</time>
      </trkpt>
      <trkpt lat="44.65529" lon="0.62175">
        <ele>74.6</ele>
        <time>2022-10-15T08:21:50Z</time>
      </trkpt>
      <trkpt lat="44.65514" lon="0.62117">
        <ele>75.3</ele>
        <time>2022-10-15T08:21:59Z</time>
      </trkpt>
      <trkpt lat="44.65499" lon="0.62058">
        <ele>75.7</ele>
        <time>2022-10-15T08:22:08Z</time>
      </trkpt>
      <trkpt lat="44.65487" lon="0.62006">
        <ele>76.2</ele>
        <time>2022-10-15T08:22:16Z</time>
      </trkpt>
      <trkpt lat="44.65476" lon="0.61953">
        <ele>76.6</ele>
        <time>2022-10-15T08:22:24Z</time>
      </trkpt>
      <trkpt lat="44.65475" lon="0.61947">
        <ele>76.7</ele>
        <time>2022-10-15T08:22:25Z</time>
      </trkpt>
      <trkpt lat="44.65469" lon="0.61904">
        <ele>77.2</ele>
        <time>2022-10-15T08:22:32Z</time>
      </trkpt>
      <trkpt lat="44.6547" lon="0.61899">
        <ele>77.3</ele>
        <time>2022-10-15T08:22:33Z</time>
      </trkpt>
      <trkpt lat="44.65476" lon="0.61895">
        <ele>77.2</ele>
        <time>2022-10-15T08:22:35Z</time>
      </trkpt>
      <trkpt lat="44.6548" lon="0.61894">
        <ele>77.2</ele>
        <time>2022-10-15T08:22:36Z</time>
      </trkpt>
      <trkpt lat="44.65498" lon="0.61886">
        <ele>77.1</ele>
        <time>2022-10-15T08:22:40Z</time>
      </trkpt>
      <trkpt lat="44.65542" lon="0.61866">
        <ele>77.1</ele>
        <time>2022-10-15T08:22:49Z</time>
      </trkpt>
      <trkpt lat="44.65578" lon="0.61846">
        <ele>77.9</ele>
        <time>2022-10-15T08:22:57Z</time>
      </trkpt>
      <trkpt lat="44.6559" lon="0.61841">
        <ele>78.3</ele>
        <time>2022-10-15T08:23:00Z</time>
      </trkpt>
      <trkpt lat="44.65598" lon="0.61845">
        <ele>78.6</ele>
        <time>2022-10-15T08:23:02Z</time>
      </trkpt>
      <trkpt lat="44.65605" lon="0.6185">
        <ele>78.6</ele>
        <time>2022-10-15T08:23:04Z</time>
      </trkpt>
      <trkpt lat="44.65609" lon="0.61849">
        <ele>78.6</ele>
        <time>2022-10-15T08:23:05Z</time>
      </trkpt>
      <trkpt lat="44.65613" lon="0.61848">
        <ele>78.6</ele>
        <time>2022-10-15T08:23:06Z</time>
      </trkpt>
      <trkpt lat="44.65624" lon="0.61838">
        <ele>78.7</ele>
        <time>2022-10-15T08:23:09Z</time>
      </trkpt>
      <trkpt lat="44.65638" lon="0.61826">
        <ele>78.8</ele>
        <time>2022-10-15T08:23:13Z</time>
      </trkpt>
      <trkpt lat="44.65641" lon="0.61822">
        <ele>78.8</ele>
        <time>2022-10-15T08:23:14Z</time>
      </trkpt>
      <trkpt lat="44.65643" lon="0.61818">
        <ele>78.9</ele>
        <time>2022-10-15T08:23:15Z</time>
      </trkpt>
      <trkpt lat="44.65647" lon="0.61807">
        <ele>79.1</ele>
        <time>2022-10-15T08:23:17Z</time>
      </trkpt>
      <trkpt lat="44.65647" lon="0.61801">
        <ele>79.2</ele>
        <time>2022-10-15T08:23:18Z</time>
      </trkpt>
      <trkpt lat="44.65647" lon="0.61795">
        <ele>79.3</ele>
        <time>2022-10-15T08:23:19Z</time>
      </trkpt>
      <trkpt lat="44.65646" lon="0.61771">
        <ele>79.9</ele>
        <time>2022-10-15T08:23:23Z</time>
      </trkpt>
      <trkpt lat="44.6565" lon="0.61743">
        <ele>80.7</ele>
        <time>2022-10-15T08:23:29Z</time>
      </trkpt>
      <trkpt lat="44.65666" lon="0.61721">
        <ele>81.3</ele>
        <time>2022-10-15T08:23:35Z</time>
      </trkpt>
      <trkpt lat="44.65688" lon="0.61694">
        <ele>81.8</ele>
        <time>2022-10-15T08:23:43Z</time>
      </trkpt>
      <trkpt lat="44.65703" lon="0.61674">
        <ele>82.3</ele>
        <time>2022-10-15T08:23:49Z</time>
      </trkpt>
      <trkpt lat="44.6572" lon="0.61649">
        <ele>83.4</ele>
        <time>2022-10-15T08:23:56Z</time>
      </trkpt>
      <trkpt lat="44.65735" lon="0.61624">
        <ele>84.5</ele>
        <time>2022-10-15T08:24:02Z</time>
      </trkpt>
      <trkpt lat="44.65749" lon="0.61604">
        <ele>85.7</ele>
        <time>2022-10-15T08:24:08Z</time>
      </trkpt>
      <trkpt lat="44.65765" lon="0.61579">
        <ele>87</ele>
        <time>2022-10-15T08:24:15Z</time>
      </trkpt>
      <trkpt lat="44.65783" lon="0.61551">
        <ele>88.1</ele>
        <time>2022-10-15T08:24:23Z</time>
      </trkpt>
      <trkpt lat="44.65802" lon="0.61524">
        <ele>88.5</ele>
        <time>2022-10-15T08:24:31Z</time>
      </trkpt>
      <trkpt lat="44.65817" lon="0.61503">
        <ele>88.5</ele>
        <time>2022-10-15T08:24:37Z</time>
      </trkpt>
      <trkpt lat="44.6582" lon="0.61482">
        <ele>88.5</ele>
        <time>2022-10-15T08:24:41Z</time>
      </trkpt>
      <trkpt lat="44.65822" lon="0.61447">
        <ele>89</ele>
        <time>2022-10-15T08:24:48Z</time>
      </trkpt>
      <trkpt lat="44.65824" lon="0.6141">
        <ele>89.6</ele>
        <time>2022-10-15T08:24:55Z</time>
      </trkpt>
      <trkpt lat="44.65826" lon="0.61374">
        <ele>90.1</ele>
        <time>2022-10-15T08:25:02Z</time>
      </trkpt>
      <trkpt lat="44.65831" lon="0.61332">
        <ele>90.4</ele>
        <time>2022-10-15T08:25:10Z</time>
      </trkpt>
      <trkpt lat="44.65834" lon="0.61309">
        <ele>90.6</ele>
        <time>2022-10-15T08:25:15Z</time>
      </trkpt>
      <trkpt lat="44.65834" lon="0.61292">
        <ele>90.8</ele>
        <time>2022-10-15T08:25:18Z</time>
      </trkpt>
      <trkpt lat="44.65832" lon="0.61274">
        <ele>90.9</ele>
        <time>2022-10-15T08:25:21Z</time>
      </trkpt>
      <trkpt lat="44.65831" lon="0.61239">
        <ele>90.8</ele>
        <time>2022-10-15T08:25:27Z</time>
      </trkpt>
      <trkpt lat="44.65829" lon="0.61233">
        <ele>90.9</ele>
        <time>2022-10-15T08:25:28Z</time>
      </trkpt>
      <trkpt lat="44.65824" lon="0.61223">
        <ele>90.9</ele>
        <time>2022-10-15T08:25:30Z</time>
      </trkpt>
      <trkpt lat="44.65821" lon="0.61218">
        <ele>90.9</ele>
        <time>2022-10-15T08:25:31Z</time>
      </trkpt>
      <trkpt lat="44.65797" lon="0.61185">
        <ele>91.2</ele>
        <time>2022-10-15T08:25:38Z</time>
      </trkpt>
      <trkpt lat="44.65771" lon="0.61145">
        <ele>91.4</ele>
        <time>2022-10-15T08:25:46Z</time>
      </trkpt>
      <trkpt lat="44.65741" lon="0.61096">
        <ele>91.8</ele>
        <time>2022-10-15T08:25:55Z</time>
      </trkpt>
      <trkpt lat="44.65718" lon="0.61058">
        <ele>92.5</ele>
        <time>2022-10-15T08:26:02Z</time>
      </trkpt>
      <trkpt lat="44.65694" lon="0.6102">
        <ele>93.2</ele>
        <time>2022-10-15T08:26:09Z</time>
      </trkpt>
      <trkpt lat="44.65672" lon="0.60984">
        <ele>93.8</ele>
        <time>2022-10-15T08:26:16Z</time>
      </trkpt>
      <trkpt lat="44.65646" lon="0.60942">
        <ele>94.5</ele>
        <time>2022-10-15T08:26:24Z</time>
      </trkpt>
      <trkpt lat="44.65624" lon="0.60909">
        <ele>95.1</ele>
        <time>2022-10-15T08:26:31Z</time>
      </trkpt>
      <trkpt lat="44.65608" lon="0.60884">
        <ele>95.4</ele>
        <time>2022-10-15T08:26:36Z</time>
      </trkpt>
      <trkpt lat="44.65596" lon="0.60862">
        <ele>95.7</ele>
        <time>2022-10-15T08:26:40Z</time>
      </trkpt>
      <trkpt lat="44.65573" lon="0.60828">
        <ele>96.4</ele>
        <time>2022-10-15T08:26:47Z</time>
      </trkpt>
      <trkpt lat="44.65555" lon="0.60798">
        <ele>96.8</ele>
        <time>2022-10-15T08:26:53Z</time>
      </trkpt>
      <trkpt lat="44.65534" lon="0.60767">
        <ele>97</ele>
        <time>2022-10-15T08:26:59Z</time>
      </trkpt>
      <trkpt lat="44.65517" lon="0.60737">
        <ele>97.4</ele>
        <time>2022-10-15T08:27:04Z</time>
      </trkpt>
      <trkpt lat="44.65515" lon="0.6073">
        <ele>97.6</ele>
        <time>2022-10-15T08:27:05Z</time>
      </trkpt>
      <trkpt lat="44.65513" lon="0.60723">
        <ele>97.7</ele>
        <time>2022-10-15T08:27:06Z</time>
      </trkpt>
      <trkpt lat="44.65512" lon="0.60709">
        <ele>98.1</ele>
        <time>2022-10-15T08:27:08Z</time>
      </trkpt>
      <trkpt lat="44.65512" lon="0.60701">
        <ele>98.3</ele>
        <time>2022-10-15T08:27:09Z</time>
      </trkpt>
      <trkpt lat="44.65515" lon="0.60654">
        <ele>99.5</ele>
        <time>2022-10-15T08:27:16Z</time>
      </trkpt>
      <trkpt lat="44.65513" lon="0.6062">
        <ele>100.2</ele>
        <time>2022-10-15T08:27:22Z</time>
      </trkpt>
      <trkpt lat="44.65505" lon="0.60579">
        <ele>100.7</ele>
        <time>2022-10-15T08:27:29Z</time>
      </trkpt>
      <trkpt lat="44.65493" lon="0.60539">
        <ele>101.3</ele>
        <time>2022-10-15T08:27:36Z</time>
      </trkpt>
      <trkpt lat="44.6549" lon="0.60533">
        <ele>101.4</ele>
        <time>2022-10-15T08:27:37Z</time>
      </trkpt>
      <trkpt lat="44.65486" lon="0.6052">
        <ele>101.7</ele>
        <time>2022-10-15T08:27:39Z</time>
      </trkpt>
      <trkpt lat="44.65483" lon="0.60509">
        <ele>101.9</ele>
        <time>2022-10-15T08:27:41Z</time>
      </trkpt>
      <trkpt lat="44.65473" lon="0.60469">
        <ele>102.7</ele>
        <time>2022-10-15T08:27:48Z</time>
      </trkpt>
      <trkpt lat="44.65464" lon="0.60427">
        <ele>103.2</ele>
        <time>2022-10-15T08:27:55Z</time>
      </trkpt>
      <trkpt lat="44.65454" lon="0.60382">
        <ele>103</ele>
        <time>2022-10-15T08:28:02Z</time>
      </trkpt>
      <trkpt lat="44.65439" lon="0.60335">
        <ele>102.8</ele>
        <time>2022-10-15T08:28:09Z</time>
      </trkpt>
      <trkpt lat="44.65418" lon="0.60301">
        <ele>102.7</ele>
        <time>2022-10-15T08:28:15Z</time>
      </trkpt>
      <trkpt lat="44.6539" lon="0.60276">
        <ele>102.6</ele>
        <time>2022-10-15T08:28:21Z</time>
      </trkpt>
      <trkpt lat="44.65362" lon="0.60269">
        <ele>102.5</ele>
        <time>2022-10-15T08:28:26Z</time>
      </trkpt>
      <trkpt lat="44.6532" lon="0.60262">
        <ele>102</ele>
        <time>2022-10-15T08:28:33Z</time>
      </trkpt>
      <trkpt lat="44.65263" lon="0.60248">
        <ele>101.6</ele>
        <time>2022-10-15T08:28:42Z</time>
      </trkpt>
      <trkpt lat="44.65227" lon="0.60241">
        <ele>101.7</ele>
        <time>2022-10-15T08:28:48Z</time>
      </trkpt>
      <trkpt lat="44.65187" lon="0.60229">
        <ele>102.2</ele>
        <time>2022-10-15T08:28:55Z</time>
      </trkpt>
      <trkpt lat="44.65161" lon="0.60217">
        <ele>102.8</ele>
        <time>2022-10-15T08:29:00Z</time>
      </trkpt>
      <trkpt lat="44.65151" lon="0.60213">
        <ele>103.2</ele>
        <time>2022-10-15T08:29:02Z</time>
      </trkpt>
      <trkpt lat="44.65142" lon="0.60206">
        <ele>103.6</ele>
        <time>2022-10-15T08:29:04Z</time>
      </trkpt>
      <trkpt lat="44.65137" lon="0.60202">
        <ele>103.9</ele>
        <time>2022-10-15T08:29:05Z</time>
      </trkpt>
      <trkpt lat="44.65134" lon="0.60197">
        <ele>104.1</ele>
        <time>2022-10-15T08:29:06Z</time>
      </trkpt>
      <trkpt lat="44.65127" lon="0.60182">
        <ele>104.8</ele>
        <time>2022-10-15T08:29:09Z</time>
      </trkpt>
      <trkpt lat="44.65122" lon="0.60154">
        <ele>105.4</ele>
        <time>2022-10-15T08:29:14Z</time>
      </trkpt>
      <trkpt lat="44.6512" lon="0.60142">
        <ele>105.5</ele>
        <time>2022-10-15T08:29:16Z</time>
      </trkpt>
      <trkpt lat="44.65116" lon="0.60129">
        <ele>105.6</ele>
        <time>2022-10-15T08:29:18Z</time>
      </trkpt>
      <trkpt lat="44.65108" lon="0.60094">
        <ele>105.7</ele>
        <time>2022-10-15T08:29:24Z</time>
      </trkpt>
      <trkpt lat="44.65102" lon="0.60052">
        <ele>105.8</ele>
        <time>2022-10-15T08:29:31Z</time>
      </trkpt>
      <trkpt lat="44.65099" lon="0.60023">
        <ele>105.9</ele>
        <time>2022-10-15T08:29:36Z</time>
      </trkpt>
      <trkpt lat="44.65097" lon="0.60017">
        <ele>105.9</ele>
        <time>2022-10-15T08:29:37Z</time>
      </trkpt>
      <trkpt lat="44.65095" lon="0.60011">
        <ele>106</ele>
        <time>2022-10-15T08:29:38Z</time>
      </trkpt>
      <trkpt lat="44.6509" lon="0.60001">
        <ele>106</ele>
        <time>2022-10-15T08:29:40Z</time>
      </trkpt>
      <trkpt lat="44.65086" lon="0.59999">
        <ele>106</ele>
        <time>2022-10-15T08:29:41Z</time>
      </trkpt>
      <trkpt lat="44.65082" lon="0.59998">
        <ele>106</ele>
        <time>2022-10-15T08:29:42Z</time>
      </trkpt>
      <trkpt lat="44.65067" lon="0.59997">
        <ele>105.9</ele>
        <time>2022-10-15T08:29:45Z</time>
      </trkpt>
      <trkpt lat="44.6506" lon="0.5999">
        <ele>105.8</ele>
        <time>2022-10-15T08:29:47Z</time>
      </trkpt>
      <trkpt lat="44.65058" lon="0.59983">
        <ele>105.9</ele>
        <time>2022-10-15T08:29:48Z</time>
      </trkpt>
      <trkpt lat="44.65059" lon="0.59977">
        <ele>106.1</ele>
        <time>2022-10-15T08:29:49Z</time>
      </trkpt>
      <trkpt lat="44.65062" lon="0.59964">
        <ele>106.4</ele>
        <time>2022-10-15T08:29:51Z</time>
      </trkpt>
      <trkpt lat="44.65074" lon="0.59912">
        <ele>107.5</ele>
        <time>2022-10-15T08:29:59Z</time>
      </trkpt>
      <trkpt lat="44.65088" lon="0.59853">
        <ele>108.6</ele>
        <time>2022-10-15T08:30:08Z</time>
      </trkpt>
      <trkpt lat="44.65096" lon="0.5982">
        <ele>109.3</ele>
        <time>2022-10-15T08:30:13Z</time>
      </trkpt>
      <trkpt lat="44.65099" lon="0.59809">
        <ele>109.7</ele>
        <time>2022-10-15T08:30:15Z</time>
      </trkpt>
      <trkpt lat="44.65099" lon="0.59784">
        <ele>110.4</ele>
        <time>2022-10-15T08:30:20Z</time>
      </trkpt>
      <trkpt lat="44.65096" lon="0.5978">
        <ele>110.3</ele>
        <time>2022-10-15T08:30:21Z</time>
      </trkpt>
      <trkpt lat="44.65089" lon="0.59773">
        <ele>110.2</ele>
        <time>2022-10-15T08:30:23Z</time>
      </trkpt>
      <trkpt lat="44.65056" lon="0.59757">
        <ele>109.6</ele>
        <time>2022-10-15T08:30:29Z</time>
      </trkpt>
      <trkpt lat="44.65024" lon="0.59745">
        <ele>109.2</ele>
        <time>2022-10-15T08:30:35Z</time>
      </trkpt>
      <trkpt lat="44.65019" lon="0.59742">
        <ele>109.1</ele>
        <time>2022-10-15T08:30:36Z</time>
      </trkpt>
      <trkpt lat="44.6499" lon="0.59729">
        <ele>108.6</ele>
        <time>2022-10-15T08:30:41Z</time>
      </trkpt>
      <trkpt lat="44.64988" lon="0.59726">
        <ele>108.6</ele>
        <time>2022-10-15T08:30:42Z</time>
      </trkpt>
      <trkpt lat="44.64987" lon="0.59721">
        <ele>108.5</ele>
        <time>2022-10-15T08:30:43Z</time>
      </trkpt>
      <trkpt lat="44.64992" lon="0.59714">
        <ele>108.4</ele>
        <time>2022-10-15T08:30:45Z</time>
      </trkpt>
      <trkpt lat="44.64996" lon="0.59715">
        <ele>108.3</ele>
        <time>2022-10-15T08:30:46Z</time>
      </trkpt>
      <trkpt lat="44.65009" lon="0.59717">
        <ele>108</ele>
        <time>2022-10-15T08:30:49Z</time>
      </trkpt>
      <trkpt lat="44.65013" lon="0.59717">
        <ele>107.9</ele>
        <time>2022-10-15T08:30:50Z</time>
      </trkpt>
      <trkpt lat="44.65028" lon="0.59715">
        <ele>107.6</ele>
        <time>2022-10-15T08:30:53Z</time>
      </trkpt>
      <trkpt lat="44.65037" lon="0.59718">
        <ele>107.4</ele>
        <time>2022-10-15T08:30:55Z</time>
      </trkpt>
      <trkpt lat="44.65066" lon="0.59734">
        <ele>108.9</ele>
        <time>2022-10-15T08:31:01Z</time>
      </trkpt>
      <trkpt lat="44.65103" lon="0.59752">
        <ele>110.5</ele>
        <time>2022-10-15T08:31:08Z</time>
      </trkpt>
      <trkpt lat="44.65109" lon="0.59755">
        <ele>110.4</ele>
        <time>2022-10-15T08:31:09Z</time>
      </trkpt>
      <trkpt lat="44.65126" lon="0.59762">
        <ele>110.3</ele>
        <time>2022-10-15T08:31:12Z</time>
      </trkpt>
      <trkpt lat="44.65142" lon="0.59769">
        <ele>110.1</ele>
        <time>2022-10-15T08:31:15Z</time>
      </trkpt>
      <trkpt lat="44.65147" lon="0.59772">
        <ele>110</ele>
        <time>2022-10-15T08:31:16Z</time>
      </trkpt>
      <trkpt lat="44.65182" lon="0.59785">
        <ele>109.2</ele>
        <time>2022-10-15T08:31:22Z</time>
      </trkpt>
      <trkpt lat="44.65227" lon="0.59794">
        <ele>108.2</ele>
        <time>2022-10-15T08:31:29Z</time>
      </trkpt>
      <trkpt lat="44.65259" lon="0.59796">
        <ele>104.9</ele>
        <time>2022-10-15T08:31:34Z</time>
      </trkpt>
      <trkpt lat="44.65298" lon="0.59797">
        <ele>101.1</ele>
        <time>2022-10-15T08:31:40Z</time>
      </trkpt>
      <trkpt lat="44.65338" lon="0.59794">
        <ele>97.9</ele>
        <time>2022-10-15T08:31:46Z</time>
      </trkpt>
      <trkpt lat="44.65383" lon="0.59786">
        <ele>96.1</ele>
        <time>2022-10-15T08:31:53Z</time>
      </trkpt>
      <trkpt lat="44.65429" lon="0.59771">
        <ele>96.1</ele>
        <time>2022-10-15T08:32:00Z</time>
      </trkpt>
      <trkpt lat="44.65458" lon="0.59758">
        <ele>95.7</ele>
        <time>2022-10-15T08:32:05Z</time>
      </trkpt>
      <trkpt lat="44.65495" lon="0.59738">
        <ele>95.1</ele>
        <time>2022-10-15T08:32:12Z</time>
      </trkpt>
      <trkpt lat="44.65499" lon="0.59733">
        <ele>94.4</ele>
        <time>2022-10-15T08:32:13Z</time>
      </trkpt>
      <trkpt lat="44.65499" lon="0.59728">
        <ele>94.2</ele>
        <time>2022-10-15T08:32:14Z</time>
      </trkpt>
      <trkpt lat="44.65497" lon="0.59723">
        <ele>94.6</ele>
        <time>2022-10-15T08:32:15Z</time>
      </trkpt>
      <trkpt lat="44.65493" lon="0.59721">
        <ele>94.5</ele>
        <time>2022-10-15T08:32:16Z</time>
      </trkpt>
      <trkpt lat="44.65484" lon="0.59717">
        <ele>94.3</ele>
        <time>2022-10-15T08:32:18Z</time>
      </trkpt>
      <trkpt lat="44.6545" lon="0.59697">
        <ele>94.3</ele>
        <time>2022-10-15T08:32:24Z</time>
      </trkpt>
      <trkpt lat="44.65423" lon="0.5968">
        <ele>95.5</ele>
        <time>2022-10-15T08:32:30Z</time>
      </trkpt>
      <trkpt lat="44.65402" lon="0.59666">
        <ele>96.9</ele>
        <time>2022-10-15T08:32:36Z</time>
      </trkpt>
      <trkpt lat="44.65381" lon="0.59651">
        <ele>98.4</ele>
        <time>2022-10-15T08:32:43Z</time>
      </trkpt>
      <trkpt lat="44.65363" lon="0.59638">
        <ele>100.1</ele>
        <time>2022-10-15T08:32:49Z</time>
      </trkpt>
      <trkpt lat="44.65349" lon="0.59626">
        <ele>101.8</ele>
        <time>2022-10-15T08:32:55Z</time>
      </trkpt>
      <trkpt lat="44.65332" lon="0.59612">
        <ele>103.6</ele>
        <time>2022-10-15T08:33:02Z</time>
      </trkpt>
      <trkpt lat="44.65324" lon="0.59605">
        <ele>104.3</ele>
        <time>2022-10-15T08:33:07Z</time>
      </trkpt>
      <trkpt lat="44.65329" lon="0.59596">
        <ele>104.7</ele>
        <time>2022-10-15T08:33:10Z</time>
      </trkpt>
      <trkpt lat="44.65333" lon="0.59577">
        <ele>104.9</ele>
        <time>2022-10-15T08:33:14Z</time>
      </trkpt>
      <trkpt lat="44.65341" lon="0.59539">
        <ele>104.8</ele>
        <time>2022-10-15T08:33:21Z</time>
      </trkpt>
      <trkpt lat="44.65344" lon="0.59514">
        <ele>104.6</ele>
        <time>2022-10-15T08:33:25Z</time>
      </trkpt>
      <trkpt lat="44.65343" lon="0.59501">
        <ele>104.6</ele>
        <time>2022-10-15T08:33:27Z</time>
      </trkpt>
      <trkpt lat="44.6534" lon="0.59487">
        <ele>104.7</ele>
        <time>2022-10-15T08:33:29Z</time>
      </trkpt>
      <trkpt lat="44.65336" lon="0.59475">
        <ele>104.8</ele>
        <time>2022-10-15T08:33:31Z</time>
      </trkpt>
      <trkpt lat="44.65333" lon="0.59469">
        <ele>104.9</ele>
        <time>2022-10-15T08:33:32Z</time>
      </trkpt>
      <trkpt lat="44.6533" lon="0.59464">
        <ele>105.1</ele>
        <time>2022-10-15T08:33:33Z</time>
      </trkpt>
      <trkpt lat="44.65321" lon="0.59455">
        <ele>106.3</ele>
        <time>2022-10-15T08:33:36Z</time>
      </trkpt>
      <trkpt lat="44.65306" lon="0.59445">
        <ele>108.4</ele>
        <time>2022-10-15T08:33:42Z</time>
      </trkpt>
      <trkpt lat="44.65306" lon="0.59429">
        <ele>109.8</ele>
        <time>2022-10-15T08:33:46Z</time>
      </trkpt>
      <trkpt lat="44.6532" lon="0.59397">
        <ele>110.4</ele>
        <time>2022-10-15T08:33:53Z</time>
      </trkpt>
      <trkpt lat="44.65335" lon="0.59365">
        <ele>110.8</ele>
        <time>2022-10-15T08:33:59Z</time>
      </trkpt>
      <trkpt lat="44.65342" lon="0.59348">
        <ele>111.1</ele>
        <time>2022-10-15T08:34:03Z</time>
      </trkpt>
      <trkpt lat="44.65351" lon="0.59329">
        <ele>111.7</ele>
        <time>2022-10-15T08:34:08Z</time>
      </trkpt>
      <trkpt lat="44.65366" lon="0.5931">
        <ele>112.9</ele>
        <time>2022-10-15T08:34:14Z</time>
      </trkpt>
      <trkpt lat="44.65383" lon="0.59295">
        <ele>114.3</ele>
        <time>2022-10-15T08:34:20Z</time>
      </trkpt>
      <trkpt lat="44.65385" lon="0.59292">
        <ele>114.5</ele>
        <time>2022-10-15T08:34:21Z</time>
      </trkpt>
      <trkpt lat="44.65385" lon="0.59281">
        <ele>115</ele>
        <time>2022-10-15T08:34:24Z</time>
      </trkpt>
      <trkpt lat="44.6538" lon="0.59269">
        <ele>115.7</ele>
        <time>2022-10-15T08:34:28Z</time>
      </trkpt>
      <trkpt lat="44.6538" lon="0.59268">
        <ele>115.7</ele>
        <time>2022-10-15T08:34:30Z</time>
      </trkpt>
    </trkseg>
  </trk>
</gpx>